ftp/pub/palmer/observations_modified/2019/October/original_files/AR191024_BASE.txt
Download
Sample DateTime Unit Id WS Avg 2min WD Avg 2min WGS 10min WGD 10min Air Temp Rel Humidity Dew Point Pyranometer Quantum Air Pressure Snow Level Rainfall PW Current Visibility CBase 1 CBase 2 CBase 3 Vert Vis
2019/10/24 00:00:00 BASE 6.27 114 7.15 104 -1.8 66 -7.4 4 0 1002.2 NA 0.0000 9999 0 0 0 0
2019/10/24 00:01:00 BASE 5.93 112 7.15 104 -1.7 64 -7.5 4 0 1002.2 NA 0.0000 9999 0 0 0 0
2019/10/24 00:02:00 BASE 5.76 115 7.15 104 -1.6 63 -7.7 3 0 1002.2 NA 0.0000 9999 0 0 0 0
2019/10/24 00:03:00 BASE 5.79 120 7.15 104 -1.5 62 -7.8 3 0 1002.2 NA 0.0000 9999 0 0 0 0
2019/10/24 00:04:00 BASE 5.85 124 7.15 104 -1.5 62 -7.9 3 0 1002.2 NA 0.0000 9999 0 0 0 0
2019/10/24 00:05:00 BASE 6.17 129 7.15 135 -1.5 61 -8.0 3 0 1002.2 NA 0.0000 9999 0 0 0 0
2019/10/24 00:06:01 BASE 6.03 135 7.15 135 -1.4 61 -8.0 3 0 1002.2 NA 0.0000 9999 0 0 0 0
2019/10/24 00:07:00 BASE 5.37 135 7.15 135 -1.4 60 -8.1 3 0 1002.2 NA 0.0000 9999 0 0 0 0
2019/10/24 00:08:01 BASE 5.32 130 7.15 135 -1.4 60 -8.2 3 0 1002.2 NA 0.0000 9999 0 0 0 0
2019/10/24 00:09:00 BASE 5.39 127 7.15 135 -1.5 60 -8.1 2 0 1002.3 NA 0.0000 9999 0 0 0 0
2019/10/24 00:10:00 BASE 4.99 127 7.15 135 -1.4 60 -8.1 2 0 1002.3 NA 0.0000 9999 0 0 0 0
2019/10/24 00:11:00 BASE 4.90 126 7.15 135 -1.4 60 -8.2 2 0 1002.3 NA 0.0000 9999 0 0 0 0
2019/10/24 00:12:01 BASE 4.96 123 7.15 135 -1.3 59 -8.2 2 0 1002.3 NA 0.0000 9999 0 0 0 0
2019/10/24 00:13:01 BASE 5.15 118 7.15 135 -1.1 58 -8.4 2 0 1002.3 NA 0.0000 9999 0 0 0 0
2019/10/24 00:14:01 BASE 5.60 111 7.15 135 -1.1 56 -8.7 2 0 1002.2 NA 0.0000 9999 0 0 0 0
2019/10/24 00:15:01 BASE 5.57 106 6.17 105 -1.1 55 -9.0 2 0 1002.2 NA 0.0000 9999 0 0 0 0
2019/10/24 00:16:01 BASE 5.39 106 6.17 105 -1.2 54 -9.3 2 0 1002.2 NA 0.0000 9999 0 0 0 0
2019/10/24 00:17:01 BASE 5.20 107 6.17 105 -1.3 54 -9.3 2 0 1002.2 NA 0.0000 9999 0 0 0 0
2019/10/24 00:18:01 BASE 4.90 108 6.17 105 -1.3 54 -9.4 1 0 1002.2 NA 0.0000 9999 0 0 0 0
2019/10/24 00:19:01 BASE 4.96 109 6.17 105 -1.3 55 -9.2 1 0 1002.3 NA 0.0000 9999 0 0 0 0
2019/10/24 00:20:01 BASE 5.17 112 6.17 105 -1.3 55 -9.2 1 0 1002.3 NA 0.0000 9999 0 0 0 0
2019/10/24 00:21:01 BASE 5.14 117 6.17 105 -1.3 55 -9.2 1 0 1002.3 NA 0.0000 9999 0 0 0 0
2019/10/24 00:22:01 BASE 4.77 122 6.17 105 -1.4 55 -9.3 1 0 1002.3 NA 0.0000 9999 0 0 0 0
2019/10/24 00:23:01 BASE 4.30 127 6.17 105 -1.5 55 -9.4 1 0 1002.3 NA 0.0000 9999 0 0 0 0
2019/10/24 00:24:01 BASE 2.65 152 6.07 106 -1.6 55 -9.6 1 0 1002.3 NA 0.0000 9999 0 0 0 0
2019/10/24 00:25:01 BASE 0.79 162 6.07 106 -1.9 55 -9.6 1 0 1002.3 NA 0.0000 9999 0 0 0 0
2019/10/24 00:26:01 BASE 0.32 156 5.61 111 -2.1 56 -9.6 1 0 1002.3 NA 0.0000 9999 0 0 0 0
2019/10/24 00:27:01 BASE 0.83 150 5.61 111 -2.3 57 -9.6 1 0 1002.3 NA 0.0000 9999 0 0 0 0
2019/10/24 00:28:01 BASE 1.45 139 5.61 111 -2.5 58 -9.6 1 0 1002.4 NA 0.0000 9999 0 0 0 0
2019/10/24 00:29:00 BASE 1.22 126 5.61 111 -2.6 59 -9.4 1 0 1002.4 NA 0.0000 9999 0 0 0 0
2019/10/24 00:30:00 BASE 0.72 71 5.35 121 -2.5 60 -9.2 0 0 1002.4 NA 0.0000 9999 0 0 0 0
2019/10/24 00:31:00 BASE 0.26 48 4.94 125 -2.3 60 -9.0 0 0 1002.5 NA 0.0000 9999 0 0 0 0
2019/10/24 00:32:00 BASE 0.00 46 4.37 128 -2.1 60 -8.9 0 0 1002.5 NA 0.0000 9999 0 0 0 0
2019/10/24 00:33:00 BASE 0.28 42 3.45 130 -1.9 60 -8.7 0 0 1002.5 NA 0.0000 9999 0 0 0 0
2019/10/24 00:34:00 BASE 0.65 48 2.11 151 -1.8 59 -8.7 0 0 1002.5 NA 0.0000 9999 0 0 0 0
2019/10/24 00:35:00 BASE 0.57 49 2.11 151 -1.7 59 -8.7 0 0 1002.5 NA 0.0000 9999 0 0 0 0
2019/10/24 00:36:00 BASE 0.20 47 2.11 151 -1.6 59 -8.7 0 0 1002.5 NA 0.0000 9999 0 0 0 0
2019/10/24 00:37:00 BASE 0.00 89 2.11 151 -1.5 58 -8.8 0 0 1002.4 NA 0.0000 9999 0 0 0 0
2019/10/24 00:38:00 BASE 0.00 154 2.06 136 -1.4 57 -8.9 0 0 1002.4 NA 0.0000 9999 0 0 0 0
2019/10/24 00:39:00 BASE 0.00 194 1.49 41 -1.3 56 -9.0 0 0 1002.4 NA 0.0000 9999 0 0 0 0
2019/10/24 00:40:00 BASE 0.82 158 2.42 98 -1.3 55 -9.1 0 0 1002.5 NA 0.0000 9999 0 0 0 0
2019/10/24 00:41:00 BASE 0.98 91 2.42 98 -1.4 55 -9.2 0 0 1002.5 NA 0.0000 9999 0 0 0 0
2019/10/24 00:42:00 BASE 0.16 63 2.42 98 -1.4 55 -9.2 0 0 1002.4 NA 0.0000 9999 0 0 0 0
2019/10/24 00:43:00 BASE 0.00 53 2.42 98 -1.4 56 -9.1 0 0 1002.4 NA 0.0000 9999 0 0 0 0
2019/10/24 00:44:00 BASE 0.00 51 2.42 98 -1.4 56 -9.1 0 0 1002.4 NA 0.0000 9999 0 0 0 0
2019/10/24 00:45:00 BASE 0.00 51 2.42 98 -1.2 55 -9.1 0 0 1002.5 NA 0.0000 9999 0 0 0 0
2019/10/24 00:46:00 BASE 0.00 51 2.42 98 -1.1 54 -9.2 0 0 1002.4 NA 0.0000 9999 0 0 0 0
2019/10/24 00:47:00 BASE 0.00 52 2.42 98 -1.0 53 -9.3 0 0 1002.3 NA 0.0000 9999 0 0 0 0
2019/10/24 00:48:00 BASE 1.04 62 2.78 69 -1.0 53 -9.5 0 0 1002.3 NA 0.0000 9999 0 0 0 0
2019/10/24 00:49:00 BASE 2.17 72 2.78 69 -1.1 53 -9.4 0 0 1002.3 NA 0.0000 9999 0 0 0 0
2019/10/24 00:50:00 BASE 2.10 66 2.78 69 -1.2 54 -9.3 0 0 1002.3 NA 0.0000 9999 0 0 0 0
2019/10/24 00:51:00 BASE 2.29 62 3.34 64 -1.4 56 -9.1 0 0 1002.3 NA 0.0000 9999 0 0 0 0
2019/10/24 00:52:00 BASE 1.60 61 3.34 64 -1.5 57 -8.9 0 0 1002.3 NA 0.0000 9999 0 0 0 0
2019/10/24 00:53:00 BASE 0.73 59 3.34 64 -1.6 58 -8.7 0 0 1002.3 NA 0.0000 9999 0 0 0 0
2019/10/24 00:54:00 BASE 0.89 52 3.34 64 -1.6 58 -8.7 0 0 1002.3 NA 0.0000 9999 0 0 0 0
2019/10/24 00:55:00 BASE 1.28 36 3.34 64 -1.5 58 -8.6 0 0 1002.3 NA 0.0000 9999 0 0 0 0
2019/10/24 00:56:00 BASE 1.70 34 3.34 64 -1.4 58 -8.6 0 0 1002.3 NA 0.0000 9999 0 0 0 0
2019/10/24 00:57:00 BASE 1.86 41 3.34 64 -1.4 58 -8.7 0 0 1002.2 NA 0.0000 9999 0 0 0 0
2019/10/24 00:58:00 BASE 2.15 35 3.34 64 -1.2 57 -8.7 0 0 1002.3 NA 0.0000 9999 0 0 0 0
2019/10/24 00:59:00 BASE 2.42 24 3.34 64 -1.1 56 -8.8 0 0 1002.3 NA 0.0000 9999 0 0 0 0
2019/10/24 01:00:00 BASE 2.45 16 3.34 64 -1.1 56 -8.9 0 0 1002.3 NA 0.0000 9999 0 0 0 0
2019/10/24 01:01:00 BASE 2.23 15 3.04 18 -1.2 55 -9.0 0 0 1002.3 NA 0.0000 9999 0 0 0 0
2019/10/24 01:02:00 BASE 2.18 33 3.04 18 -1.3 56 -9.0 0 0 1002.3 NA 0.0000 9999 0 0 0 0
2019/10/24 01:03:00 BASE 2.65 50 3.60 48 -1.4 56 -9.0 0 0 1002.3 NA 0.0000 9999 0 0 0 0
2019/10/24 01:04:00 BASE 3.32 59 4.06 64 -1.5 57 -9.0 0 0 1002.3 NA 0.0000 9999 0 0 0 0
2019/10/24 01:05:00 BASE 3.16 53 4.06 64 -1.5 57 -9.0 0 0 1002.3 NA 0.0000 9999 0 0 0 0
2019/10/24 01:06:00 BASE 2.65 32 4.06 64 -1.5 56 -9.1 0 0 1002.3 NA 0.0000 9999 0 0 0 0
2019/10/24 01:07:00 BASE 2.84 24 4.06 64 -1.4 55 -9.3 0 0 1002.4 NA 0.0000 9999 0 0 0 0
2019/10/24 01:08:00 BASE 3.20 20 4.06 64 -1.3 54 -9.5 0 0 1002.5 NA 0.0000 9999 0 0 0 0
2019/10/24 01:09:00 BASE 3.18 14 4.06 64 -1.2 53 -9.6 0 0 1002.5 NA 0.0000 9999 0 0 0 0
2019/10/24 01:10:00 BASE 3.00 12 4.06 64 -1.2 52 -9.7 0 0 1002.5 NA 0.0000 9999 0 0 0 0
2019/10/24 01:11:00 BASE 3.00 9 4.06 64 -1.2 53 -9.7 0 0 1002.5 NA 0.0000 9999 0 0 0 0
2019/10/24 01:12:00 BASE 3.33 8 4.42 5 -1.2 53 -9.6 0 0 1002.5 NA 0.0000 9999 0 0 0 0
2019/10/24 01:13:00 BASE 3.30 5 4.42 5 -1.2 53 -9.5 0 0 1002.5 NA 0.0000 9999 0 0 0 0
2019/10/24 01:14:00 BASE 3.11 6 4.42 5 -1.3 54 -9.4 0 0 1002.5 NA 0.0000 9999 0 0 0 0
2019/10/24 01:15:00 BASE 3.23 16 4.42 5 -1.3 54 -9.3 0 0 1002.5 NA 0.0000 9999 0 0 0 0
2019/10/24 01:16:00 BASE 2.83 23 4.42 5 -1.3 55 -9.3 0 0 1002.5 NA 0.0000 9999 0 0 0 0
2019/10/24 01:17:00 BASE 2.29 32 4.42 5 -1.3 55 -9.2 0 0 1002.5 NA 0.0000 9999 0 0 0 0
2019/10/24 01:18:00 BASE 2.51 28 4.42 5 -1.4 55 -9.1 0 0 1002.5 NA 0.0000 9999 0 0 0 0
2019/10/24 01:19:00 BASE 2.80 21 4.42 5 -1.4 56 -9.1 0 0 1002.4 NA 0.0000 9999 0 0 0 0
2019/10/24 01:20:00 BASE 2.72 30 4.42 5 -1.3 56 -9.1 0 0 1002.3 NA 0.0000 9999 0 0 0 0
2019/10/24 01:21:00 BASE 2.38 43 4.42 5 -1.3 55 -9.1 0 0 1002.3 NA 0.0000 9999 0 0 0 0
2019/10/24 01:22:00 BASE 2.27 40 4.17 352 -1.2 54 -9.3 0 0 1002.3 NA 0.0000 9999 0 0 0 0
2019/10/24 01:23:00 BASE 2.81 24 3.76 19 -1.1 53 -9.4 0 0 1002.3 NA 0.0000 9999 0 0 0 0
2019/10/24 01:24:00 BASE 3.14 18 3.76 19 -0.9 52 -9.6 0 0 1002.3 NA 0.0000 9999 0 0 0 0
2019/10/24 01:25:00 BASE 3.15 24 3.65 9 -0.8 51 -9.8 0 0 1002.3 NA 0.0000 9999 0 0 0 0
2019/10/24 01:26:00 BASE 2.92 29 3.65 9 -0.8 50 -9.9 0 0 1002.3 NA 0.0000 9999 0 0 0 0
2019/10/24 01:27:00 BASE 2.53 30 3.65 9 -0.7 49 -10.0 0 0 1002.2 NA 0.0000 9999 0 0 0 0
2019/10/24 01:28:00 BASE 2.37 36 3.65 9 -0.7 49 -10.1 0 0 1002.2 NA 0.0000 9999 0 0 0 0
2019/10/24 01:29:00 BASE 2.56 38 3.65 9 -0.8 49 -10.2 0 0 1002.2 NA 0.0000 9999 0 0 0 0
2019/10/24 01:30:00 BASE 2.62 32 3.65 9 -0.7 49 -10.1 0 0 1002.3 NA 0.0000 9999 0 0 0 0
2019/10/24 01:31:00 BASE 2.40 22 3.65 9 -0.7 49 -10.2 0 0 1002.3 NA 0.0000 9999 0 0 0 0
2019/10/24 01:32:00 BASE 2.22 24 3.65 9 -0.7 49 -10.2 0 0 1002.3 NA 0.0000 9999 0 0 0 0
2019/10/24 01:33:00 BASE 1.19 22 3.65 9 -0.7 48 -10.3 0 0 1002.3 NA 0.0000 9999 0 0 0 0
2019/10/24 01:34:00 BASE 0.17 20 3.45 26 -0.8 48 -10.4 0 0 1002.3 NA 0.0000 9999 0 0 0 0
2019/10/24 01:35:00 BASE 0.05 173 3.09 26 -1.0 49 -10.4 0 0 1002.2 NA 0.0000 9999 0 0 0 0
2019/10/24 01:36:00 BASE 0.74 197 2.98 32 -1.3 50 -10.4 0 0 1002.2 NA 0.0000 9999 0 0 0 0
2019/10/24 01:37:00 BASE 1.20 194 2.98 32 -1.6 51 -10.4 0 0 1002.2 NA 0.0000 9999 0 0 0 0
2019/10/24 01:38:00 BASE 0.46 164 2.98 32 -1.8 53 -10.3 0 0 1002.2 NA 0.0000 9999 0 0 0 0
2019/10/24 01:39:00 BASE 0.00 81 2.88 21 -1.9 53 -10.1 0 0 1002.2 NA 0.0000 9999 0 0 0 0
2019/10/24 01:40:00 BASE 0.00 35 2.78 20 -1.8 54 -10.0 0 0 1002.2 NA 0.0000 9999 0 0 0 0
2019/10/24 01:41:00 BASE 0.00 351 2.68 35 -1.7 53 -10.0 0 0 1002.2 NA 0.0000 9999 0 0 0 0
2019/10/24 01:42:00 BASE 0.00 285 1.90 185 -1.5 53 -9.9 0 0 1002.2 NA 0.0000 9999 0 0 0 0
2019/10/24 01:43:00 BASE 0.00 231 1.90 185 -1.4 52 -9.9 0 0 1002.2 NA 0.0000 9999 0 0 0 0
2019/10/24 01:44:00 BASE 0.00 204 1.90 185 -1.4 52 -9.9 0 0 1002.2 NA 0.0000 9999 0 0 0 0
2019/10/24 01:45:00 BASE 0.00 208 1.90 185 -1.3 52 -9.9 0 0 1002.2 NA 0.0000 9999 0 0 0 0
2019/10/24 01:46:00 BASE 0.20 167 1.90 185 -1.3 52 -9.9 0 0 1002.2 NA 0.0000 9999 0 0 0 0
2019/10/24 01:47:00 BASE 1.17 124 2.52 118 -1.4 52 -10.0 0 0 1002.2 NA 0.0000 9999 0 0 0 0
2019/10/24 01:48:00 BASE 2.29 120 2.83 121 -1.5 52 -10.0 0 0 1002.2 NA 0.0000 9999 0 0 0 0
2019/10/24 01:49:00 BASE 2.60 128 2.83 121 -1.5 52 -10.1 0 0 1002.2 NA 0.0000 9999 0 0 0 0
2019/10/24 01:50:00 BASE 2.68 146 3.50 164 -1.6 52 -10.2 0 0 1002.2 NA 0.0000 9999 0 0 0 0
2019/10/24 01:51:00 BASE 3.10 156 3.91 155 -1.7 51 -10.4 0 0 1002.2 NA 0.0000 9999 0 0 0 0
2019/10/24 01:52:00 BASE 3.24 155 3.91 155 -1.8 52 -10.4 0 0 1002.2 NA 0.0000 9999 0 0 0 0
2019/10/24 01:53:00 BASE 3.02 153 3.91 155 -2.0 54 -10.1 0 0 1002.2 NA 0.0000 9999 0 0 0 0
2019/10/24 01:54:00 BASE 2.51 152 3.91 155 -2.1 56 -9.8 0 0 1002.2 NA 0.0000 9999 0 0 0 0
2019/10/24 01:55:00 BASE 2.05 155 3.91 155 -2.3 59 -9.3 0 0 1002.2 NA 0.0000 9999 0 0 0 0
2019/10/24 01:56:00 BASE 2.38 158 3.91 155 -2.3 61 -8.8 0 0 1002.2 NA 0.0000 9999 0 0 0 0
2019/10/24 01:57:00 BASE 2.63 143 3.91 155 -2.3 62 -8.6 0 0 1002.2 NA 0.0000 9999 0 0 0 0
2019/10/24 01:58:00 BASE 2.75 105 3.91 155 -2.1 61 -8.7 0 0 1002.2 NA 0.0000 9999 0 0 0 0
2019/10/24 01:59:00 BASE 3.34 87 4.94 89 -1.9 58 -9.1 0 0 1002.2 NA 0.0000 9999 0 0 0 0
2019/10/24 02:00:00 BASE 4.35 74 5.71 52 -1.8 55 -9.7 0 0 1002.2 NA 0.0000 9999 0 0 0 0
2019/10/24 02:01:00 BASE 4.73 54 5.71 52 -1.7 53 -10.1 0 0 1002.2 NA 0.0000 9999 0 0 0 0
2019/10/24 02:02:00 BASE 3.85 54 5.71 52 -1.5 50 -10.5 0 0 1002.2 NA 0.0000 9999 0 0 0 0
2019/10/24 02:03:00 BASE 2.95 62 5.71 52 -1.3 49 -10.7 0 0 1002.2 NA 0.0000 9999 0 0 0 0
2019/10/24 02:04:00 BASE 3.86 74 5.81 91 -1.3 49 -10.8 0 0 1002.2 NA 0.0000 9999 0 0 0 0
2019/10/24 02:05:00 BASE 5.42 84 6.43 75 -1.4 49 -10.8 0 0 1002.2 NA 0.0000 9999 0 0 0 0
2019/10/24 02:06:00 BASE 4.94 79 6.43 75 -1.4 49 -10.7 0 0 1002.2 NA 0.0000 9999 0 0 0 0
2019/10/24 02:07:00 BASE 3.99 70 6.43 75 -1.5 50 -10.7 0 0 1002.2 NA 0.0000 9999 0 0 0 0
2019/10/24 02:08:00 BASE 4.84 65 6.58 69 -1.5 50 -10.7 0 0 1002.2 NA 0.0000 9999 0 0 0 0
2019/10/24 02:09:00 BASE 4.74 70 6.58 69 -1.6 50 -10.6 0 0 1002.1 NA 0.0000 9999 0 0 0 0
2019/10/24 02:10:00 BASE 3.83 86 6.58 69 -1.6 50 -10.6 0 0 1002.1 NA 0.0000 9999 0 0 0 0
2019/10/24 02:11:00 BASE 4.34 86 6.58 69 -1.7 50 -10.8 0 0 1002.1 NA 0.0000 9999 0 0 0 0
2019/10/24 02:12:00 BASE 4.97 68 6.58 69 -1.7 50 -10.9 0 0 1002.1 NA 0.0000 9999 0 0 0 0
2019/10/24 02:13:00 BASE 4.62 59 6.58 69 -1.7 49 -10.9 0 0 1002.1 NA 0.0000 9999 0 0 0 0
2019/10/24 02:14:00 BASE 4.09 70 6.58 69 -1.6 48 -11.1 0 0 1002.1 NA 0.0000 9999 0 0 0 0
2019/10/24 02:15:00 BASE 3.99 88 6.58 69 -1.5 48 -11.1 0 0 1002.1 NA 0.0000 9999 0 0 0 0
2019/10/24 02:16:00 BASE 3.50 108 6.58 69 -1.2 47 -11.1 0 0 1002.0 NA 0.0000 9999 0 0 0 0
2019/10/24 02:17:00 BASE 2.66 128 6.58 69 -1.0 46 -11.2 0 0 1002.0 NA 0.0000 9999 0 0 0 0
2019/10/24 02:18:00 BASE 2.10 142 5.81 66 -1.0 45 -11.3 0 0 1002.0 NA 0.0000 9999 0 0 0 0
2019/10/24 02:19:00 BASE 2.19 154 5.81 66 -1.0 45 -11.4 0 0 1001.9 NA 0.0000 9999 0 0 0 0
2019/10/24 02:20:00 BASE 2.53 166 5.81 66 -1.0 45 -11.4 0 0 1001.8 NA 0.0000 9999 0 0 0 0
2019/10/24 02:21:00 BASE 3.35 167 5.81 66 -1.1 45 -11.5 0 0 1001.8 NA 0.0000 9999 0 0 0 0
2019/10/24 02:22:00 BASE 4.90 161 6.64 162 -1.3 46 -11.5 0 0 1001.8 NA 0.0000 9999 0 0 0 0
2019/10/24 02:23:00 BASE 5.84 158 6.64 162 -1.6 48 -11.2 0 0 1001.8 NA 0.0000 9999 0 0 0 0
2019/10/24 02:24:00 BASE 5.74 155 6.64 162 -1.9 51 -10.7 0 0 1001.8 NA 0.0000 9999 0 0 0 0
2019/10/24 02:25:00 BASE 5.22 149 6.64 162 -2.2 55 -10.2 0 0 1001.8 NA 0.0000 9999 0 0 0 0
2019/10/24 02:26:00 BASE 4.01 130 6.64 162 -2.5 58 -9.7 0 0 1002.0 NA 0.0000 9999 0 0 0 0
2019/10/24 02:27:00 BASE 3.55 114 6.64 162 -2.6 60 -9.3 0 0 1002.0 NA 0.0000 9999 0 0 0 0
2019/10/24 02:28:00 BASE 3.69 100 6.64 162 -2.6 60 -9.4 0 0 1002.0 NA 0.0000 9999 0 0 0 0
2019/10/24 02:29:00 BASE 2.75 86 6.64 162 -2.4 58 -9.6 0 0 1002.0 NA 0.0000 9999 0 0 0 0
2019/10/24 02:30:00 BASE 2.87 80 6.64 162 -2.1 55 -10.0 0 0 1002.0 NA 0.0000 9999 0 0 0 0
2019/10/24 02:31:00 BASE 3.30 87 6.64 162 -1.8 52 -10.5 0 0 1002.0 NA 0.0000 9999 0 0 0 0
2019/10/24 02:32:00 BASE 2.46 100 6.28 154 -1.5 49 -10.8 0 0 1001.9 NA 0.0000 9999 0 0 0 0
2019/10/24 02:33:00 BASE 2.42 127 5.81 155 -1.2 47 -11.1 0 0 1001.9 NA 0.0000 9999 0 0 0 0
2019/10/24 02:34:00 BASE 2.46 164 5.14 144 -1.2 46 -11.2 0 0 1001.9 NA 0.0000 9999 0 0 0 0
2019/10/24 02:35:00 BASE 1.74 183 4.99 83 -1.3 47 -11.3 0 0 1001.9 NA 0.0000 9999 0 0 0 0
2019/10/24 02:36:00 BASE 0.89 180 4.99 83 -1.5 48 -11.2 0 0 1002.0 NA 0.0000 9999 0 0 0 0
2019/10/24 02:37:00 BASE 0.23 200 4.99 83 -1.7 49 -11.0 0 0 1001.8 NA 0.0000 9999 0 0 0 0
2019/10/24 02:38:00 BASE 0.04 266 4.99 83 -1.9 51 -10.8 0 0 1001.8 NA 0.0000 9999 0 0 0 0
2019/10/24 02:39:00 BASE 0.00 273 4.99 83 -2.0 51 -10.7 0 0 1001.8 NA 0.0000 9999 0 0 0 0
2019/10/24 02:40:00 BASE 0.17 261 3.91 86 -1.9 51 -10.6 0 0 1001.7 NA 0.0000 9999 0 0 0 0
2019/10/24 02:41:00 BASE 1.42 216 3.91 182 -1.8 51 -10.7 0 0 1001.7 NA 0.0000 9999 0 0 0 0
2019/10/24 02:42:00 BASE 3.19 191 4.32 181 -1.8 50 -10.7 0 0 1001.7 NA 0.0000 9999 0 0 0 0
2019/10/24 02:43:00 BASE 3.89 184 4.37 183 -1.9 51 -10.7 0 0 1001.7 NA 0.0000 9999 0 0 0 0
2019/10/24 02:44:00 BASE 4.20 181 5.09 179 -2.0 52 -10.6 0 0 1001.7 NA 0.0000 9999 0 0 0 0
2019/10/24 02:45:00 BASE 4.29 176 5.09 179 -2.3 54 -10.4 0 0 1001.7 NA 0.0000 9999 0 0 0 0
2019/10/24 02:46:00 BASE 3.76 165 5.09 179 -2.6 57 -10.0 0 0 1001.7 NA 0.0000 9999 0 0 0 0
2019/10/24 02:47:00 BASE 2.88 141 5.09 179 -2.9 61 -9.5 0 0 1001.8 NA 0.0000 9999 0 0 0 0
2019/10/24 02:48:00 BASE 2.63 115 5.09 179 -3.1 63 -9.1 0 0 1001.8 NA 0.0000 9999 0 0 0 0
2019/10/24 02:49:00 BASE 3.52 123 5.09 179 -3.1 65 -8.7 0 0 1001.7 NA 0.0000 9999 0 0 0 0
2019/10/24 02:50:00 BASE 4.32 143 5.09 179 -3.0 65 -8.6 0 0 1001.7 NA 0.0000 9999 0 0 0 0
2019/10/24 02:51:00 BASE 4.50 152 5.09 179 -2.9 64 -8.7 0 0 1001.7 NA 0.0000 9999 0 0 0 0
2019/10/24 02:52:00 BASE 4.47 150 5.09 179 -2.7 62 -8.9 0 0 1001.6 NA 0.0000 9999 0 0 0 0
2019/10/24 02:53:00 BASE 5.09 128 7.41 99 -2.6 60 -9.3 0 0 1001.6 NA 0.0000 9999 0 0 0 0
2019/10/24 02:54:00 BASE 5.94 104 7.41 99 -2.5 57 -9.8 0 0 1001.6 NA 0.0000 9999 0 0 0 0
2019/10/24 02:55:00 BASE 6.34 102 7.41 99 -2.5 55 -10.3 0 0 1001.6 NA 0.0000 9999 0 0 0 0
2019/10/24 02:56:00 BASE 5.98 104 7.41 99 -2.5 53 -10.7 0 0 1001.6 NA 0.0000 9999 0 0 0 0
2019/10/24 02:57:00 BASE 5.81 100 7.41 99 -2.5 52 -11.0 0 0 1001.6 NA 0.0000 9999 0 0 0 0
2019/10/24 02:58:00 BASE 5.68 99 7.41 99 -2.4 51 -11.3 0 0 1001.6 NA 0.0000 9999 0 0 0 0
2019/10/24 02:59:00 BASE 4.71 108 7.41 99 -2.5 51 -11.4 0 0 1001.6 NA 0.0000 9999 0 0 0 0
2019/10/24 03:00:00 BASE 3.71 116 7.41 99 -2.5 51 -11.3 0 0 1001.6 NA 0.0000 9999 0 0 0 0
2019/10/24 03:01:00 BASE 3.36 117 7.41 99 -2.4 51 -11.3 0 0 1001.6 NA 0.0000 9999 0 0 0 0
2019/10/24 03:02:00 BASE 3.42 115 7.41 99 -2.4 51 -11.1 0 0 1001.6 NA 0.0000 9999 0 0 0 0
2019/10/24 03:03:00 BASE 3.78 121 7.36 105 -2.3 51 -11.0 0 0 1001.6 NA 0.0000 9999 0 0 0 0
2019/10/24 03:04:00 BASE 4.40 129 7.36 105 -2.3 52 -10.9 0 0 1001.6 NA 0.0000 9999 0 0 0 0
2019/10/24 03:05:00 BASE 4.48 131 6.84 113 -2.3 52 -10.8 0 0 1001.6 NA 0.0000 9999 0 0 0 0
2019/10/24 03:06:00 BASE 4.06 129 6.79 97 -2.3 53 -10.7 0 0 1001.6 NA 0.0000 9999 0 0 0 0
2019/10/24 03:07:00 BASE 3.87 126 6.02 91 -2.4 53 -10.6 0 0 1001.6 NA 0.0000 9999 0 0 0 0
2019/10/24 03:08:00 BASE 4.79 129 6.48 141 -2.5 54 -10.5 0 0 1001.6 NA 0.0000 9999 0 0 0 0
2019/10/24 03:09:00 BASE 5.64 135 6.48 141 -2.6 55 -10.4 0 0 1001.6 NA 0.0000 9999 0 0 0 0
2019/10/24 03:10:00 BASE 5.98 139 7.00 145 -2.7 56 -10.3 0 0 1001.6 NA 0.0000 9999 0 0 0 0
2019/10/24 03:11:00 BASE 5.93 143 7.00 145 -2.9 57 -10.3 0 0 1001.6 NA 0.0000 9999 0 0 0 0
2019/10/24 03:12:00 BASE 5.73 142 7.00 145 -3.0 58 -10.2 0 0 1001.5 NA 0.0000 9999 0 0 0 0
2019/10/24 03:13:00 BASE 6.16 138 7.00 145 -2.9 58 -10.1 0 0 1001.5 NA 0.0000 9999 0 0 0 0
2019/10/24 03:14:00 BASE 6.45 136 7.00 145 -2.9 58 -10.0 0 0 1001.5 NA 0.0000 9999 0 0 0 0
2019/10/24 03:15:00 BASE 6.77 137 7.51 138 -2.9 58 -10.0 0 0 1001.5 NA 0.0000 9999 0 0 0 0
2019/10/24 03:16:00 BASE 7.24 138 8.13 135 -2.9 58 -9.9 0 0 1001.5 NA 0.0000 9999 0 0 0 0
2019/10/24 03:17:00 BASE 6.84 140 8.13 135 -2.8 58 -9.9 0 0 1001.5 NA 0.0000 9999 0 0 0 0
2019/10/24 03:18:00 BASE 5.99 140 8.13 135 -2.9 59 -9.8 0 0 1001.5 NA 0.0000 9999 0 0 0 0
2019/10/24 03:19:00 BASE 5.38 140 8.13 135 -3.0 59 -9.9 0 0 1001.4 NA 0.0000 9999 0 0 0 0
2019/10/24 03:20:00 BASE 5.10 139 8.13 135 -3.1 60 -9.8 0 0 1001.4 NA 0.0000 9999 0 0 0 0
2019/10/24 03:21:00 BASE 5.08 137 8.13 135 -3.1 60 -9.7 0 0 1001.4 NA 0.0000 9999 0 0 0 0
2019/10/24 03:22:00 BASE 5.19 140 8.13 135 -3.1 61 -9.6 0 0 1001.4 NA 0.0000 9999 0 0 0 0
2019/10/24 03:23:00 BASE 4.90 147 8.13 135 -3.1 61 -9.5 0 0 1001.4 NA 0.0000 9999 0 0 0 0
2019/10/24 03:24:00 BASE 3.86 154 8.13 135 -3.1 61 -9.5 0 0 1001.4 NA 0.0000 9999 0 0 0 0
2019/10/24 03:25:00 BASE 2.82 179 8.13 135 -3.2 62 -9.5 0 0 1001.4 NA 0.0000 9999 0 0 0 0
2019/10/24 03:26:00 BASE 2.60 199 7.25 138 -3.3 62 -9.5 0 0 1001.4 NA 0.0000 9999 0 0 0 0
2019/10/24 03:27:00 BASE 2.75 185 6.28 137 -3.3 63 -9.4 0 0 1001.4 NA 0.0000 9999 0 0 0 0
2019/10/24 03:28:00 BASE 2.22 175 6.17 151 -3.3 63 -9.3 0 0 1001.4 NA 0.0000 9999 0 0 0 0
2019/10/24 03:29:00 BASE 1.03 208 6.17 151 -3.3 64 -9.2 0 0 1001.4 NA 0.0000 9999 0 0 0 0
2019/10/24 03:30:00 BASE 0.14 267 6.17 151 -3.1 64 -9.0 0 0 1001.4 NA 0.0000 9999 0 0 0 0
2019/10/24 03:31:00 BASE 0.15 268 6.17 151 -2.9 64 -8.8 0 0 1001.4 NA 0.0000 9999 0 0 0 0
2019/10/24 03:32:00 BASE 0.15 266 4.84 146 -2.8 64 -8.7 0 0 1001.4 NA 0.0000 9999 0 0 0 0
2019/10/24 03:33:00 BASE 0.00 258 4.01 156 -2.8 64 -8.7 0 0 1001.4 NA 0.0000 9999 0 0 0 0
2019/10/24 03:34:00 BASE 0.18 127 3.55 210 -2.8 64 -8.7 0 0 1001.4 NA 0.0000 9999 0 0 0 0
2019/10/24 03:35:00 BASE 0.18 114 3.55 210 -2.8 64 -8.7 0 0 1001.4 NA 0.0000 9999 0 0 0 0
2019/10/24 03:36:00 BASE 0.00 130 3.24 176 -2.8 64 -8.7 0 0 1001.4 NA 0.0000 9999 0 0 0 0
2019/10/24 03:37:00 BASE 0.00 95 3.24 176 -2.8 64 -8.7 0 0 1001.3 NA 0.0000 9999 0 0 0 0
2019/10/24 03:38:00 BASE 0.32 88 1.65 93 -2.7 63 -8.7 0 0 1001.3 NA 0.0000 9999 0 0 0 0
2019/10/24 03:39:00 BASE 0.32 111 1.65 93 -2.7 63 -8.8 0 0 1001.3 NA 0.0000 9999 0 0 0 0
2019/10/24 03:40:00 BASE 0.26 101 2.06 99 -2.7 62 -8.9 0 0 1001.3 NA 0.0000 9999 0 0 0 0
2019/10/24 03:41:00 BASE 0.26 101 2.06 99 -2.7 62 -9.0 0 0 1001.3 NA 0.0000 9999 0 0 0 0
2019/10/24 03:42:00 BASE 0.35 128 2.31 115 -2.8 61 -9.2 0 0 1001.2 NA 0.0000 9999 0 0 0 0
2019/10/24 03:43:00 BASE 0.65 170 2.31 115 -2.9 61 -9.4 0 0 1001.1 NA 0.0000 9999 0 0 0 0
2019/10/24 03:44:00 BASE 1.01 172 3.04 173 -2.9 60 -9.5 0 0 1001.1 NA 0.0000 9999 0 0 0 0
2019/10/24 03:45:00 BASE 2.08 153 3.45 149 -2.9 60 -9.6 0 0 1001.1 NA 0.0000 9999 0 0 0 0
2019/10/24 03:46:00 BASE 2.30 160 3.45 149 -2.8 59 -9.7 0 0 1001.1 NA 0.0000 9999 0 0 0 0
2019/10/24 03:47:00 BASE 2.21 167 3.45 149 -2.8 58 -9.9 0 0 1001.1 NA 0.0000 9999 0 0 0 0
2019/10/24 03:48:00 BASE 2.46 156 3.45 149 -2.8 58 -10.0 0 0 1001.1 NA 0.0000 9999 0 0 0 0
2019/10/24 03:49:00 BASE 2.51 139 4.63 134 -2.8 57 -10.1 0 0 1001.1 NA 0.0000 9999 0 0 0 0
2019/10/24 03:50:00 BASE 3.68 125 5.71 128 -2.9 58 -10.1 0 0 1001.1 NA 0.0000 9999 0 0 0 0
2019/10/24 03:51:00 BASE 4.91 122 5.71 128 -2.9 58 -10.0 0 0 1001.0 NA 0.0000 9999 0 0 0 0
2019/10/24 03:52:00 BASE 5.03 121 5.71 128 -2.8 59 -9.8 0 0 1001.0 NA 0.0000 9999 0 0 0 0
2019/10/24 03:53:00 BASE 4.49 123 5.71 128 -2.7 59 -9.7 0 0 1001.0 NA 0.0000 9999 0 0 0 0
2019/10/24 03:54:00 BASE 4.08 125 5.71 128 -2.5 58 -9.6 0 0 1001.0 NA 0.0000 9999 0 0 0 0
2019/10/24 03:55:00 BASE 4.25 125 5.71 128 -2.4 58 -9.5 0 0 1000.9 NA 0.0000 9999 0 0 0 0
2019/10/24 03:56:00 BASE 4.96 127 6.02 130 -2.3 58 -9.5 0 0 1000.9 NA 0.0000 9999 0 0 0 0
2019/10/24 03:57:00 BASE 5.22 131 6.02 130 -2.3 58 -9.5 0 0 1000.9 NA 0.0000 9999 0 0 0 0
2019/10/24 03:58:00 BASE 4.66 132 6.02 130 -2.3 58 -9.5 0 0 1000.9 NA 0.0000 9999 0 0 0 0
2019/10/24 03:59:00 BASE 4.37 132 6.02 130 -2.3 58 -9.5 0 0 1000.9 NA 0.0000 9999 0 0 0 0
2019/10/24 04:00:00 BASE 4.23 135 6.02 130 -2.3 58 -9.6 0 0 1000.9 NA 0.0000 9999 0 0 0 0
2019/10/24 04:02:00 BASE 4.72 135 6.02 130 -2.4 58 -9.6 0 0 1000.9 NA 0.0000 9999 0 0 0 0
2019/10/24 04:03:00 BASE 4.92 134 6.02 130 -2.5 58 -9.7 0 0 1000.9 NA 0.0000 9999 0 0 0 0
2019/10/24 04:04:00 BASE 5.05 134 6.02 130 -2.5 58 -9.7 0 0 1000.9 NA 0.0000 9999 0 0 0 0
2019/10/24 04:05:00 BASE 5.10 137 6.02 130 -2.6 58 -9.7 0 0 1000.8 NA 0.0000 9999 0 0 0 0
2019/10/24 04:06:00 BASE 4.75 138 5.40 134 -2.6 58 -9.7 0 0 1000.8 NA 0.0000 9999 0 0 0 0
2019/10/24 04:07:00 BASE 4.23 137 5.40 134 -2.6 59 -9.6 0 0 1000.8 NA 0.0000 9999 0 0 0 0
2019/10/24 04:08:00 BASE 3.90 136 5.40 134 -2.7 60 -9.5 0 0 1000.8 NA 0.0000 9999 0 0 0 0
2019/10/24 04:09:00 BASE 3.92 137 5.40 134 -2.8 60 -9.4 0 0 1000.7 NA 0.0000 9999 0 0 0 0
2019/10/24 04:10:00 BASE 3.20 151 5.40 134 -3.0 61 -9.4 0 0 1000.7 NA 0.0000 9999 0 0 0 0
2019/10/24 04:11:00 BASE 2.05 204 5.40 134 -3.2 62 -9.4 0 0 1000.7 NA 0.0000 9999 0 0 0 0
2019/10/24 04:12:00 BASE 1.98 223 5.40 134 -3.4 63 -9.5 0 0 1000.7 NA 0.0000 9999 0 0 0 0
2019/10/24 04:13:00 BASE 2.20 184 5.40 134 -3.6 63 -9.5 0 0 1000.7 NA 0.0000 9999 0 0 0 0
2019/10/24 04:14:00 BASE 2.98 164 5.20 138 -3.8 64 -9.6 0 0 1000.7 NA 0.0000 9999 0 0 0 0
2019/10/24 04:15:00 BASE 3.87 156 5.14 138 -3.8 64 -9.6 0 0 1000.7 NA 0.0000 9999 0 0 0 0
2019/10/24 04:16:00 BASE 4.19 152 5.04 157 -3.8 65 -9.5 0 0 1000.6 NA 0.0000 9999 0 0 0 0
2019/10/24 04:17:00 BASE 4.39 148 5.04 157 -3.8 65 -9.4 0 0 1000.6 NA 0.0000 9999 0 0 0 0
2019/10/24 04:18:00 BASE 4.67 145 5.66 142 -3.8 66 -9.2 0 0 1000.5 NA 0.0000 9999 0 0 0 0
2019/10/24 04:19:00 BASE 5.25 144 5.66 142 -3.7 66 -9.0 0 0 1000.5 NA 0.0000 9999 0 0 0 0
2019/10/24 04:20:00 BASE 5.47 142 5.97 150 -3.6 66 -9.0 0 0 1000.5 NA 0.0000 9999 0 0 0 0
2019/10/24 04:21:00 BASE 5.55 141 5.97 150 -3.5 66 -9.0 0 0 1000.5 NA 0.0000 9999 0 0 0 0
2019/10/24 04:22:00 BASE 5.77 140 6.69 136 -3.6 66 -9.0 0 0 1000.5 NA 0.0000 9999 0 0 0 0
2019/10/24 04:23:00 BASE 6.39 136 7.67 135 -3.6 66 -9.0 0 0 1000.5 NA 0.0000 9999 0 0 0 0
2019/10/24 04:24:00 BASE 7.09 131 7.82 129 -3.6 67 -8.9 0 0 1000.5 NA 0.0000 9999 0 0 0 0
2019/10/24 04:25:00 BASE 7.54 129 8.08 132 -3.5 67 -8.7 0 0 1000.5 NA 0.0000 9999 0 0 0 0
2019/10/24 04:26:00 BASE 8.11 132 9.00 134 -3.4 68 -8.5 0 0 1000.4 NA 0.0000 9999 0 0 0 0
2019/10/24 04:27:00 BASE 8.61 134 9.00 134 -3.1 68 -8.3 0 0 1000.4 NA 0.0000 9999 0 0 0 0
2019/10/24 04:28:00 BASE 8.54 136 9.05 136 -2.9 67 -8.1 0 0 1000.4 NA 0.0000 9999 0 0 0 0
2019/10/24 04:29:00 BASE 8.18 140 9.05 136 -2.8 67 -8.1 0 0 1000.4 NA 0.0000 9999 0 0 0 0
2019/10/24 04:30:00 BASE 8.26 141 9.77 142 -2.7 66 -8.2 0 0 1000.3 NA 0.0000 9999 0 0 0 0
2019/10/24 04:31:00 BASE 8.65 144 10.03 143 -2.7 66 -8.1 0 0 1000.3 NA 0.0000 9999 0 0 0 0
2019/10/24 04:32:00 BASE 8.41 147 10.03 143 -2.7 66 -8.1 0 0 1000.3 NA 0.0000 9999 0 0 0 0
2019/10/24 04:33:00 BASE 8.34 148 10.03 143 -2.7 67 -8.1 0 0 1000.3 NA 0.0000 9999 0 0 0 0
2019/10/24 04:34:00 BASE 8.03 146 10.03 143 -2.7 67 -8.0 0 0 1000.3 NA 0.0000 9999 0 0 0 0
2019/10/24 04:35:00 BASE 7.28 143 10.03 143 -2.8 68 -7.8 0 0 1000.3 NA 0.0000 9999 0 0 0 0
2019/10/24 04:36:00 BASE 7.18 143 10.03 143 -2.8 68 -7.8 0 0 1000.3 NA 0.0000 9999 0 0 0 0
2019/10/24 04:37:00 BASE 7.18 142 10.03 143 -2.7 68 -7.8 0 0 1000.3 NA 0.0000 9999 0 0 0 0
2019/10/24 04:38:00 BASE 7.16 142 10.03 143 -2.7 67 -7.9 0 0 1000.2 NA 0.0000 9999 0 0 0 0
2019/10/24 04:39:00 BASE 6.93 143 10.03 143 -2.6 66 -8.0 0 0 1000.3 NA 0.0000 9999 0 0 0 0
2019/10/24 04:40:00 BASE 6.70 150 10.03 143 -2.5 65 -8.2 0 0 1000.3 NA 0.0000 9999 0 0 0 0
2019/10/24 04:41:00 BASE 5.68 155 9.62 151 -2.6 65 -8.3 0 0 1000.3 NA 0.0000 9999 0 0 0 0
2019/10/24 04:42:00 BASE 4.49 154 9.62 151 -2.7 65 -8.4 0 0 1000.3 NA 0.0000 9999 0 0 0 0
2019/10/24 04:43:00 BASE 4.28 153 8.33 162 -2.9 66 -8.4 0 0 1000.3 NA 0.0000 9999 0 0 0 0
2019/10/24 04:44:00 BASE 4.37 147 8.33 162 -3.0 67 -8.3 0 0 1000.2 NA 0.0000 9999 0 0 0 0
2019/10/24 04:45:00 BASE 4.94 139 8.33 162 -3.1 68 -8.3 0 0 1000.2 NA 0.0000 9999 0 0 0 0
2019/10/24 04:46:00 BASE 5.64 136 8.33 162 -3.1 68 -8.3 0 0 1000.2 NA 0.0000 9999 0 0 0 0
2019/10/24 04:47:00 BASE 6.09 134 8.33 162 -3.1 66 -8.5 0 0 1000.2 NA 0.0000 9999 0 0 0 0
2019/10/24 04:48:00 BASE 6.52 133 8.33 162 -3.0 64 -8.8 0 0 1000.1 NA 0.0000 9999 0 0 0 0
2019/10/24 04:49:00 BASE 6.94 132 8.33 162 -2.9 61 -9.3 0 0 1000.1 NA 0.0000 9999 0 0 0 0
2019/10/24 04:50:00 BASE 7.03 127 7.72 128 -2.8 59 -9.7 0 0 1000.1 NA 0.0000 9999 0 0 0 0
2019/10/24 04:51:00 BASE 6.74 122 7.72 128 -2.6 57 -10.0 0 0 1000.0 NA 0.0000 9999 0 0 0 0
2019/10/24 04:52:00 BASE 6.70 116 8.18 123 -2.5 56 -10.2 0 0 1000.0 NA 0.0000 9999 0 0 0 0
2019/10/24 04:53:00 BASE 6.14 106 8.18 123 -2.5 55 -10.3 0 0 1000.0 NA 0.0000 9999 0 0 0 0
2019/10/24 04:54:00 BASE 4.90 101 8.18 123 -2.6 55 -10.3 0 0 999.9 NA 0.0000 9999 0 0 0 0
2019/10/24 04:55:00 BASE 4.78 106 8.18 123 -2.6 55 -10.3 0 0 999.9 NA 0.0000 9999 0 0 0 0
2019/10/24 04:56:00 BASE 5.09 111 8.18 123 -2.7 55 -10.4 0 0 999.9 NA 0.0000 9999 0 0 0 0
2019/10/24 04:57:00 BASE 4.94 108 8.18 123 -2.8 56 -10.5 0 0 999.9 NA 0.0000 9999 0 0 0 0
2019/10/24 04:58:01 BASE 4.56 101 8.18 123 -2.9 56 -10.6 0 0 999.8 NA 0.0000 9999 0 0 0 0
2019/10/24 04:59:00 BASE 3.94 101 8.18 123 -2.9 55 -10.6 0 0 999.8 NA 0.0000 9999 0 0 0 0
2019/10/24 05:00:00 BASE 3.55 99 8.18 123 -2.8 55 -10.7 0 0 999.8 NA 0.0000 9999 0 0 0 0
2019/10/24 05:01:00 BASE 3.22 90 8.18 123 -2.7 54 -10.7 0 0 999.8 NA 0.0000 9999 0 0 0 0
2019/10/24 05:02:00 BASE 2.90 82 6.74 110 -2.5 54 -10.7 0 0 999.8 NA 0.0000 9999 0 0 0 0
2019/10/24 05:03:00 BASE 2.97 71 5.97 123 -2.4 53 -10.7 0 0 999.8 NA 0.0000 9999 0 0 0 0
2019/10/24 05:04:00 BASE 3.11 58 5.97 123 -2.4 53 -10.7 0 0 999.8 NA 0.0000 9999 0 0 0 0
2019/10/24 05:05:00 BASE 3.01 55 5.97 123 -2.4 53 -10.7 0 0 999.8 NA 0.0000 9999 0 0 0 0
2019/10/24 05:06:00 BASE 2.95 61 5.25 98 -2.5 53 -10.7 0 0 999.8 NA 0.0000 9999 0 0 0 0
2019/10/24 05:07:00 BASE 2.77 63 5.25 98 -2.6 54 -10.7 0 0 999.8 NA 0.0000 9999 0 0 0 0
2019/10/24 05:08:00 BASE 2.24 53 4.12 95 -2.7 54 -10.6 0 0 999.7 NA 0.0000 9999 0 0 0 0
2019/10/24 05:09:00 BASE 1.82 42 4.12 95 -2.7 54 -10.6 0 0 999.7 NA 0.0000 9999 0 0 0 0
2019/10/24 05:10:00 BASE 1.81 35 3.55 54 -2.6 54 -10.6 0 0 999.7 NA 0.0000 9999 0 0 0 0
2019/10/24 05:11:00 BASE 2.04 38 3.55 54 -2.6 54 -10.6 0 0 999.7 NA 0.0000 9999 0 0 0 0
2019/10/24 05:12:00 BASE 2.57 48 3.55 56 -2.6 54 -10.6 0 0 999.7 NA 0.0000 9999 0 0 0 0
2019/10/24 05:13:00 BASE 3.06 51 3.55 56 -2.6 54 -10.5 0 0 999.7 NA 0.0000 9999 0 0 0 0
2019/10/24 05:14:00 BASE 3.22 37 3.91 26 -2.5 54 -10.6 0 0 999.7 NA 0.0000 9999 0 0 0 0
2019/10/24 05:15:00 BASE 3.18 23 3.91 26 -2.5 54 -10.5 0 0 999.7 NA 0.0000 9999 0 0 0 0
2019/10/24 05:16:00 BASE 3.01 19 3.91 26 -2.5 54 -10.5 0 0 999.7 NA 0.0000 9999 0 0 0 0
2019/10/24 05:17:00 BASE 2.97 18 3.91 26 -2.6 55 -10.4 0 0 999.7 NA 0.0000 9999 0 0 0 0
2019/10/24 05:18:00 BASE 2.91 22 3.91 26 -2.7 56 -10.3 0 0 999.7 NA 0.0000 9999 0 0 0 0
2019/10/24 05:19:00 BASE 2.95 12 3.91 26 -2.9 57 -10.2 0 0 999.7 NA 0.0000 9999 0 0 0 0
2019/10/24 05:20:00 BASE 2.56 357 3.91 26 -2.9 58 -10.0 0 0 999.7 NA 0.0000 9999 0 0 0 0
2019/10/24 05:21:00 BASE 1.59 3 3.91 26 -3.0 59 -9.9 0 0 999.7 NA 0.0000 9999 0 0 0 0
2019/10/24 05:22:00 BASE 1.41 9 3.91 26 -3.0 59 -9.8 0 0 999.7 NA 0.0000 9999 0 0 0 0
2019/10/24 05:23:00 BASE 1.41 3 3.91 26 -2.9 60 -9.7 0 0 999.6 NA 0.0000 9999 0 0 0 0
2019/10/24 05:24:00 BASE 0.93 355 3.55 6 -2.9 59 -9.8 0 0 999.6 NA 0.0000 9999 0 0 0 0
2019/10/24 05:25:00 BASE 1.19 1 3.55 6 -2.8 58 -9.9 0 0 999.6 NA 0.0000 9999 0 0 0 0
2019/10/24 05:26:00 BASE 1.92 19 3.55 6 -2.9 58 -10.1 0 0 999.6 NA 0.0000 9999 0 0 0 0
2019/10/24 05:27:00 BASE 2.26 30 3.55 6 -2.8 56 -10.4 0 0 999.6 NA 0.0000 9999 0 0 0 0
2019/10/24 05:28:00 BASE 1.56 22 3.55 6 -2.8 55 -10.7 0 0 999.5 NA 0.0000 9999 0 0 0 0
2019/10/24 05:29:00 BASE 0.40 8 3.24 360 -2.8 54 -10.9 0 0 999.5 NA 0.0000 9999 0 0 0 0
2019/10/24 05:30:00 BASE 0.05 355 2.93 25 -2.7 53 -11.0 0 0 999.5 NA 0.0000 9999 0 0 0 0
2019/10/24 05:31:00 BASE 0.05 339 2.93 25 -2.6 52 -11.1 0 0 999.5 NA 0.0000 9999 0 0 0 0
2019/10/24 05:32:00 BASE 0.00 343 2.93 25 -2.6 52 -11.1 0 0 999.5 NA 0.0000 9999 0 0 0 0
2019/10/24 05:33:00 BASE 0.00 360 2.93 25 -2.5 52 -11.1 0 0 999.5 NA 0.0000 9999 0 0 0 0
2019/10/24 05:34:00 BASE 0.00 1 2.93 25 -2.5 51 -11.1 0 0 999.4 NA 0.0000 9999 0 0 0 0
2019/10/24 05:35:00 BASE 0.00 5 2.93 25 -2.5 51 -11.2 0 0 999.4 NA 0.0000 9999 0 0 0 0
2019/10/24 05:36:00 BASE 0.15 53 2.73 27 -2.4 51 -11.2 0 0 999.4 NA 0.0000 9999 0 0 0 0
2019/10/24 05:37:00 BASE 0.62 103 1.95 106 -2.4 51 -11.3 0 0 999.4 NA 0.0000 9999 0 0 0 0
2019/10/24 05:38:00 BASE 1.00 97 2.73 104 -2.4 51 -11.3 0 0 999.4 NA 0.0000 9999 0 0 0 0
2019/10/24 05:39:00 BASE 2.04 83 4.73 79 -2.5 51 -11.2 0 0 999.4 NA 0.0000 9999 0 0 0 0
2019/10/24 05:40:00 BASE 4.35 95 6.84 116 -2.5 52 -11.1 0 0 999.4 NA 0.0000 9999 0 0 0 0
2019/10/24 05:41:00 BASE 5.86 110 7.05 117 -2.6 53 -10.9 0 0 999.2 NA 0.0000 9999 0 0 0 0
2019/10/24 05:42:00 BASE 5.87 119 7.05 117 -2.5 55 -10.4 0 0 999.2 NA 0.0000 9999 0 0 0 0
2019/10/24 05:43:00 BASE 4.52 126 7.05 117 -2.5 56 -10.2 0 0 999.2 NA 0.0000 9999 0 0 0 0
2019/10/24 05:44:00 BASE 2.10 142 7.05 117 -2.6 57 -9.9 0 0 999.2 NA 0.0000 9999 0 0 0 0
2019/10/24 05:45:00 BASE 2.40 149 7.05 117 -2.7 59 -9.7 0 0 999.2 NA 0.0000 9999 0 0 0 0
2019/10/24 05:46:00 BASE 3.53 145 7.05 117 -2.8 60 -9.6 0 0 999.2 NA 0.0000 9999 0 0 0 0
2019/10/24 05:47:00 BASE 2.96 148 7.05 117 -3.0 61 -9.4 0 0 999.1 NA 0.0000 9999 0 0 0 0
2019/10/24 05:48:00 BASE 2.88 167 7.05 117 -3.0 62 -9.3 0 0 999.1 NA 0.0000 9999 0 0 0 0
2019/10/24 05:49:00 BASE 2.33 189 7.05 117 -2.9 62 -9.2 0 0 999.1 NA 0.0000 9999 0 0 0 0
2019/10/24 05:50:00 BASE 0.86 212 7.05 117 -2.8 62 -9.1 0 0 999.1 NA 0.0000 9999 0 0 0 0
2019/10/24 05:51:00 BASE 0.04 236 6.58 117 -2.7 61 -9.2 0 0 999.1 NA 0.0000 9999 0 0 0 0
2019/10/24 05:52:00 BASE 0.20 254 5.56 129 -2.6 60 -9.3 0 0 999.0 NA 0.0000 9999 0 0 0 0
2019/10/24 05:53:00 BASE 0.16 282 4.48 136 -2.5 59 -9.4 0 0 999.0 NA 0.0000 9999 0 0 0 0
2019/10/24 05:54:00 BASE 0.05 230 4.48 136 -2.5 59 -9.5 0 0 999.0 NA 0.0000 9999 0 0 0 0
2019/10/24 05:55:00 BASE 0.05 180 4.48 136 -2.5 58 -9.6 0 0 998.9 NA 0.0000 9999 0 0 0 0
2019/10/24 05:56:00 BASE 0.00 274 3.65 144 -2.5 58 -9.7 0 0 998.9 NA 0.0000 9999 0 0 0 0
2019/10/24 05:57:00 BASE 0.00 314 3.50 181 -2.5 57 -9.8 0 0 998.9 NA 0.0000 9999 0 0 0 0
2019/10/24 05:58:00 BASE 0.00 336 2.98 211 -2.5 57 -9.8 0 0 998.8 NA 0.0000 9999 0 0 0 0
2019/10/24 05:59:00 BASE 0.00 8 1.54 241 -2.5 57 -9.8 0 0 998.8 NA 0.0000 9999 0 0 0 0
2019/10/24 06:00:00 BASE 0.09 21 1.54 241 -2.4 57 -9.8 0 0 998.7 NA 0.0000 9999 0 0 0 0
2019/10/24 06:01:00 BASE 1.35 47 3.34 77 -2.4 57 -9.9 0 0 998.6 NA 0.0000 9999 0 0 0 0
2019/10/24 06:02:00 BASE 3.15 70 4.73 70 -2.4 57 -9.8 0 0 998.6 NA 0.0000 9999 0 0 0 0
2019/10/24 06:03:00 BASE 4.28 57 5.61 45 -2.5 57 -9.8 0 0 998.5 NA 0.0000 9999 0 0 0 0
2019/10/24 06:04:00 BASE 5.05 50 5.71 77 -2.5 58 -9.7 0 0 998.5 NA 0.0000 9999 0 0 0 0
2019/10/24 06:05:00 BASE 4.82 57 5.71 77 -2.6 58 -9.6 0 0 998.5 NA 0.0000 9999 0 0 0 0
2019/10/24 06:06:00 BASE 4.41 58 5.71 77 -2.6 59 -9.5 0 0 998.5 NA 0.0000 9999 0 0 0 0
2019/10/24 06:07:00 BASE 4.29 48 5.71 77 -2.6 59 -9.5 0 0 998.5 NA 0.0000 9999 0 0 0 0
2019/10/24 06:08:00 BASE 4.23 48 5.71 77 -2.5 59 -9.5 0 0 998.5 NA 0.0000 9999 0 0 0 0
2019/10/24 06:09:00 BASE 4.41 63 5.71 77 -2.5 59 -9.6 0 0 998.4 NA 0.0000 9999 0 0 0 0
2019/10/24 06:10:00 BASE 4.37 69 5.71 77 -2.6 58 -9.7 0 0 998.4 NA 0.0000 9999 0 0 0 0
2019/10/24 06:11:01 BASE 4.50 60 5.71 77 -2.5 57 -9.9 0 0 998.4 NA 0.0000 9999 0 0 0 0
2019/10/24 06:12:00 BASE 4.81 52 5.71 77 -2.5 56 -10.0 0 0 998.3 NA 0.0000 9999 0 0 0 0
2019/10/24 06:13:00 BASE 4.93 59 5.71 77 -2.5 56 -10.1 0 0 998.3 NA 0.0000 9999 0 0 0 0
2019/10/24 06:14:00 BASE 4.55 76 5.25 79 -2.5 55 -10.3 0 0 998.3 NA 0.0000 9999 0 0 0 0
2019/10/24 06:15:00 BASE 4.19 89 5.25 79 -2.4 54 -10.5 0 0 998.3 NA 0.0000 9999 0 0 0 0
2019/10/24 06:16:00 BASE 4.42 97 5.61 103 -2.4 53 -10.7 0 0 998.3 NA 0.0000 9999 0 0 0 0
2019/10/24 06:17:00 BASE 4.96 99 6.22 95 -2.4 52 -10.9 0 0 998.3 NA 0.0000 9999 0 0 0 0
2019/10/24 06:18:00 BASE 6.48 107 10.44 126 -2.4 52 -11.0 0 0 998.2 NA 0.0000 9999 0 0 0 0
2019/10/24 06:19:00 BASE 8.08 119 10.44 126 -2.2 51 -11.0 0 0 998.1 NA 0.0000 9999 0 0 0 0
2019/10/24 06:20:00 BASE 8.34 114 10.44 126 -2.0 50 -11.1 0 0 998.2 NA 0.0000 9999 0 0 0 0
2019/10/24 06:21:00 BASE 8.34 99 10.44 126 -1.7 49 -11.1 0 0 998.2 NA 0.0000 9999 0 0 0 0
2019/10/24 06:22:00 BASE 7.94 99 10.44 126 -1.3 47 -11.2 0 0 998.2 NA 0.0000 9999 0 0 0 0
2019/10/24 06:23:00 BASE 6.88 98 10.44 126 -1.1 46 -11.3 0 0 998.1 NA 0.0000 9999 0 0 0 0
2019/10/24 06:24:00 BASE 6.07 99 10.44 126 -1.0 46 -11.3 0 0 998.0 NA 0.0000 9999 0 0 0 0
2019/10/24 06:25:00 BASE 6.19 110 10.44 126 -1.1 46 -11.2 0 0 998.0 NA 0.0000 9999 0 0 0 0
2019/10/24 06:26:00 BASE 6.90 117 10.44 126 -1.1 47 -10.9 0 0 997.9 NA 0.0000 9999 0 0 0 0
2019/10/24 06:27:00 BASE 6.66 119 10.44 126 -1.2 49 -10.6 0 0 997.9 NA 0.0000 9999 0 0 0 0
2019/10/24 06:28:00 BASE 5.65 116 10.13 95 -1.2 50 -10.3 0 0 997.9 NA 0.0000 9999 0 0 0 0
2019/10/24 06:29:00 BASE 5.00 112 10.13 95 -1.2 51 -10.2 0 0 997.9 NA 0.0000 9999 0 0 0 0
2019/10/24 06:30:00 BASE 5.49 123 10.13 95 -1.3 52 -9.9 0 0 997.8 NA 0.0000 9999 0 0 0 0
2019/10/24 06:31:00 BASE 6.25 132 8.39 127 -1.3 53 -9.7 0 0 997.8 NA 0.0000 9999 0 0 0 0
2019/10/24 06:32:00 BASE 6.05 131 8.39 127 -1.4 54 -9.6 0 0 997.8 NA 0.0000 9999 0 0 0 0
2019/10/24 06:33:00 BASE 5.61 134 8.39 127 -1.5 55 -9.4 0 0 997.7 NA 0.0000 9999 0 0 0 0
2019/10/24 06:34:00 BASE 4.81 134 8.39 127 -1.5 56 -9.2 0 0 997.7 NA 0.0000 9999 0 0 0 0
2019/10/24 06:35:00 BASE 4.03 127 8.39 127 -1.5 56 -9.2 0 0 997.7 NA 0.0000 9999 0 0 0 0
2019/10/24 06:36:00 BASE 4.16 114 7.82 130 -1.5 56 -9.3 0 0 997.7 NA 0.0000 9999 0 0 0 0
2019/10/24 06:37:00 BASE 5.14 98 6.64 134 -1.5 54 -9.5 0 0 997.7 NA 0.0000 9999 0 0 0 0
2019/10/24 06:38:00 BASE 5.33 80 6.64 134 -1.4 53 -9.8 0 0 997.7 NA 0.0000 9999 0 0 0 0
2019/10/24 06:39:00 BASE 4.51 68 6.64 134 -1.3 51 -10.1 0 0 997.7 NA 0.0000 9999 0 0 0 0
2019/10/24 06:40:00 BASE 5.59 76 8.03 83 -1.3 50 -10.5 0 0 997.7 NA 0.0000 9999 0 0 0 0
2019/10/24 06:41:00 BASE 6.66 82 8.49 86 -1.3 49 -10.7 0 0 997.7 NA 0.0000 9999 0 0 0 0
2019/10/24 06:42:00 BASE 6.09 73 8.49 86 -1.3 49 -10.8 0 0 997.7 NA 0.0000 9999 0 0 0 0
2019/10/24 06:43:00 BASE 5.15 57 8.49 86 -1.3 49 -10.6 0 0 997.7 NA 0.0000 9999 0 0 0 0
2019/10/24 06:44:00 BASE 4.42 53 8.49 86 -1.4 50 -10.4 0 0 997.6 NA 0.0000 9999 0 0 0 0
2019/10/24 06:45:00 BASE 4.62 70 8.49 86 -1.4 51 -10.2 0 0 997.6 NA 0.0000 9999 0 0 0 0
2019/10/24 06:46:00 BASE 5.58 82 8.49 86 -1.4 52 -10.1 0 0 997.5 NA 0.0000 9999 0 0 0 0
2019/10/24 06:47:00 BASE 6.82 84 8.49 90 -1.3 51 -10.1 0 0 997.4 NA 0.0000 9999 0 0 0 0
2019/10/24 06:48:00 BASE 6.88 85 8.49 90 -1.2 51 -10.2 0 0 997.4 NA 0.0000 9999 0 0 0 0
2019/10/24 06:49:00 BASE 6.18 87 8.49 90 -1.1 50 -10.3 0 0 997.4 NA 0.0000 9999 0 0 0 0
2019/10/24 06:50:00 BASE 6.55 88 9.88 86 -1.0 49 -10.5 0 0 997.4 NA 0.0000 9999 0 0 0 0
2019/10/24 06:51:01 BASE 8.74 85 11.99 85 -0.8 47 -10.7 0 0 997.3 NA 0.0000 9999 0 0 0 0
2019/10/24 06:52:00 BASE 9.93 81 11.99 85 -0.6 46 -10.8 0 0 997.3 NA 0.0000 9999 0 0 0 0
2019/10/24 06:53:00 BASE 9.40 93 11.99 85 -0.5 45 -11.0 0 0 997.3 NA 0.0000 9999 0 0 0 0
2019/10/24 06:54:00 BASE 9.19 100 11.99 85 -0.4 44 -11.1 0 0 997.3 NA 0.0000 9999 0 0 0 0
2019/10/24 06:55:00 BASE 9.13 92 11.99 85 -0.3 44 -11.1 0 0 997.3 NA 0.0000 9999 0 0 0 0
2019/10/24 06:56:00 BASE 10.31 93 12.81 96 -0.3 44 -11.1 0 0 997.2 NA 0.0000 9999 0 0 0 0
2019/10/24 06:57:00 BASE 11.91 108 14.20 115 -0.5 45 -11.0 0 0 997.1 NA 0.0000 9999 0 0 0 0
2019/10/24 06:58:00 BASE 12.63 122 14.20 115 -0.5 46 -10.8 0 0 997.1 NA 0.0000 9999 0 0 0 0
2019/10/24 06:59:00 BASE 13.32 131 15.90 147 -0.4 46 -10.6 0 0 997.0 NA 0.0000 9999 0 0 0 0
2019/10/24 07:00:00 BASE 13.54 141 15.90 147 -0.4 47 -10.4 0 0 997.0 NA 0.0000 9999 0 0 0 0
2019/10/24 07:01:00 BASE 12.69 145 15.90 147 -0.3 48 -10.1 0 0 997.0 NA 0.0000 9999 0 0 0 0
2019/10/24 07:02:00 BASE 11.33 147 15.90 147 -0.3 49 -9.8 0 0 997.0 NA 0.0000 9999 0 0 0 0
2019/10/24 07:03:00 BASE 10.55 151 15.90 147 -0.4 50 -9.4 0 0 996.8 NA 0.0000 9999 0 0 0 0
2019/10/24 07:04:00 BASE 10.24 155 15.90 147 -0.5 52 -9.2 0 0 996.8 NA 0.0000 9999 0 0 0 0
2019/10/24 07:05:00 BASE 9.50 153 15.90 147 -0.6 52 -9.1 0 0 996.8 NA 0.0000 9999 0 0 0 0
2019/10/24 07:06:00 BASE 8.75 149 15.90 147 -0.6 53 -9.0 0 0 996.8 NA 0.0000 9999 0 0 0 0
2019/10/24 07:07:00 BASE 7.48 137 15.90 147 -0.7 53 -9.0 0 0 996.8 NA 0.0000 9999 0 0 0 0
2019/10/24 07:08:00 BASE 5.47 116 15.90 147 -0.7 54 -9.0 0 0 996.8 NA 0.0000 9999 0 0 0 0
2019/10/24 07:09:00 BASE 4.48 91 14.71 141 -0.7 53 -9.1 0 0 996.7 NA 0.0000 9999 0 0 0 0
2019/10/24 07:10:00 BASE 4.59 76 13.43 150 -0.6 51 -9.5 0 0 996.7 NA 0.0000 9999 0 0 0 0
2019/10/24 07:11:00 BASE 4.73 66 12.45 143 -0.5 49 -10.0 0 0 996.7 NA 0.0000 9999 0 0 0 0
2019/10/24 07:12:00 BASE 4.49 48 11.73 160 -0.4 46 -10.5 0 0 996.7 NA 0.0000 9999 0 0 0 0
2019/10/24 07:13:00 BASE 3.94 36 11.16 159 -0.2 44 -10.9 0 0 996.8 NA 0.0000 9999 0 0 0 0
2019/10/24 07:14:00 BASE 4.20 27 10.08 159 -0.2 44 -11.0 0 0 996.8 NA 0.0000 9999 0 0 0 0
2019/10/24 07:15:00 BASE 4.55 57 9.11 150 -0.3 45 -10.8 0 0 996.8 NA 0.0000 9999 0 0 0 0
2019/10/24 07:16:00 BASE 6.11 93 12.91 86 -0.3 46 -10.6 0 0 996.8 NA 0.0000 9999 0 0 0 0
2019/10/24 07:17:00 BASE 8.89 90 12.91 86 -0.3 46 -10.5 0 0 996.8 NA 0.0000 9999 0 0 0 0
2019/10/24 07:18:00 BASE 9.12 89 12.91 86 -0.3 46 -10.6 0 0 996.7 NA 0.0000 9999 0 0 0 0
2019/10/24 07:19:00 BASE 8.54 88 12.91 86 -0.1 45 -10.8 0 0 996.8 NA 0.0000 9999 13290 0 0 0
2019/10/24 07:20:00 BASE 8.62 88 12.91 86 -0.1 44 -10.9 0 0 996.7 NA 0.0000 9999 0 0 0 0
2019/10/24 07:21:00 BASE 8.31 88 12.91 86 -0.1 44 -11.0 0 0 996.8 NA 0.0000 9999 0 0 0 0
2019/10/24 07:22:00 BASE 8.43 87 12.91 86 -0.1 44 -10.9 0 0 996.8 NA 0.0000 9999 0 0 0 0
2019/10/24 07:23:00 BASE 8.36 86 12.91 86 -0.2 45 -10.8 0 0 996.8 NA 0.0000 9999 0 0 0 0
2019/10/24 07:24:00 BASE 8.05 88 12.91 86 -0.2 45 -10.8 0 0 996.8 NA 0.0000 9999 0 0 0 0
2019/10/24 07:25:00 BASE 7.99 94 12.91 86 -0.2 44 -10.9 0 0 996.8 NA 0.0000 9999 0 0 0 0
2019/10/24 07:26:00 BASE 7.20 100 11.21 93 -0.3 45 -10.8 0 0 996.8 NA 0.0000 9999 0 0 0 0
2019/10/24 07:27:00 BASE 7.88 106 10.96 111 -0.4 46 -10.7 0 0 996.8 NA 0.0000 9999 0 0 0 0
2019/10/24 07:28:00 BASE 9.01 115 10.96 111 -0.4 46 -10.6 0 0 996.8 NA 0.0000 9999 0 0 0 0
2019/10/24 07:29:00 BASE 8.26 118 10.96 111 -0.5 47 -10.4 0 0 996.8 NA 0.0000 9999 0 0 0 0
2019/10/24 07:30:00 BASE 7.60 119 10.96 111 -0.5 48 -10.2 0 0 996.7 NA 0.0000 9999 0 0 0 0
2019/10/24 07:31:00 BASE 7.45 119 10.96 111 -0.5 48 -10.1 0 0 996.7 NA 0.0000 9999 0 0 0 0
2019/10/24 07:32:00 BASE 6.94 119 10.96 111 -0.4 48 -10.2 0 0 996.7 NA 0.0000 9999 0 0 0 0
2019/10/24 07:33:00 BASE 6.59 125 10.96 111 -0.3 47 -10.1 0 0 996.7 NA 0.0000 9999 0 0 0 0
2019/10/24 07:34:00 BASE 5.78 127 10.96 111 -0.2 47 -10.2 0 0 996.7 NA 0.0000 9999 0 0 0 0
2019/10/24 07:35:00 BASE 4.75 130 10.96 111 -0.2 47 -10.2 0 0 996.6 NA 0.0000 9999 0 0 0 0
2019/10/24 07:36:00 BASE 4.36 136 10.96 111 -0.2 46 -10.3 0 0 996.6 NA 0.0000 9999 11710 0 0 0
2019/10/24 07:37:00 BASE 4.27 138 10.55 111 -0.2 46 -10.3 0 0 996.6 NA 0.0000 9999 11390 0 0 0
2019/10/24 07:38:00 BASE 4.31 133 8.28 112 -0.2 47 -10.3 0 0 996.6 NA 0.0000 9999 0 0 0 0
2019/10/24 07:39:00 BASE 4.34 131 8.28 112 -0.3 47 -10.2 0 0 996.6 NA 0.0000 9999 11550 0 0 0
2019/10/24 07:40:00 BASE 4.40 134 8.28 112 -0.3 47 -10.1 0 0 996.6 NA 0.0000 9999 11520 0 0 0
2019/10/24 07:41:00 BASE 4.41 135 7.36 123 -0.3 48 -10.1 0 0 996.6 NA 0.0000 9999 11680 0 0 0
2019/10/24 07:42:00 BASE 3.88 132 7.15 125 -0.3 48 -10.1 0 0 996.5 NA 0.0000 9999 11780 0 0 0
2019/10/24 07:43:00 BASE 3.12 121 5.71 139 -0.2 47 -10.2 0 0 996.4 NA 0.0000 9999 11940 0 0 0
2019/10/24 07:44:00 BASE 3.54 117 5.45 142 -0.2 46 -10.4 1 0 996.3 NA 0.0000 9999 11650 0 0 0
2019/10/24 07:45:00 BASE 4.89 127 6.43 138 -0.2 46 -10.5 1 0 996.3 NA 0.0000 9999 11160 0 0 0
2019/10/24 07:46:00 BASE 5.63 133 6.43 138 -0.2 46 -10.4 1 0 996.2 NA 0.0000 9999 11220 0 0 0
2019/10/24 07:47:00 BASE 6.37 128 8.64 122 -0.3 47 -10.4 1 0 996.1 NA 0.0000 9999 11450 0 0 0
2019/10/24 07:48:00 BASE 7.30 123 9.36 121 -0.3 46 -10.5 1 0 996.0 NA 0.0000 9999 11250 0 0 0
2019/10/24 07:49:00 BASE 7.61 128 9.36 121 -0.3 46 -10.5 1 0 996.0 NA 0.0000 9999 10890 0 0 0
2019/10/24 07:50:00 BASE 7.45 131 9.36 121 -0.2 46 -10.6 1 0 996.0 NA 0.0000 9999 10700 0 0 0
2019/10/24 07:51:00 BASE 7.44 125 9.36 121 -0.1 44 -10.9 1 0 996.0 NA 0.0000 9999 11190 0 0 0
2019/10/24 07:52:00 BASE 7.46 123 9.36 121 0.1 42 -11.2 1 0 996.0 NA 0.0000 9999 10860 0 0 0
2019/10/24 07:53:00 BASE 7.09 127 9.36 121 0.2 42 -11.3 1 0 995.9 NA 0.0000 9999 10890 0 0 0
2019/10/24 07:54:00 BASE 6.80 129 9.36 121 0.3 41 -11.4 2 0 995.8 NA 0.0000 9999 0 0 0 0
2019/10/24 07:55:00 BASE 6.17 132 9.36 121 0.3 42 -11.3 2 0 995.8 NA 0.0000 9999 0 0 0 0
2019/10/24 07:56:00 BASE 5.50 130 9.36 121 0.1 43 -11.0 2 0 995.8 NA 0.0000 9999 0 0 0 0
2019/10/24 07:57:00 BASE 5.55 122 9.36 121 -0.0 44 -10.8 2 0 995.8 NA 0.0000 9999 0 0 0 0
2019/10/24 07:58:00 BASE 6.30 119 9.21 117 -0.1 45 -10.6 3 0 995.8 NA 0.0000 9999 11550 0 0 0
2019/10/24 07:59:00 BASE 7.09 116 9.21 117 -0.2 45 -10.6 3 0 995.8 NA 0.0000 9999 0 0 0 0
2019/10/24 08:00:00 BASE 7.65 114 9.21 117 -0.2 46 -10.5 3 0 995.7 NA 0.0000 9999 0 0 0 0
2019/10/24 08:01:01 BASE 8.39 116 9.41 120 -0.2 46 -10.6 2 0 995.7 NA 0.0000 9999 0 0 0 0
2019/10/24 08:02:00 BASE 8.96 120 10.08 121 -0.2 46 -10.6 2 0 995.6 NA 0.0000 9999 0 0 0 0
2019/10/24 08:03:00 BASE 8.13 118 10.08 121 -0.2 45 -10.6 2 0 995.6 NA 0.0000 9999 0 0 0 0
2019/10/24 08:04:00 BASE 7.29 114 10.08 121 -0.1 45 -10.7 1 0 995.5 NA 0.0000 9999 0 0 0 0
2019/10/24 08:05:00 BASE 8.43 113 11.37 115 -0.0 44 -10.8 1 0 995.5 NA 0.0000 9999 0 0 0 0
2019/10/24 08:06:00 BASE 9.66 115 11.37 115 0.0 44 -10.9 1 0 995.4 NA 0.0000 9999 0 0 0 0
2019/10/24 08:07:00 BASE 9.78 119 11.37 115 0.1 43 -10.9 1 0 995.4 NA 0.0000 9999 0 0 0 0
2019/10/24 08:08:00 BASE 9.71 118 11.37 115 0.1 43 -10.9 1 0 995.4 NA 0.0000 9999 0 0 0 0
2019/10/24 08:09:00 BASE 9.28 115 11.37 115 0.1 44 -10.7 1 0 995.3 NA 0.0000 9999 0 0 0 0
2019/10/24 08:10:00 BASE 9.31 111 11.37 115 0.1 44 -10.7 1 0 995.3 NA 0.0000 9999 11420 0 0 0
2019/10/24 08:11:00 BASE 10.15 112 11.42 115 0.1 45 -10.5 1 0 995.3 NA 0.0000 9999 11420 0 0 0
2019/10/24 08:12:00 BASE 10.60 114 11.42 110 0.1 45 -10.5 1 0 995.3 NA 0.0000 9999 10040 0 0 0
2019/10/24 08:13:00 BASE 10.95 109 12.09 108 0.1 45 -10.4 2 0 995.3 NA 0.0000 9999 0 0 0 0
2019/10/24 08:14:00 BASE 10.91 104 12.09 108 0.0 46 -10.2 2 0 995.3 NA 0.0000 9999 9120 0 0 0
2019/10/24 08:15:00 BASE 10.47 105 12.09 108 -0.1 47 -10.1 2 0 995.3 NA 0.0000 9999 8730 0 0 0
2019/10/24 08:16:00 BASE 9.70 110 12.09 108 -0.1 47 -10.1 2 0 995.3 NA 0.0000 9999 8760 0 0 0
2019/10/24 08:17:00 BASE 9.47 116 12.09 108 -0.1 47 -10.1 2 0 995.2 NA 0.0000 9999 0 0 0 0
2019/10/24 08:18:00 BASE 10.44 118 12.35 117 -0.1 46 -10.2 2 0 995.1 NA 0.0000 9999 8200 0 0 0
2019/10/24 08:19:00 BASE 10.38 115 12.35 117 0.1 45 -10.4 3 0 995.1 NA 0.0000 9999 8010 0 0 0
2019/10/24 08:20:00 BASE 9.43 109 12.35 117 0.2 44 -10.5 3 0 995.1 NA 0.0000 9999 8270 0 0 0
2019/10/24 08:21:00 BASE 8.93 110 12.35 117 0.2 45 -10.4 3 0 995.0 NA 0.0000 9999 7610 0 0 0
2019/10/24 08:22:00 BASE 9.51 115 12.35 117 0.3 44 -10.6 3 0 994.9 NA 0.0000 9999 7380 0 0 0
2019/10/24 08:23:00 BASE 10.11 116 12.35 117 0.4 43 -10.7 4 0 994.9 NA 0.0000 9999 7280 0 0 0
2019/10/24 08:24:00 BASE 9.38 113 12.35 117 0.4 43 -10.8 4 0 994.9 NA 0.0000 9999 7150 0 0 0
2019/10/24 08:25:00 BASE 7.90 115 12.35 117 0.5 42 -10.9 4 0 994.9 NA 0.0000 9999 7780 0 0 0
2019/10/24 08:26:00 BASE 7.83 112 12.35 117 0.6 41 -11.0 5 0 994.9 NA 0.0000 9999 7640 0 0 0
2019/10/24 08:27:00 BASE 7.40 109 12.35 117 0.7 41 -11.1 5 0 994.9 NA 0.0000 9999 7610 0 0 0
2019/10/24 08:28:00 BASE 6.28 111 11.11 112 0.7 41 -11.0 5 0 994.9 NA 0.0000 9999 7550 0 0 0
2019/10/24 08:29:00 BASE 6.51 107 11.11 112 0.7 42 -10.9 5 0 994.9 NA 0.0000 9999 7350 0 0 0
2019/10/24 08:30:00 BASE 7.33 108 11.11 112 0.6 42 -10.9 5 0 994.9 NA 0.0000 9999 7250 0 0 0
2019/10/24 08:31:00 BASE 9.74 107 12.81 101 0.5 43 -10.7 6 0 994.8 NA 0.0000 9999 7580 0 0 0
2019/10/24 08:32:00 BASE 11.35 110 12.81 101 0.3 45 -10.2 6 0 994.7 NA 0.0000 9999 7740 0 0 0
2019/10/24 08:33:00 BASE 11.10 112 12.81 101 0.1 48 -9.8 6 0 994.7 NA 0.0000 9999 8890 0 0 0
2019/10/24 08:34:00 BASE 11.61 101 14.71 92 -0.2 50 -9.4 6 0 994.6 NA 0.0000 9999 8500 0 0 0
2019/10/24 08:35:00 BASE 13.07 95 16.05 87 -0.4 53 -8.9 7 0 994.6 NA 0.0000 9999 8430 0 0 0
2019/10/24 08:36:00 BASE 14.84 92 18.11 93 -0.6 55 -8.6 7 0 994.5 NA 0.0000 9999 8270 0 0 0
2019/10/24 08:37:00 BASE 14.67 93 18.11 93 -0.6 56 -8.4 7 0 994.5 NA 0.0000 9999 8200 0 0 0
2019/10/24 08:38:00 BASE 13.80 104 18.11 93 -0.6 56 -8.4 7 0 994.4 NA 0.0000 9999 8200 0 0 0
2019/10/24 08:39:00 BASE 13.97 107 18.11 93 -0.5 55 -8.5 7 0 994.4 NA 0.0000 9999 7940 0 0 0
2019/10/24 08:40:00 BASE 12.89 110 18.11 93 -0.3 53 -8.7 8 0 994.4 NA 0.0000 9999 8200 0 0 0
2019/10/24 08:41:00 BASE 11.60 115 18.11 93 -0.1 51 -9.1 8 0 994.4 NA 0.0000 9999 8200 0 0 0
2019/10/24 08:42:00 BASE 10.58 111 18.11 93 0.2 49 -9.4 8 0 994.4 NA 0.0000 9999 8200 0 0 0
2019/10/24 08:43:00 BASE 9.40 115 18.11 93 0.3 47 -9.7 8 0 994.4 NA 0.0000 9999 8200 0 0 0
2019/10/24 08:44:00 BASE 8.07 125 18.11 93 0.4 46 -9.8 9 0 994.4 NA 0.0000 9999 8760 0 0 0
2019/10/24 08:45:00 BASE 6.75 127 18.11 93 0.3 47 -9.7 9 0 994.4 NA 0.0000 9999 8660 0 0 0
2019/10/24 08:46:00 BASE 5.61 129 15.64 86 0.2 48 -9.5 9 0 994.2 NA 0.0000 9999 9020 0 0 0
2019/10/24 08:47:00 BASE 5.72 136 15.07 101 0.2 49 -9.3 10 0 994.2 NA 0.0000 9999 9090 0 0 0
2019/10/24 08:48:00 BASE 7.74 143 15.07 101 0.1 50 -9.0 10 0 994.1 NA 0.0000 9999 8830 0 0 0
2019/10/24 08:49:00 BASE 8.78 144 12.81 108 0.0 51 -8.9 11 0 994.1 NA 0.0000 9999 9380 0 0 0
2019/10/24 08:50:00 BASE 8.13 145 12.45 113 0.0 51 -8.9 11 0 994.1 NA 0.0000 9999 9090 0 0 0
2019/10/24 08:51:00 BASE 6.98 149 11.32 113 0.1 51 -9.0 11 0 994.1 NA 0.0000 9999 8920 0 0 0
2019/10/24 08:52:00 BASE 6.61 151 10.24 123 0.2 50 -9.1 11 0 994.0 NA 0.0000 9999 9510 0 0 0
2019/10/24 08:53:00 BASE 7.19 143 9.98 150 0.3 49 -9.2 12 0 994.0 NA 0.0000 9999 8630 0 0 0
2019/10/24 08:54:00 BASE 8.60 136 10.29 143 0.3 49 -9.2 12 0 994.0 NA 0.0000 9999 8660 0 0 0
2019/10/24 08:55:00 BASE 10.89 130 15.02 125 0.3 49 -9.2 12 0 993.9 NA 0.0000 9999 7050 0 0 0
2019/10/24 08:56:00 BASE 11.68 119 15.02 125 0.3 49 -9.1 12 0 994.0 NA 0.0000 9999 9710 0 0 0
2019/10/24 08:57:00 BASE 12.08 117 15.02 125 0.2 50 -9.0 12 0 993.9 NA 0.0000 9999 9740 0 0 0
2019/10/24 08:58:00 BASE 12.12 119 15.02 125 0.2 51 -8.9 13 0 993.9 NA 0.0000 9999 9610 0 0 0
2019/10/24 08:59:00 BASE 11.77 119 15.02 125 0.1 51 -8.8 13 0 993.9 NA 0.0000 9999 9350 0 0 0
2019/10/24 09:00:00 BASE 12.73 127 15.84 132 0.1 51 -8.8 13 0 993.8 NA 0.0000 9999 6460 8330 0 0
2019/10/24 09:01:00 BASE 14.55 132 16.87 129 0.1 51 -8.8 14 0 993.7 NA 0.0000 9999 9250 0 0 0
2019/10/24 09:02:00 BASE 16.59 129 19.19 126 0.2 51 -8.8 14 0 993.6 NA 0.0000 9999 8920 0 0 0
2019/10/24 09:03:00 BASE 15.68 124 19.19 126 0.2 51 -8.7 14 0 993.7 NA 0.0000 9999 7220 0 0 0
2019/10/24 09:04:00 BASE 13.22 119 19.19 126 0.1 52 -8.6 15 0 993.7 NA 0.0000 9999 9060 0 0 0
2019/10/24 09:05:00 BASE 12.56 119 19.19 126 0.2 52 -8.6 15 0 993.7 NA 0.0000 9999 7250 0 0 0
2019/10/24 09:06:00 BASE 11.60 122 19.19 126 0.2 51 -8.7 16 0 993.7 NA 0.0000 9999 7280 0 0 0
2019/10/24 09:07:00 BASE 10.76 120 19.19 126 0.2 51 -8.7 17 0 993.7 NA 0.0000 9999 7220 8040 0 0
2019/10/24 09:08:00 BASE 9.94 110 19.19 126 0.2 51 -8.7 17 0 993.7 NA 0.0000 9999 7120 0 0 0
2019/10/24 09:09:00 BASE 10.16 94 19.19 126 0.2 51 -8.7 18 0 993.7 NA 0.0000 9999 7090 0 0 0
2019/10/24 09:10:00 BASE 13.98 82 19.60 71 0.3 51 -8.7 19 0 993.5 NA 0.0000 9999 6890 0 0 0
2019/10/24 09:11:00 BASE 19.13 72 24.59 68 0.3 51 -8.7 19 0 993.2 NA 0.0000 SQ 9999 6630 7610 0 0
2019/10/24 09:12:00 BASE 21.09 66 24.59 68 0.5 50 -8.8 19 0 993.2 NA 0.0000 SQ 9999 6790 7580 0 0
2019/10/24 09:13:00 BASE 20.16 66 24.59 68 0.5 50 -8.8 19 0 993.2 NA 0.0000 9999 6500 0 0 0
2019/10/24 09:14:00 BASE 19.44 65 24.59 68 0.6 50 -8.8 19 0 993.2 NA 0.0000 9999 6560 0 0 0
2019/10/24 09:15:00 BASE 18.64 58 24.59 68 0.6 50 -8.6 19 0 993.2 NA 0.0000 9999 8270 0 0 0
2019/10/24 09:16:00 BASE 19.21 54 24.59 68 0.6 51 -8.5 18 0 993.1 NA 0.0000 9999 7970 0 0 0
2019/10/24 09:17:00 BASE 20.41 58 24.59 68 0.6 51 -8.4 18 0 993.1 NA 0.0000 9999 7940 0 0 0
2019/10/24 09:18:00 BASE 20.67 62 24.59 68 0.6 51 -8.5 17 0 993.0 NA 0.0000 9999 7840 0 0 0
2019/10/24 09:19:00 BASE 20.16 65 24.59 68 0.6 51 -8.5 17 0 993.0 NA 0.0000 9999 7710 0 0 0
2019/10/24 09:20:00 BASE 18.85 63 24.59 68 0.6 51 -8.5 17 0 993.0 NA 0.0000 9999 7150 0 0 0
2019/10/24 09:21:00 BASE 20.17 60 24.54 57 0.6 50 -8.6 17 0 992.9 NA 0.0000 9999 7050 0 0 0
2019/10/24 09:22:00 BASE 21.64 59 24.54 66 0.7 50 -8.6 17 0 992.9 NA 0.0000 9999 6890 0 0 0
2019/10/24 09:23:00 BASE 22.09 61 25.88 63 0.7 50 -8.6 17 0 992.8 NA 0.0000 9999 6790 0 0 0
2019/10/24 09:24:00 BASE 20.69 66 25.88 63 0.8 49 -8.6 17 0 992.9 NA 0.0000 9999 6530 0 0 0
2019/10/24 09:25:00 BASE 18.14 66 25.88 63 0.9 49 -8.7 16 0 992.8 NA 0.0000 9999 6630 0 0 0
2019/10/24 09:26:00 BASE 19.92 65 25.88 63 1.1 48 -8.7 16 0 992.7 NA 0.0000 9999 6300 0 0 0
2019/10/24 09:27:00 BASE 21.25 67 25.88 63 1.1 48 -8.7 15 0 992.6 NA 0.0000 9999 6170 0 0 0
2019/10/24 09:28:00 BASE 19.98 65 25.88 63 1.1 48 -8.6 14 0 992.6 NA 0.0000 9999 6070 0 0 0
2019/10/24 09:29:00 BASE 17.53 65 25.88 63 1.2 48 -8.7 14 0 992.7 NA 0.0000 9999 5970 0 0 0
2019/10/24 09:30:00 BASE 16.47 72 25.88 63 1.4 47 -8.9 14 0 992.7 NA 0.0000 9999 5910 0 0 0
2019/10/24 09:31:00 BASE 16.58 73 25.88 63 1.5 46 -9.0 13 0 992.7 NA 0.0000 9999 5580 0 0 0
2019/10/24 09:32:00 BASE 17.67 71 25.88 63 1.6 44 -9.2 14 0 992.6 NA 0.0000 9999 5540 0 0 0
2019/10/24 09:33:00 BASE 20.15 71 27.93 74 1.8 43 -9.5 14 0 992.6 NA 0.0000 9999 5710 0 0 0
2019/10/24 09:34:00 BASE 19.77 70 27.93 74 1.8 43 -9.5 14 0 992.6 NA 0.0000 9999 5480 0 0 0
2019/10/24 09:35:00 BASE 16.77 68 27.93 74 1.7 45 -9.2 14 0 992.6 NA 0.0000 9999 5510 0 0 0
2019/10/24 09:36:00 BASE 15.86 63 27.93 74 1.5 46 -8.9 14 0 992.6 NA 0.0000 9999 5580 0 0 0
2019/10/24 09:37:00 BASE 19.18 63 27.93 74 1.4 48 -8.6 14 0 992.5 NA 0.0000 9999 5180 0 0 0
2019/10/24 09:38:00 BASE 21.38 66 27.93 74 1.3 49 -8.3 14 0 992.5 NA 0.0000 9999 5410 0 0 0
2019/10/24 09:39:00 BASE 19.91 63 27.93 74 1.3 49 -8.2 14 0 992.5 NA 0.0000 9999 3540 0 0 0
2019/10/24 09:40:00 BASE 20.92 64 28.60 67 1.3 49 -8.2 13 0 992.3 NA 0.0000 9999 3480 0 0 0
2019/10/24 09:41:00 BASE 24.28 68 28.60 67 1.4 48 -8.4 13 0 992.3 NA 0.0000 9999 3610 0 0 0
2019/10/24 09:42:00 BASE 24.48 69 28.60 67 1.4 48 -8.5 13 0 992.3 NA 0.0000 9999 4000 0 0 0
2019/10/24 09:43:00 BASE 24.80 70 28.60 67 1.4 48 -8.5 13 0 992.2 NA 0.0000 9999 3770 0 0 0
2019/10/24 09:44:00 BASE 25.14 69 28.60 67 1.4 48 -8.5 12 0 992.3 NA 0.0000 9999 3510 0 0 0
2019/10/24 09:45:00 BASE 22.21 69 28.60 67 1.3 48 -8.5 12 0 992.3 NA 0.0000 9999 4590 0 0 0
2019/10/24 09:46:00 BASE 22.10 70 28.86 66 1.2 49 -8.3 12 0 992.2 NA 0.0000 9999 4950 0 0 0
2019/10/24 09:47:00 BASE 25.89 71 32.56 70 1.1 50 -8.2 12 0 991.9 NA 0.0000 9000 4950 0 0 0
2019/10/24 09:48:00 BASE 27.13 73 32.56 70 1.1 50 -8.2 12 0 992.0 NA 0.0000 8000 3670 0 0 0
2019/10/24 09:49:00 BASE 27.92 74 32.56 70 1.1 50 -8.2 12 0 991.9 NA 0.0000 9999 3450 0 0 0
2019/10/24 09:50:00 BASE 29.55 71 32.56 70 1.2 50 -8.2 12 0 991.8 NA 0.0000 9999 3610 0 0 0
2019/10/24 09:51:00 BASE 28.96 70 32.56 70 1.3 50 -8.1 12 0 991.9 NA 0.0000 9999 2990 4270 0 0
2019/10/24 09:52:00 BASE 28.30 72 32.56 70 1.4 50 -7.9 12 0 991.9 NA 0.0000 9999 2300 0 0 0
2019/10/24 09:53:00 BASE 28.96 74 32.56 70 1.3 51 -7.8 12 0 991.8 NA 0.0000 9999 2430 0 0 0
2019/10/24 09:54:00 BASE 29.35 79 32.82 87 1.3 51 -7.6 13 0 992.0 NA 0.0000 HZ 7000 2360 0 0 0
2019/10/24 09:55:00 BASE 27.21 76 32.82 87 1.2 52 -7.6 13 0 992.1 NA 0.0000 UP 8000 1250 0 0 0
2019/10/24 09:56:00 BASE 25.75 75 32.82 87 1.0 53 -7.5 13 0 992.0 NA 0.0000 UP 9999 2400 0 0 0
2019/10/24 09:57:00 BASE 25.81 79 32.82 87 0.9 54 -7.3 13 0 992.1 NA 0.0000 UP 9000 1900 0 0 0
2019/10/24 09:58:00 BASE 24.54 78 32.82 87 0.8 56 -7.1 13 0 992.1 NA 0.0000 UP 8000 2260 0 0 0
2019/10/24 09:59:00 BASE 24.75 72 32.82 87 0.6 57 -7.0 13 0 992.0 NA 0.0000 UP 9000 1570 0 0 0
2019/10/24 10:00:00 BASE 25.93 71 32.82 87 0.6 58 -6.8 13 0 992.0 NA 0.0000 UP 8000 720 0 0 0
2019/10/24 10:01:00 BASE 26.64 77 32.82 87 0.5 58 -6.8 14 0 992.0 NA 0.0000 UP 7000 620 0 0 0
2019/10/24 10:02:00 BASE 23.60 83 32.82 87 0.5 58 -6.9 13 0 992.2 NA 0.0000 UP 6000 0 0 0 3150
2019/10/24 10:03:00 BASE 23.27 83 32.82 87 0.4 58 -6.8 13 0 992.0 NA 0.0000 UP 5000 0 0 0 3050
2019/10/24 10:04:00 BASE 26.96 78 31.90 79 0.4 59 -6.6 13 0 992.0 NA 0.0000 UP 3500 330 0 0 0
2019/10/24 10:05:00 BASE 28.08 76 32.31 75 0.3 60 -6.5 13 0 991.9 NA 0.0000 UP 2400 430 0 0 0
2019/10/24 10:06:00 BASE 27.28 79 34.36 78 0.3 62 -6.2 14 0 992.0 NA 0.0000 UP 1500 390 0 0 0
2019/10/24 10:07:00 BASE 24.85 86 34.42 87 0.2 64 -5.8 15 0 992.1 NA 0.0000 UP 1300 330 0 0 0
2019/10/24 10:08:00 BASE 22.45 88 34.42 87 0.1 65 -5.7 15 0 992.2 NA 0.0000 UP 1600 0 0 0 2200
2019/10/24 10:09:00 BASE 22.31 85 34.42 87 0.0 66 -5.7 16 0 992.0 NA 0.0000 -SN 2200 330 0 0 0
2019/10/24 10:10:00 BASE 23.93 85 34.42 87 -0.1 67 -5.6 16 0 992.0 NA 0.0000 -SN 1900 0 0 0 2030
2019/10/24 10:11:00 BASE 23.24 87 34.42 87 -0.2 68 -5.5 17 0 992.0 NA 0.0000 -SN 1600 330 0 0 0
2019/10/24 10:12:00 BASE 23.38 87 34.42 87 -0.4 69 -5.4 16 0 991.8 NA 0.0000 -SN 1000 0 0 0 2170
2019/10/24 10:13:00 BASE 24.17 82 34.42 87 -0.5 71 -5.2 17 0 991.8 NA 0.0000 -SN 0900 0 0 0 1970
2019/10/24 10:14:00 BASE 23.58 83 34.42 87 -0.6 72 -5.0 17 0 991.8 NA 0.0000 -SN 0900 0 0 0 1840
2019/10/24 10:15:00 BASE 23.37 85 34.42 87 -0.6 74 -4.8 18 0 991.8 NA 0.0000 -SN 1000 300 0 0 0
2019/10/24 10:16:00 BASE 21.92 86 34.42 87 -0.7 75 -4.6 18 0 991.7 NA 0.0000 -SN 1100 0 0 0 2030
2019/10/24 10:17:00 BASE 23.28 87 28.65 87 -0.7 76 -4.5 18 0 991.6 NA 0.0000 -SN 1400 0 0 0 2260
2019/10/24 10:18:00 BASE 24.72 87 28.65 87 -0.7 76 -4.3 19 0 991.6 NA 0.0000 -SN 1700 0 0 0 2490
2019/10/24 10:19:00 BASE 23.46 88 28.65 87 -0.7 77 -4.2 19 0 991.6 NA 0.0000 -SN 1100 0 0 0 2460
2019/10/24 10:20:00 BASE 23.54 88 28.65 87 -0.7 78 -4.1 19 0 991.5 NA 0.0000 UP 1100 0 0 0 2330
2019/10/24 10:21:00 BASE 24.26 88 28.65 87 -0.7 78 -4.0 19 0 991.5 NA 0.0000 UP 1400 0 0 0 2360
2019/10/24 10:22:00 BASE 25.18 88 28.65 87 -0.7 79 -3.9 19 0 991.5 NA 0.0000 UP 2700 0 0 0 2170
2019/10/24 10:23:00 BASE 25.27 91 28.91 96 -0.7 79 -3.9 19 0 991.5 NA 0.0000 UP 4200 0 0 0 2260
2019/10/24 10:24:00 BASE 24.63 91 28.91 96 -0.7 80 -3.7 19 0 991.5 NA 0.0000 -SN 6000 460 0 0 0
2019/10/24 10:25:00 BASE 23.19 89 28.91 96 -0.6 80 -3.6 20 0 991.5 NA 0.0000 -SN 3500 0 0 0 2130
2019/10/24 10:26:00 BASE 24.05 93 29.48 91 -0.6 81 -3.5 21 0 991.3 NA 0.0000 -SN 1300 0 0 0 2330
2019/10/24 10:27:00 BASE 25.79 93 29.48 91 -0.5 81 -3.4 21 0 991.3 NA 0.0000 -SN 1200 0 0 0 2300
2019/10/24 10:28:00 BASE 23.63 96 29.48 91 -0.5 81 -3.3 22 0 991.4 NA 0.0000 -SN 1000 0 0 0 2360
2019/10/24 10:29:00 BASE 22.69 99 29.48 91 -0.6 82 -3.3 22 0 991.3 NA 0.0000 -SN 1400 0 0 0 2660
2019/10/24 10:30:00 BASE 23.88 98 29.48 91 -0.6 82 -3.3 22 0 991.2 NA 0.0000 -SN 4800 0 0 0 2790
2019/10/24 10:31:00 BASE 24.98 98 30.76 98 -0.7 82 -3.4 22 0 991.2 NA 0.0000 -SN 8000 0 0 0 3020
2019/10/24 10:32:00 BASE 27.08 95 32.46 101 -0.7 82 -3.4 22 0 991.1 NA 0.0000 -SN 5000 0 0 0 3080
2019/10/24 10:33:00 BASE 26.30 96 32.46 101 -0.7 82 -3.4 23 0 991.1 NA 0.0000 -SN 5000 0 0 0 3450
2019/10/24 10:34:00 BASE 25.43 99 32.98 95 -0.8 83 -3.3 23 0 991.0 NA 0.0000 -SN 7000 0 0 0 4130
2019/10/24 10:35:00 BASE 27.13 100 32.98 95 -0.8 83 -3.3 24 0 990.8 NA 0.0000 -SN 7000 0 0 0 3840
2019/10/24 10:36:00 BASE 25.88 99 32.98 95 -0.8 83 -3.3 24 0 991.0 NA 0.0000 -SN 8000 3280 0 0 0
2019/10/24 10:37:00 BASE 23.19 102 32.98 95 -0.8 83 -3.3 25 0 991.0 NA 0.0000 -SN 9999 3640 0 0 0
2019/10/24 10:38:00 BASE 24.10 102 32.98 95 -0.8 84 -3.2 25 0 990.9 NA 0.0000 -SN 8000 0 0 0 750
2019/10/24 10:39:00 BASE 24.53 100 32.98 95 -0.9 84 -3.2 26 0 990.9 NA 0.0000 -SN 7000 0 0 0 1180
2019/10/24 10:40:00 BASE 26.00 101 32.98 95 -0.9 85 -3.1 27 0 990.7 NA 0.0000 -SN BR 9000 0 0 0 3640
2019/10/24 10:41:00 BASE 26.49 98 32.98 95 -0.9 86 -3.0 27 0 990.9 NA 0.0000 -SN BR 7000 3280 0 0 0
2019/10/24 10:42:00 BASE 25.54 97 32.98 95 -0.9 86 -2.9 27 0 990.7 NA 0.0000 -SN BR 6000 3870 0 0 0
2019/10/24 10:43:00 BASE 28.47 100 34.11 95 -0.9 87 -2.8 26 0 990.5 NA 0.0000 -SN BR 8000 4130 0 0 0
2019/10/24 10:44:00 BASE 31.04 99 34.11 95 -0.9 88 -2.6 26 0 990.4 NA 0.0000 -SN BR 5000 3900 0 0 0
2019/10/24 10:45:00 BASE 29.88 101 34.11 95 -0.9 88 -2.5 25 0 990.4 NA 0.0000 -SN BR 5000 3710 0 0 0
2019/10/24 10:46:00 BASE 26.14 107 34.11 95 -0.9 89 -2.5 26 0 990.4 NA 0.0000 -SN BR 6000 0 0 0 3410
2019/10/24 10:47:00 BASE 26.86 108 36.27 102 -0.9 90 -2.4 26 0 990.1 NA 0.0000 -SN BR 6000 1770 0 0 0
2019/10/24 10:48:00 BASE 29.00 106 36.27 102 -0.9 90 -2.3 27 0 990.0 NA 0.0000 -SN BR 6000 3180 0 0 0
2019/10/24 10:49:00 BASE 27.17 100 36.27 102 -0.9 91 -2.2 26 0 990.2 NA 0.0000 -SN BR 6000 0 0 0 3380
2019/10/24 10:50:00 BASE 27.16 97 36.27 102 -0.9 92 -2.1 26 0 990.0 NA 0.0000 -SN BR 5000 0 0 0 3250
2019/10/24 10:51:00 BASE 29.76 97 36.37 88 -0.9 92 -2.0 26 0 990.0 NA 0.0000 -SN BR 4600 3120 0 0 0
2019/10/24 10:52:00 BASE 30.83 96 36.37 88 -0.9 93 -1.9 26 0 990.0 NA 0.0000 -SN BR 3900 2170 0 0 0
2019/10/24 10:53:00 BASE 29.44 100 36.37 88 -0.9 93 -1.8 25 0 990.0 NA 0.0000 -SN BR 3900 3580 0 0 0
2019/10/24 10:54:00 BASE 26.55 105 36.37 88 -0.9 94 -1.8 24 0 990.0 NA 0.0000 -SN BR 5000 0 0 0 3410
2019/10/24 10:55:00 BASE 28.19 105 36.37 88 -0.9 94 -1.7 24 0 989.8 NA 0.0000 -SN BR 5000 0 0 0 3150
2019/10/24 10:56:00 BASE 31.34 101 36.37 88 -0.9 94 -1.7 24 0 989.8 NA 0.0000 -SN BR 4000 0 0 0 3220
2019/10/24 10:57:00 BASE 31.07 100 36.37 88 -0.9 95 -1.7 26 0 989.8 NA 0.0000 -SN BR 4400 2920 0 0 0
2019/10/24 10:58:00 BASE 31.42 99 36.47 109 -0.9 95 -1.6 26 0 989.8 NA 0.0000 -SN BR 3600 3080 0 0 0
2019/10/24 10:59:00 BASE 31.51 102 39.46 107 -0.9 96 -1.5 27 0 989.7 NA 0.0000 -SN BR 3000 1610 0 0 0
2019/10/24 11:00:00 BASE 32.27 102 39.46 107 -0.9 96 -1.4 29 0 989.6 NA 0.0000 -SN BR 3700 3480 0 0 0
2019/10/24 11:01:00 BASE 31.43 103 39.46 107 -0.9 96 -1.4 32 0 989.8 NA 0.0000 -SN BR 3300 0 0 0 490
2019/10/24 11:02:00 BASE 28.64 106 39.46 107 -0.9 96 -1.4 32 0 989.7 NA 0.0000 -SN BR 3700 3670 0 0 0
2019/10/24 11:03:00 BASE 29.32 106 39.46 107 -0.8 97 -1.3 33 0 989.6 NA 0.0000 -SN BR 3600 0 0 0 490
2019/10/24 11:04:00 BASE 30.31 107 39.46 107 -0.8 97 -1.3 34 0 989.6 NA 0.0000 -SN BR 3500 0 0 0 4130
2019/10/24 11:05:00 BASE 30.75 110 39.46 107 -0.8 97 -1.3 35 0 989.4 NA 0.0000 -SN BR 3400 0 0 0 560
2019/10/24 11:06:00 BASE 29.25 116 39.46 107 -0.8 97 -1.2 36 0 989.4 NA 0.0000 -SN BR 3700 0 0 0 820
2019/10/24 11:07:00 BASE 28.00 115 39.46 107 -0.8 97 -1.2 36 0 989.3 NA 0.0000 -SN BR 6000 3970 0 0 0
2019/10/24 11:08:00 BASE 29.78 108 39.46 107 -0.8 97 -1.2 35 0 989.3 NA 0.0000 -SN BR 7000 0 0 0 4530
2019/10/24 11:09:00 BASE 30.83 105 38.99 105 -0.8 97 -1.2 35 0 989.3 NA 0.0000 -SN BR 7000 3900 0 0 0
2019/10/24 11:10:00 BASE 30.91 110 38.99 105 -0.7 97 -1.2 35 0 989.2 NA 0.0000 -SN BR 7000 0 0 0 490
2019/10/24 11:11:00 BASE 28.28 106 38.99 105 -0.7 97 -1.2 34 0 989.4 NA 0.0000 -SN BR 7000 4230 0 0 0
2019/10/24 11:12:00 BASE 27.83 97 38.99 105 -0.7 97 -1.2 34 0 989.2 NA 0.0000 -SN BR 6000 4330 0 0 0
2019/10/24 11:13:00 BASE 29.15 97 38.99 105 -0.7 96 -1.2 34 0 989.3 NA 0.0000 -SN BR 6000 3810 0 0 0
2019/10/24 11:14:00 BASE 27.73 95 38.99 105 -0.7 96 -1.3 34 0 989.3 NA 0.0000 -SN BR 6000 0 0 0 5120
2019/10/24 11:15:00 BASE 26.19 95 35.86 106 -0.8 96 -1.3 36 0 989.2 NA 0.0000 -SN BR 6000 4270 0 0 0
2019/10/24 11:16:00 BASE 26.86 98 35.86 106 -0.8 96 -1.3 36 0 989.1 NA 0.0000 -SN BR 6000 3970 0 0 0
2019/10/24 11:17:00 BASE 27.91 99 35.86 106 -0.8 97 -1.3 35 0 989.0 NA 0.0000 -SN BR 6000 3970 0 0 0
2019/10/24 11:18:00 BASE 27.83 96 35.86 106 -0.8 97 -1.2 34 0 988.9 NA 0.0000 -SN BR 6000 4100 0 0 0
2019/10/24 11:19:00 BASE 24.92 95 35.86 106 -0.8 97 -1.2 34 0 989.0 NA 0.0000 -SN BR 6000 4070 0 0 0
2019/10/24 11:20:00 BASE 24.86 97 35.86 106 -0.7 97 -1.2 36 0 988.7 NA 0.0000 BR 6000 3710 0 0 0
2019/10/24 11:21:00 BASE 29.88 96 35.86 106 -0.7 97 -1.1 36 0 988.5 NA 0.0000 BR 5000 3810 0 0 0
2019/10/24 11:22:00 BASE 31.38 97 35.75 91 -0.7 97 -1.1 37 0 988.5 NA 0.0000 BR 5000 1870 0 0 0
2019/10/24 11:23:00 BASE 31.80 99 37.76 97 -0.6 97 -1.1 37 0 988.4 NA 0.0000 BR 5000 3510 0 0 0
2019/10/24 11:24:00 BASE 33.63 101 38.27 109 -0.6 97 -1.1 36 0 988.2 NA 0.0000 BR 4300 3940 0 0 0
2019/10/24 11:25:00 BASE 35.14 101 40.18 99 -0.6 97 -1.0 36 0 988.1 NA 0.0000 -SN BR 2400 3870 0 0 0
2019/10/24 11:26:00 BASE 34.61 100 40.18 99 -0.6 96 -1.1 37 0 988.2 NA 0.0000 -SN BR 2200 3380 0 0 0
2019/10/24 11:27:00 BASE 35.25 100 42.49 95 -0.6 96 -1.1 37 0 988.0 NA 0.0000 -SN BR 3000 3480 0 0 0
2019/10/24 11:28:00 BASE 34.77 101 42.49 95 -0.6 96 -1.1 38 0 988.1 NA 0.0000 -SN BR 3000 3280 0 0 0
2019/10/24 11:29:00 BASE 29.84 102 42.49 95 -0.6 96 -1.1 39 0 988.2 NA 0.0000 -SN BR 2900 0 0 0 490
2019/10/24 11:30:00 BASE 28.68 103 42.49 95 -0.6 96 -1.2 41 0 988.2 NA 0.0000 -SN BR 3000 0 0 0 3640
2019/10/24 11:31:00 BASE 30.51 105 42.49 95 -0.7 96 -1.2 42 0 988.0 NA 0.0000 -SN BR 3000 0 0 0 620
2019/10/24 11:32:00 BASE 31.56 105 42.49 95 -0.7 97 -1.2 41 0 987.9 NA 0.0000 -SN BR 2800 0 0 0 560
2019/10/24 11:33:00 BASE 30.11 106 42.49 95 -0.7 97 -1.2 40 0 988.1 NA 0.0000 -SN BR 2800 0 0 0 620
2019/10/24 11:34:00 BASE 28.30 108 42.49 95 -0.8 97 -1.2 40 0 988.1 NA 0.0000 -SN BR 3400 0 0 0 360
2019/10/24 11:35:00 BASE 30.92 108 42.49 95 -0.7 97 -1.1 39 0 987.9 NA 0.0000 -SN BR 3300 0 0 0 590
2019/10/24 11:36:00 BASE 31.68 108 42.49 95 -0.8 97 -1.1 38 0 988.0 NA 0.0000 -SN BR 2300 0 0 0 3770
2019/10/24 11:37:00 BASE 29.38 106 40.13 109 -0.8 98 -1.1 37 0 988.1 NA 0.0000 -SN BR 2900 0 0 0 590
2019/10/24 11:38:00 BASE 28.77 106 40.13 109 -0.8 98 -1.1 36 0 988.1 NA 0.0000 -SN BR 2900 0 0 0 3870
2019/10/24 11:39:00 BASE 29.46 105 40.13 109 -0.8 98 -1.1 34 0 988.0 NA 0.0000 -SN BR 2400 0 0 0 4790
2019/10/24 11:40:00 BASE 31.38 106 40.13 109 -0.8 98 -1.1 34 0 987.8 NA 0.0000 -SN BR 3200 0 0 0 360
2019/10/24 11:41:00 BASE 30.69 107 40.13 109 -0.8 99 -1.0 34 0 987.9 NA 0.0000 -SN BR 2900 0 0 0 4400
2019/10/24 11:42:00 BASE 28.05 107 40.13 109 -0.8 99 -1.0 35 0 987.9 NA 0.0000 -SN BR 3000 0 0 0 3670
2019/10/24 11:43:00 BASE 28.78 108 40.13 109 -0.8 99 -1.0 36 0 987.7 NA 0.0000 -SN BR 2900 0 0 0 3740
2019/10/24 11:44:00 BASE 29.63 110 40.13 109 -0.8 99 -0.9 37 0 987.7 NA 0.0000 -SN BR 2900 0 0 0 3640
2019/10/24 11:45:00 BASE 29.31 109 35.91 108 -0.8 99 -0.9 38 0 987.7 NA 0.0000 -SN BR 2800 0 0 0 4000
2019/10/24 11:46:00 BASE 29.24 110 35.86 112 -0.8 100 -0.9 38 0 987.7 NA 0.0000 -SN BR 2900 0 0 0 3740
2019/10/24 11:47:00 BASE 27.46 112 35.86 112 -0.8 100 -0.8 38 0 987.8 NA 0.0000 -SN BR 2800 0 0 0 4040
2019/10/24 11:48:00 BASE 26.23 113 35.86 112 -0.8 100 -0.8 38 0 987.8 NA 0.0000 -SN BR 2800 0 0 0 3810
2019/10/24 11:49:00 BASE 28.22 114 35.86 112 -0.7 100 -0.7 38 0 987.7 NA 0.0000 -SN BR 2700 0 0 0 3940
2019/10/24 11:50:00 BASE 30.03 113 35.50 113 -0.7 100 -0.7 36 0 987.6 NA 0.0000 -SN BR 2700 0 0 0 620
2019/10/24 11:51:00 BASE 31.72 112 36.83 106 -0.7 100 -0.7 36 0 987.5 NA 0.0000 BR 2700 0 0 0 3480
2019/10/24 11:52:00 BASE 30.36 114 36.83 106 -0.7 100 -0.7 36 0 987.7 NA 0.0000 -SN BR 2600 0 0 0 4400
2019/10/24 11:53:00 BASE 26.59 117 36.83 106 -0.7 100 -0.7 37 0 987.7 NA 0.0000 -SN BR 2600 0 0 0 3640
2019/10/24 11:54:00 BASE 26.62 119 36.83 106 -0.7 100 -0.7 36 0 987.6 NA 0.0000 -SN BR 2600 0 0 0 3640
2019/10/24 11:55:00 BASE 25.60 117 36.83 106 -0.7 99 -0.8 36 0 987.7 NA 0.0000 -SN BR 2600 0 0 0 3740
2019/10/24 11:56:00 BASE 24.59 114 36.83 106 -0.8 99 -0.9 36 0 987.7 NA 0.0000 -SN BR 2600 0 0 0 3610
2019/10/24 11:57:00 BASE 26.23 117 36.83 106 -0.8 99 -0.9 35 0 987.6 NA 0.0000 -SN BR 2600 0 0 0 4270
2019/10/24 11:58:00 BASE 26.67 118 36.83 106 -0.8 99 -0.9 35 0 987.7 NA 0.0000 -SN BR 2500 0 0 0 3540
2019/10/24 11:59:00 BASE 24.52 118 36.83 106 -0.8 100 -0.9 35 0 987.7 NA 0.0000 -SN BR 2500 0 0 0 4170
2019/10/24 12:00:00 BASE 22.77 121 36.83 106 -0.8 100 -0.8 35 0 987.7 NA 0.0000 -SN BR 2500 0 0 0 4230
2019/10/24 12:01:00 BASE 23.54 123 33.44 112 -0.8 100 -0.8 36 0 987.5 NA 0.0000 -SN BR 2800 0 0 0 4270
2019/10/24 12:02:00 BASE 23.95 124 31.59 112 -0.8 100 -0.8 36 0 987.5 NA 0.0000 -SN BR 5000 0 0 0 3510
2019/10/24 12:03:00 BASE 22.74 126 31.59 112 -0.8 100 -0.8 37 0 987.4 NA 0.0000 -SN BR 5000 0 0 0 3740
2019/10/24 12:04:00 BASE 23.54 124 29.73 112 -0.8 100 -0.8 37 0 987.3 NA 0.0000 -SN BR 4800 0 0 0 4430
2019/10/24 12:05:00 BASE 25.84 124 29.73 112 -0.8 100 -0.8 37 0 987.2 NA 0.0000 -SN BR 4500 0 0 0 4460
2019/10/24 12:06:00 BASE 27.14 129 31.43 122 -0.8 100 -0.8 37 0 987.0 NA 0.0000 -SN BR 4900 0 0 0 4400
2019/10/24 12:07:00 BASE 25.90 133 31.43 122 -0.8 100 -0.8 37 0 987.1 NA 0.0000 -SN BR 4900 0 0 0 4490
2019/10/24 12:08:00 BASE 23.05 135 31.43 122 -0.8 100 -0.8 38 0 987.1 NA 0.0000 -SN BR 4800 0 0 0 4100
2019/10/24 12:09:00 BASE 24.19 135 31.43 122 -0.8 100 -0.8 38 0 986.8 NA 0.0000 -SN BR 4700 0 0 0 3710
2019/10/24 12:10:00 BASE 27.68 127 31.43 122 -0.7 100 -0.7 38 0 986.7 NA 0.0000 -SN BR 4400 0 0 0 3710
2019/10/24 12:11:00 BASE 27.16 120 31.43 122 -0.7 100 -0.7 39 0 986.9 NA 0.0000 -SN BR 4000 0 0 0 3350
2019/10/24 12:12:00 BASE 23.87 126 31.43 122 -0.7 100 -0.7 39 0 987.0 NA 0.0000 -SN BR 4100 0 0 0 3540
2019/10/24 12:13:00 BASE 21.52 133 31.43 122 -0.7 100 -0.7 40 0 987.0 NA 0.0000 -SN BR 4600 0 0 0 3580
2019/10/24 12:14:00 BASE 21.34 133 31.43 122 -0.6 100 -0.6 40 0 986.9 NA 0.0000 -SN BR 5000 0 0 0 4460
2019/10/24 12:15:00 BASE 23.31 131 31.43 122 -0.6 100 -0.6 40 0 986.7 NA 0.0000 -SN BR 5000 0 0 0 4040
2019/10/24 12:16:00 BASE 24.20 134 31.28 128 -0.6 100 -0.6 40 0 986.6 NA 0.0000 -SN BR 5000 0 0 0 3940
2019/10/24 12:17:00 BASE 22.51 137 31.28 128 -0.5 100 -0.5 41 0 986.6 NA 0.0000 -SN BR 5000 0 0 0 3970
2019/10/24 12:18:00 BASE 21.36 141 31.28 128 -0.5 100 -0.5 41 0 986.5 NA 0.0000 -SN BR 5000 0 0 0 4460
2019/10/24 12:19:00 BASE 22.47 140 31.18 113 -0.5 100 -0.5 42 0 986.5 NA 0.0000 -SN BR 5000 22770 0 0 0
2019/10/24 12:20:00 BASE 23.00 137 29.94 119 -0.4 100 -0.4 42 0 986.4 NA 0.0000 -SN BR 5000 0 0 0 4660
2019/10/24 12:21:00 BASE 20.93 142 28.04 130 -0.4 100 -0.4 42 0 986.7 NA 0.0000 -SN BR 5000 0 0 0 3970
2019/10/24 12:22:00 BASE 18.63 145 28.04 130 -0.3 100 -0.3 42 0 986.7 NA 0.0000 -SN BR 5000 0 0 0 3940
2019/10/24 12:23:00 BASE 18.83 145 28.04 130 -0.3 100 -0.3 41 0 986.6 NA 0.0000 -SN BR 4900 0 0 0 3840
2019/10/24 12:24:00 BASE 20.72 140 28.04 130 -0.2 100 -0.2 41 0 986.5 NA 0.0000 BR 4900 0 0 0 3840
2019/10/24 12:25:00 BASE 19.71 140 28.04 130 -0.2 100 -0.2 41 0 986.6 NA 0.0000 BR 4900 0 0 0 3870
2019/10/24 12:26:00 BASE 18.98 140 25.98 135 -0.1 100 -0.1 40 0 986.5 NA 0.0000 BR 4800 0 0 0 4040
2019/10/24 12:27:00 BASE 20.91 139 25.98 135 -0.1 100 -0.1 40 0 986.4 NA 0.0000 BR 4800 0 0 0 3740
2019/10/24 12:28:00 BASE 20.31 145 25.98 135 -0.1 100 -0.1 41 0 986.5 NA 0.0000 BR 4800 0 0 0 4200
2019/10/24 12:29:00 BASE 18.30 145 25.98 135 -0.1 100 -0.1 41 0 986.8 NA 0.0000 BR 4800 0 0 0 3810
2019/10/24 12:30:00 BASE 18.22 139 25.98 135 -0.2 100 -0.2 40 0 986.8 NA 0.0000 BR 4700 0 0 0 3740
2019/10/24 12:31:00 BASE 19.98 138 25.98 135 -0.2 100 -0.2 39 0 986.8 NA 0.0000 BR 4700 0 0 0 3540
2019/10/24 12:32:00 BASE 20.23 146 25.98 135 -0.3 100 -0.3 40 0 986.9 NA 0.0000 BR 4700 0 0 0 3540
2019/10/24 12:33:00 BASE 18.96 147 25.98 135 -0.3 100 -0.3 40 0 986.8 NA 0.0000 BR 4600 0 0 0 3250
2019/10/24 12:34:00 BASE 16.29 145 25.98 135 -0.3 100 -0.3 40 0 986.8 NA 0.0000 BR 4600 0 0 0 3940
2019/10/24 12:35:00 BASE 15.51 146 25.98 135 -0.3 100 -0.3 40 0 986.8 NA 0.0000 BR 4600 0 0 0 3580
2019/10/24 12:36:00 BASE 18.05 150 25.98 135 -0.3 100 -0.3 39 0 986.6 NA 0.0000 BR 4600 0 0 0 3540
2019/10/24 12:37:00 BASE 17.76 151 25.05 144 -0.2 100 -0.2 40 0 986.8 NA 0.0000 BR 5000 0 0 0 3310
2019/10/24 12:38:00 BASE 14.37 143 25.05 144 -0.2 100 -0.2 41 0 987.0 NA 0.0000 -SN BR 7000 0 0 0 3540
2019/10/24 12:39:00 BASE 13.09 141 25.05 144 -0.0 100 -0.0 42 0 986.9 NA 0.0000 -SN BR 7000 0 0 0 4270
2019/10/24 12:40:00 BASE 14.09 149 23.51 140 0.1 100 0.1 42 0 986.9 NA 0.0000 -SN BR 7000 0 0 0 3510
2019/10/24 12:41:00 BASE 12.61 153 22.58 149 0.2 100 0.2 42 0 987.1 NA 0.0000 -SN BR 7000 0 0 0 3610
2019/10/24 12:42:00 BASE 8.91 135 21.81 166 0.3 100 0.3 42 0 987.2 NA 0.0000 -SN BR 7000 0 0 0 3380
2019/10/24 12:43:00 BASE 7.51 100 21.81 166 0.5 100 0.5 42 0 987.1 NA 0.0000 -SN BR 7000 0 0 0 3580
2019/10/24 12:44:00 BASE 9.19 83 21.81 166 0.8 100 0.8 41 0 987.0 NA 0.0000 -SN BR 7000 0 0 0 3740
2019/10/24 12:45:00 BASE 10.72 97 21.81 166 1.2 100 1.2 41 0 987.1 NA 0.0000 -SN BR 7000 430 0 0 0
2019/10/24 12:46:00 BASE 10.82 104 20.27 156 1.7 99 1.6 41 0 987.1 NA 0.0000 -SN BR 7000 0 0 0 3770
2019/10/24 12:47:00 BASE 12.38 89 17.13 145 2.3 98 1.9 40 0 987.0 NA 0.0000 -SN BR 7000 0 0 0 3740
2019/10/24 12:48:00 BASE 13.86 84 17.13 145 2.7 95 2.0 39 0 987.1 NA 0.0000 BR 7000 820 0 0 0
2019/10/24 12:49:00 BASE 15.94 79 20.22 81 2.9 93 1.8 39 0 987.0 NA 0.0000 BR 7000 0 0 0 4170
2019/10/24 12:50:00 BASE 19.07 72 22.28 71 3.0 89 1.4 40 0 986.9 NA 0.0000 BR 7000 0 0 0 3250
2019/10/24 12:51:00 BASE 19.02 79 22.28 71 3.1 87 1.1 40 0 986.8 NA 0.0000 BR 7000 430 0 0 0
2019/10/24 12:52:00 BASE 19.20 79 24.59 63 3.1 85 0.8 40 0 986.8 NA 0.0000 HZ 7000 0 0 0 3180
2019/10/24 12:53:00 BASE 18.45 78 24.59 63 3.1 83 0.5 40 0 986.8 NA 0.0000 HZ 7000 0 0 0 2890
2019/10/24 12:54:00 BASE 18.48 84 24.59 63 3.0 83 0.4 41 0 986.7 NA 0.0000 HZ 7000 0 0 0 2820
2019/10/24 12:55:00 BASE 19.65 86 24.59 63 3.0 82 0.3 41 0 986.7 NA 0.0000 HZ 3200 430 0 0 0
2019/10/24 12:56:00 BASE 17.33 84 24.59 63 3.0 82 0.1 41 0 986.7 NA 0.0000 -SN 1100 0 0 0 2720
2019/10/24 12:57:00 BASE 18.15 81 24.80 78 2.9 82 0.1 39 0 986.6 NA 0.0000 -SN 1000 0 0 0 3150
2019/10/24 12:58:00 BASE 20.32 79 24.80 78 2.9 82 0.1 42 0 986.5 NA 0.0000 -SN 1100 0 0 0 2620
2019/10/24 12:59:00 BASE 21.47 78 25.77 73 2.8 82 -0.0 43 0 986.4 NA 0.0000 -SN 1200 0 0 0 3710
2019/10/24 13:00:00 BASE 22.33 77 25.77 73 2.7 82 -0.1 42 0 986.5 NA 0.0000 -SN 1200 390 0 0 0
2019/10/24 13:01:00 BASE 22.40 77 26.65 84 2.6 83 -0.1 47 0 986.3 NA 0.0000 -SN 1500 0 0 0 2990
2019/10/24 13:02:00 BASE 22.66 80 26.65 84 2.5 83 -0.1 47 0 986.3 NA 0.0000 -SN 1400 330 0 0 0
2019/10/24 13:03:00 BASE 21.28 81 26.65 84 2.5 84 -0.0 46 0 986.3 NA 0.0000 -SN 1100 330 0 0 0
2019/10/24 13:04:00 BASE 19.88 78 26.65 84 2.5 84 0.1 45 0 986.3 NA 0.0000 -SN 1100 330 0 0 0
2019/10/24 13:05:00 BASE 20.97 75 28.40 76 2.5 85 0.3 44 0 986.3 NA 0.0000 -SN 1200 330 0 0 0
2019/10/24 13:06:00 BASE 24.07 72 28.81 68 2.6 86 0.5 43 0 986.1 NA 0.0000 -SN BR 1600 330 0 0 0
2019/10/24 13:07:00 BASE 25.52 72 28.81 68 2.6 87 0.7 43 0 986.1 NA 0.0000 -SN BR 2000 300 0 0 0
2019/10/24 13:08:00 BASE 26.03 77 30.40 82 2.6 87 0.7 43 0 986.1 NA 0.0000 -SN BR 1400 330 0 0 0
2019/10/24 13:09:00 BASE 24.97 80 30.40 82 2.6 88 0.8 43 0 986.2 NA 0.0000 -SN BR 1000 330 0 0 0
2019/10/24 13:10:00 BASE 24.41 80 30.40 82 2.5 89 0.8 44 0 986.1 NA 0.0000 -SN BR 0900 330 0 0 0
2019/10/24 13:11:00 BASE 25.28 79 30.40 82 2.5 89 0.8 43 0 986.1 NA 0.0000 -SN BR 1000 300 0 0 0
2019/10/24 13:12:00 BASE 23.75 78 30.40 82 2.4 89 0.8 42 0 986.2 NA 0.2540 -SN BR 1100 330 0 0 0
2019/10/24 13:13:00 BASE 21.53 78 30.40 82 2.4 89 0.8 43 0 986.3 NA 0.0000 -SN BR 1100 360 0 0 0
2019/10/24 13:14:00 BASE 21.06 79 30.40 82 2.5 90 0.9 43 0 986.3 NA 0.0000 -SN BR 1000 330 0 0 0
2019/10/24 13:15:00 BASE 20.93 79 30.40 82 2.5 90 1.0 45 0 986.3 NA 0.0000 -SN BR 1200 330 0 0 0
2019/10/24 13:16:00 BASE 21.81 77 30.40 82 2.5 90 1.0 45 0 986.2 NA 0.0000 -SN BR 1300 360 0 0 0
2019/10/24 13:17:00 BASE 23.79 74 30.40 82 2.6 90 1.1 44 0 986.3 NA 0.0000 -RA BR 1300 360 0 0 0
2019/10/24 13:18:00 BASE 23.78 74 28.40 69 2.6 90 1.2 47 0 986.2 NA 0.0000 -RA BR 1300 360 0 0 0
2019/10/24 13:19:00 BASE 23.27 75 28.40 69 2.7 91 1.3 50 0 986.2 NA 0.0000 -RA BR 1200 330 0 0 0
2019/10/24 13:20:00 BASE 23.60 74 28.40 69 2.7 91 1.4 53 0 986.2 NA 0.0000 -RA BR 1700 330 0 0 0
2019/10/24 13:21:00 BASE 24.61 70 28.40 69 2.8 91 1.5 56 0 986.1 NA 0.0000 -RA BR 2000 330 0 0 0
2019/10/24 13:22:00 BASE 25.23 66 28.81 73 2.9 91 1.7 59 0 986.1 NA 0.0000 -RA BR 2500 360 0 0 0
2019/10/24 13:23:00 BASE 25.40 67 28.81 73 3.0 91 1.8 60 0 986.1 NA 0.0000 -RA BR 3200 360 0 0 0
2019/10/24 13:24:00 BASE 25.26 69 28.81 73 3.1 91 1.8 59 0 986.0 NA 0.0000 -RA BR 3700 360 5680 0 0
2019/10/24 13:25:00 BASE 25.43 69 28.81 73 3.2 91 1.9 58 0 986.0 NA 0.0000 -RA BR 4500 0 0 0 6070
2019/10/24 13:26:00 BASE 25.66 69 28.81 73 3.2 91 2.0 58 0 986.1 NA 0.0000 -RA BR 4000 390 5770 0 0
2019/10/24 13:27:00 BASE 24.75 72 28.81 73 3.3 91 2.0 57 0 986.1 NA 0.0000 -RA BR 3500 0 0 0 5680
2019/10/24 13:28:00 BASE 23.20 78 28.81 73 3.3 91 2.0 55 0 986.1 NA 0.0000 -RA BR 3000 5250 0 0 0
2019/10/24 13:29:00 BASE 21.06 82 28.81 73 3.3 91 2.0 55 0 986.2 NA 0.0000 -RA BR 2600 390 0 0 0
2019/10/24 13:30:00 BASE 19.25 82 28.81 73 3.2 91 1.9 57 0 986.2 NA 0.0000 -RA BR 2800 430 0 0 0
2019/10/24 13:31:00 BASE 18.49 78 28.81 73 3.0 91 1.7 59 0 986.2 NA 0.2540 -RA BR 2800 0 0 0 5480
2019/10/24 13:32:00 BASE 18.05 78 28.24 68 2.9 92 1.7 61 0 986.3 NA 0.0000 -RA BR 2800 390 0 0 0
2019/10/24 13:33:00 BASE 19.11 80 28.24 68 2.9 92 1.7 64 0 986.3 NA 0.0000 -RA BR 2800 430 0 0 0
2019/10/24 13:34:00 BASE 20.09 82 27.78 63 2.9 93 1.8 71 0 986.3 NA 0.0000 -RA BR 2700 430 0 0 0
2019/10/24 13:35:00 BASE 20.40 82 27.78 63 2.9 93 2.0 72 0 986.2 NA 0.0000 -RA BR 2700 390 5320 0 0
2019/10/24 13:36:00 BASE 21.49 82 27.57 73 3.0 94 2.1 72 0 986.2 NA 0.0000 -RA BR 2700 390 0 0 0
2019/10/24 13:37:00 BASE 21.52 86 27.57 73 3.0 94 2.1 72 0 986.2 NA 0.0000 -RA BR 2700 390 5180 0 0
2019/10/24 13:38:00 BASE 20.31 91 24.69 83 3.0 94 2.1 73 0 986.1 NA 0.0000 BR 2600 360 5450 0 0
2019/10/24 13:39:00 BASE 19.93 93 24.69 83 3.0 94 2.1 73 0 986.2 NA 0.0000 BR 1700 360 5410 0 0
2019/10/24 13:40:00 BASE 19.05 94 24.69 83 3.0 94 2.1 76 0 986.1 NA 0.0000 -RA BR 0800 360 5380 0 0
2019/10/24 13:41:00 BASE 18.37 94 24.69 83 3.0 94 2.1 77 0 986.0 NA 0.0000 -RA BR 0800 360 5380 0 0
2019/10/24 13:42:00 BASE 21.22 88 25.83 81 3.0 94 2.1 76 0 985.9 NA 0.0000 -RA BR 0750 5150 0 0 0
2019/10/24 13:43:00 BASE 23.76 81 27.16 81 3.0 94 2.1 77 0 985.8 NA 0.0000 -RA BR 0800 5050 0 0 0
2019/10/24 13:44:00 BASE 23.64 79 27.16 81 2.9 94 2.1 78 0 985.8 NA 0.0000 -RA BR 0800 5150 0 0 0
2019/10/24 13:45:00 BASE 24.48 81 29.37 84 2.9 95 2.1 78 0 985.8 NA 0.0000 -RA BR 0750 5180 0 0 0
2019/10/24 13:46:00 BASE 25.06 83 29.37 84 2.9 95 2.1 76 0 985.8 NA 0.0000 -RA BR 0750 5380 0 0 0
2019/10/24 13:47:00 BASE 24.12 87 29.37 84 2.8 95 2.1 74 0 985.8 NA 0.0000 -RA BR 0750 5450 0 0 0
2019/10/24 13:48:00 BASE 24.82 87 29.37 84 2.8 95 2.1 73 0 985.8 NA 0.0000 -RA FG 0750 5350 0 0 0
2019/10/24 13:49:00 BASE 24.67 82 29.37 84 2.8 95 2.1 73 0 985.9 NA 0.0000 -RA FG 0750 5480 0 0 0
2019/10/24 13:50:00 BASE 23.79 79 29.37 84 2.8 95 2.1 72 0 985.8 NA 0.0000 -RA FG 0750 5450 0 0 0
2019/10/24 13:51:00 BASE 23.59 80 29.37 84 2.8 95 2.1 72 0 985.8 NA 0.0000 FG 0750 5380 6070 0 0
2019/10/24 13:52:00 BASE 23.68 85 29.37 84 2.9 94 2.1 72 0 985.7 NA 0.0000 FG 0750 5450 0 0 0
2019/10/24 13:53:00 BASE 24.80 88 29.37 84 2.9 94 2.0 71 0 985.8 NA 0.0000 FG 0750 5350 0 0 0
2019/10/24 13:54:00 BASE 24.00 88 29.37 84 3.0 94 2.0 71 0 985.8 NA 0.0000 FG 0750 4660 5510 0 0
2019/10/24 13:55:00 BASE 21.99 88 28.91 83 3.0 93 2.0 71 0 985.8 NA 0.0000 FG 0750 5510 0 0 0
2019/10/24 13:56:00 BASE 21.02 93 28.91 83 3.1 93 2.0 71 0 985.7 NA 0.0000 FG 0750 5640 0 0 0
2019/10/24 13:57:00 BASE 20.00 101 28.91 83 3.1 92 2.0 70 0 985.7 NA 0.0000 FG 0750 5540 0 0 0
2019/10/24 13:58:00 BASE 18.20 105 27.68 88 3.2 92 2.1 68 0 985.7 NA 0.0000 FG 0750 5710 0 0 0
2019/10/24 13:59:00 BASE 20.13 84 27.88 50 3.3 92 2.1 68 0 985.7 NA 0.0000 FG 0750 5740 0 0 0
2019/10/24 14:00:00 BASE 21.26 60 27.88 50 3.5 92 2.3 67 0 985.7 NA 0.0000 FG 0750 5740 0 0 0
2019/10/24 14:01:00 BASE 20.86 59 27.88 50 3.7 92 2.6 66 0 985.5 NA 0.0000 FG 0750 5870 0 0 0
2019/10/24 14:02:00 BASE 23.02 57 28.81 50 4.0 92 2.8 67 0 985.4 NA 0.0000 FG 0750 6140 0 0 0
2019/10/24 14:03:00 BASE 23.42 55 28.81 50 4.3 92 3.0 69 0 985.5 NA 0.0000 FG 0750 6100 0 0 0
2019/10/24 14:04:00 BASE 23.30 49 28.81 50 4.6 91 3.3 70 0 985.4 NA 0.0000 FG 0900 5970 0 0 0
2019/10/24 14:05:00 BASE 23.21 38 28.81 50 4.8 90 3.3 73 0 985.4 NA 0.0000 -RA FG 9999 4720 0 0 0
2019/10/24 14:06:00 BASE 23.78 35 29.48 26 4.9 89 3.2 75 0 985.4 NA 0.0000 -RA BR 9999 4820 5870 0 0
2019/10/24 14:07:00 BASE 23.80 42 29.48 26 5.1 88 3.2 75 0 985.5 NA 0.0000 -RA BR 9999 4270 6140 0 0
2019/10/24 14:08:00 BASE 21.93 47 29.48 26 5.2 86 3.0 74 0 985.6 NA 0.0000 -RA BR 9999 4130 0 0 0
2019/10/24 14:09:00 BASE 20.24 47 29.48 26 5.2 85 2.9 73 0 985.6 NA 0.0000 -RA 9999 4530 5840 0 0
2019/10/24 14:10:00 BASE 18.50 52 29.48 26 5.2 84 2.7 72 0 985.6 NA 0.0000 -RA 9999 5510 0 0 0
2019/10/24 14:11:00 BASE 17.95 55 29.48 26 5.2 84 2.6 68 0 985.6 NA 0.0000 -RA 9999 5450 0 0 0
2019/10/24 14:12:00 BASE 17.80 48 29.48 26 5.1 83 2.6 65 0 985.7 NA 0.0000 -RA 9999 5450 0 0 0
2019/10/24 14:13:00 BASE 18.60 42 29.48 26 5.1 84 2.5 67 0 985.7 NA 0.0000 -RA 9999 3770 5810 0 0
2019/10/24 14:14:00 BASE 19.50 46 29.48 26 5.1 84 2.5 71 0 985.7 NA 0.0000 -RA 9999 3710 0 0 0
2019/10/24 14:15:00 BASE 19.29 50 29.48 26 5.1 83 2.5 72 0 985.6 NA 0.0000 -RA 9999 3710 0 0 0
2019/10/24 14:16:00 BASE 23.06 45 31.28 34 5.1 83 2.4 74 0 985.3 NA 0.0000 -RA 9999 3940 0 0 0
2019/10/24 14:17:00 BASE 25.26 42 31.28 34 5.1 82 2.3 77 0 985.3 NA 0.0000 -RA 9999 4170 4950 0 0
2019/10/24 14:18:00 BASE 21.83 42 31.28 34 5.1 82 2.2 78 0 985.5 NA 0.0000 -RA 9999 5020 6300 0 0
2019/10/24 14:19:00 BASE 20.18 44 31.28 34 5.1 81 2.1 79 0 985.5 NA 0.0000 -RA 9999 5020 5940 0 0
2019/10/24 14:20:00 BASE 19.93 43 31.28 34 5.1 81 2.1 82 0 985.5 NA 0.0000 -RA 9999 4400 4950 0 0
2019/10/24 14:21:00 BASE 20.40 38 31.28 34 5.0 81 2.0 86 0 985.5 NA 0.0000 -RA 9999 4950 0 0 0
2019/10/24 14:22:00 BASE 21.12 37 31.28 34 5.0 81 2.0 87 0 985.5 NA 0.0000 -RA 9999 4560 0 0 0
2019/10/24 14:23:00 BASE 21.08 41 31.28 34 5.0 81 2.1 92 0 985.5 NA 0.0000 -RA 9999 5120 5740 0 0
2019/10/24 14:24:00 BASE 20.70 40 31.28 34 5.0 81 2.0 98 0 985.5 NA 0.0000 -RA 9999 5050 0 0 0
2019/10/24 14:25:00 BASE 21.89 39 31.28 34 5.0 81 2.0 101 0 985.4 NA 0.0000 -RA 9999 4820 6000 0 0
2019/10/24 14:26:00 BASE 23.39 40 29.73 33 5.1 81 2.1 102 0 985.3 NA 0.0000 -RA 9999 4460 0 0 0
2019/10/24 14:27:00 BASE 22.80 40 29.73 33 5.1 81 2.1 102 0 985.4 NA 0.0000 -RA 9999 5970 0 0 0
2019/10/24 14:28:00 BASE 23.04 41 29.73 33 5.0 81 2.0 106 0 985.4 NA 0.0000 -RA 9999 4890 5710 0 0
2019/10/24 14:29:00 BASE 23.03 41 29.73 33 5.0 81 2.0 107 0 985.5 NA 0.0000 -RA 9999 3940 0 0 0
2019/10/24 14:30:00 BASE 20.57 44 29.73 33 5.0 81 2.0 108 0 985.7 NA 0.0000 -RA 9999 3940 4790 0 0
2019/10/24 14:31:00 BASE 17.79 47 29.73 33 5.0 81 2.0 111 0 985.8 NA 0.0000 -RA 9999 690 0 0 0
2019/10/24 14:32:00 BASE 17.56 52 29.73 33 4.9 81 1.9 116 0 985.8 NA 0.0000 -RA 9999 690 0 0 0
2019/10/24 14:33:00 BASE 18.77 54 29.73 33 4.9 80 1.8 121 0 985.7 NA 0.0000 -RA 9999 4040 0 0 0
2019/10/24 14:34:00 BASE 19.97 51 29.73 33 4.8 80 1.7 122 0 985.7 NA 0.0000 -RA 9999 5120 0 0 0
2019/10/24 14:35:00 BASE 18.90 52 28.35 45 4.8 80 1.6 120 0 985.8 NA 0.0000 -RA 9999 5770 0 0 0
2019/10/24 14:36:00 BASE 17.35 62 27.93 45 4.7 80 1.5 115 0 985.7 NA 0.0000 -RA 9999 4040 5770 0 0
2019/10/24 14:37:00 BASE 19.21 70 27.93 45 4.7 80 1.5 106 0 985.7 NA 0.0000 -RA 9999 4630 5710 0 0
2019/10/24 14:38:00 BASE 20.46 68 27.93 45 4.7 80 1.4 101 0 985.7 NA 0.0000 -RA 9999 5710 0 0 0
2019/10/24 14:39:00 BASE 18.69 64 23.82 61 4.7 80 1.4 99 0 986.0 NA 0.0000 -RA 9999 5640 0 0 0
2019/10/24 14:40:00 BASE 17.43 60 23.82 61 4.7 80 1.4 97 0 986.1 NA 0.0000 -RA 9999 5480 0 0 0
2019/10/24 14:41:00 BASE 15.90 54 23.82 61 4.8 80 1.6 99 0 986.2 NA 0.0000 -RA 9999 4400 5220 0 0
2019/10/24 14:42:00 BASE 12.99 54 23.82 61 5.0 79 1.6 98 0 986.2 NA 0.0000 9999 3940 0 0 0
2019/10/24 14:43:00 BASE 12.93 50 23.82 61 5.1 78 1.6 96 0 986.1 NA 0.0000 9999 4400 0 0 0
2019/10/24 14:44:00 BASE 16.22 44 23.82 61 5.2 77 1.6 102 0 986.0 NA 0.0000 9999 4230 0 0 0
2019/10/24 14:45:00 BASE 16.75 41 23.82 61 5.3 76 1.5 108 0 986.0 NA 0.0000 9999 4200 0 0 0
2019/10/24 14:46:00 BASE 15.29 45 23.82 61 5.3 75 1.3 112 0 986.1 NA 0.0000 9999 4200 0 0 0
2019/10/24 14:47:00 BASE 14.65 61 23.82 61 5.4 75 1.2 118 0 986.2 NA 0.0000 9999 4230 0 0 0
2019/10/24 14:48:00 BASE 13.79 72 22.38 31 5.4 74 1.2 120 0 986.3 NA 0.0000 9999 4300 5380 0 0
2019/10/24 14:49:00 BASE 12.57 86 22.38 31 5.4 74 1.1 120 0 986.4 NA 0.0000 9999 4460 5410 0 0
2019/10/24 14:50:00 BASE 12.75 112 22.38 31 5.3 74 0.9 121 0 986.5 NA 0.0000 9999 4400 5050 0 0
2019/10/24 14:51:00 BASE 13.54 129 22.38 31 4.7 73 0.3 120 0 986.4 NA 0.0000 9999 4490 0 0 0
2019/10/24 14:52:00 BASE 19.54 132 30.61 135 4.0 73 -0.4 117 0 985.8 NA 0.0000 9999 5050 0 0 0
2019/10/24 14:53:00 BASE 22.94 131 30.61 135 3.2 74 -1.1 114 0 986.2 NA 0.0000 SQ 9999 4560 0 0 0
2019/10/24 14:54:00 BASE 20.35 128 30.61 135 2.3 75 -1.7 113 0 986.2 NA 0.0000 SQ 9999 3870 0 0 0
2019/10/24 14:55:00 BASE 19.73 126 30.61 135 1.6 76 -2.1 115 0 986.4 NA 0.0000 9999 4130 0 0 0
2019/10/24 14:56:00 BASE 20.98 126 30.61 135 1.2 79 -2.0 115 0 986.1 NA 0.0000 9999 4230 0 0 0
2019/10/24 14:57:00 BASE 23.01 124 30.61 135 1.1 81 -1.9 113 0 986.2 NA 0.0000 9999 4360 0 0 0
2019/10/24 14:58:00 BASE 24.14 124 30.61 135 1.0 82 -1.7 112 0 986.1 NA 0.0000 9999 4430 0 0 0
2019/10/24 14:59:00 BASE 24.35 130 30.61 135 0.9 84 -1.5 110 0 986.1 NA 0.0000 9999 3940 0 0 0
2019/10/24 15:00:00 BASE 21.58 134 30.61 135 1.0 85 -1.3 113 0 986.3 NA 0.0000 9999 4000 0 0 0
2019/10/24 15:01:00 BASE 23.11 133 32.41 116 1.0 85 -1.2 117 0 985.8 NA 0.0000 9999 3610 4360 0 0
2019/10/24 15:02:00 BASE 24.46 130 32.41 116 1.1 86 -1.0 115 0 986.2 NA 0.2540 9999 3670 0 0 0
2019/10/24 15:03:00 BASE 20.42 131 32.41 116 1.2 86 -0.9 115 0 986.4 NA 0.0000 9999 3670 0 0 0
2019/10/24 15:04:00 BASE 20.80 130 32.41 116 1.3 86 -0.8 115 0 986.2 NA 0.0000 9999 3670 4330 0 0
2019/10/24 15:05:00 BASE 22.51 128 32.41 116 1.3 86 -0.8 110 0 986.4 NA 0.0000 9999 3710 0 0 0
2019/10/24 15:06:00 BASE 22.34 130 32.41 116 1.3 86 -0.8 107 0 986.1 NA 0.0000 9999 3740 0 0 0
2019/10/24 15:07:00 BASE 22.15 131 32.41 116 1.2 86 -0.8 103 0 986.2 NA 0.0000 9999 3770 0 0 0
2019/10/24 15:08:00 BASE 21.51 134 32.41 116 1.2 86 -0.9 103 0 985.9 NA 0.0000 9999 3480 0 0 0
2019/10/24 15:09:00 BASE 26.04 135 32.46 125 1.2 86 -0.9 99 0 985.4 NA 0.0000 9999 3540 0 0 0
2019/10/24 15:10:00 BASE 30.62 133 32.82 130 1.3 86 -0.9 98 0 985.5 NA 0.0000 SQ 9999 3480 0 0 0
2019/10/24 15:11:00 BASE 28.64 132 32.82 130 1.3 85 -0.9 97 0 985.8 NA 0.0000 SQ 9999 3540 0 0 0
2019/10/24 15:12:00 BASE 24.66 131 32.82 130 1.4 85 -0.9 96 0 986.3 NA 0.0000 9999 3350 0 0 0
2019/10/24 15:13:00 BASE 23.28 134 32.82 130 1.4 85 -0.8 98 0 986.1 NA 0.0000 9999 3480 0 0 0
2019/10/24 15:14:00 BASE 20.33 127 32.82 130 1.5 85 -0.8 100 0 986.5 NA 0.0000 9999 3410 0 0 0
2019/10/24 15:15:00 BASE 19.45 107 32.82 130 1.5 84 -0.8 101 0 986.7 NA 0.0000 9000 3740 0 0 0
2019/10/24 15:16:00 BASE 22.43 105 32.82 130 1.5 84 -0.9 103 0 986.5 NA 0.0000 9000 3940 0 0 0
2019/10/24 15:17:00 BASE 23.81 117 32.82 130 1.6 84 -0.9 107 0 986.3 NA 0.0000 9000 3940 0 0 0
2019/10/24 15:18:00 BASE 20.69 119 32.82 130 1.6 83 -0.9 111 0 986.7 NA 0.0000 6000 4100 0 0 0
2019/10/24 15:19:00 BASE 16.86 120 32.82 130 1.6 83 -1.0 112 0 986.5 NA 0.0000 HZ 7000 4170 0 0 0
2019/10/24 15:20:00 BASE 19.15 119 30.40 127 1.6 83 -1.0 113 0 986.4 NA 0.0000 HZ 7000 4170 0 0 0
2019/10/24 15:21:00 BASE 21.72 114 29.94 131 1.6 83 -0.9 113 0 986.5 NA 0.0000 HZ 6000 4130 0 0 0
2019/10/24 15:22:00 BASE 23.25 114 29.94 131 1.6 83 -0.9 114 0 986.3 NA 0.0000 HZ 5000 4100 0 0 0
2019/10/24 15:23:00 BASE 23.20 113 29.94 131 1.7 83 -0.9 119 0 986.3 NA 0.0000 UP 5000 4330 0 0 0
2019/10/24 15:24:00 BASE 20.97 112 29.94 131 1.7 83 -0.9 118 0 986.5 NA 0.0000 HZ 6000 4170 0 0 0
2019/10/24 15:25:00 BASE 20.39 118 29.94 131 1.8 83 -0.9 119 0 986.1 NA 0.0000 HZ 7000 4230 0 0 0
2019/10/24 15:26:00 BASE 20.83 119 29.94 131 1.8 82 -0.9 115 0 986.1 NA 0.0000 HZ 8000 4200 0 0 0
2019/10/24 15:27:00 BASE 18.35 114 27.93 113 1.8 82 -0.9 115 0 986.5 NA 0.0000 HZ 8000 3900 0 0 0
2019/10/24 15:28:00 BASE 17.13 105 27.93 113 1.9 82 -0.9 114 0 986.5 NA 0.0000 HZ 9000 2490 0 0 0
2019/10/24 15:29:00 BASE 21.61 108 27.93 113 1.9 82 -0.9 117 0 986.4 NA 0.0000 HZ 9999 2590 3870 0 0
2019/10/24 15:30:00 BASE 24.50 119 27.93 113 1.9 82 -0.8 116 0 986.5 NA 0.0000 HZ SQ 9999 2850 0 0 0
2019/10/24 15:31:00 BASE 20.54 117 27.93 113 2.0 82 -0.8 117 0 986.7 NA 0.0000 HZ 9999 3250 0 0 0
2019/10/24 15:32:00 BASE 16.19 113 27.83 124 2.0 82 -0.8 119 0 986.7 NA 0.0000 HZ 9999 3770 23130 0 0
2019/10/24 15:33:00 BASE 17.39 113 27.83 124 2.0 81 -0.9 120 0 986.6 NA 0.0000 HZ 9000 3710 0 0 0
2019/10/24 15:34:00 BASE 22.38 116 31.12 120 1.9 81 -1.0 121 0 986.2 NA 0.0000 HZ 7000 3900 4330 0 0
2019/10/24 15:35:00 BASE 25.62 120 31.12 120 1.8 81 -1.1 123 0 986.2 NA 0.0000 HZ SQ 6000 4070 22570 0 0
2019/10/24 15:36:00 BASE 25.50 125 31.12 120 1.7 82 -1.0 123 0 986.1 NA 0.0000 UP SQ 5000 4170 0 0 0
2019/10/24 15:37:00 BASE 24.73 129 31.12 120 1.8 83 -0.9 121 0 986.1 NA 0.0000 UP 4900 4170 0 0 0
2019/10/24 15:38:00 BASE 20.31 125 31.12 120 1.8 83 -0.8 121 0 986.4 NA 0.0000 UP 5000 4200 0 0 0
2019/10/24 15:39:00 BASE 17.03 118 31.12 120 1.9 83 -0.7 125 0 986.4 NA 0.0000 UP 5000 4200 0 0 0
2019/10/24 15:40:00 BASE 18.61 114 31.12 120 1.9 83 -0.6 124 0 986.4 NA 0.0000 UP 5000 4170 0 0 0
2019/10/24 15:41:00 BASE 20.68 110 31.12 120 2.0 83 -0.6 125 0 986.3 NA 0.0000 UP 5000 4000 0 0 0
2019/10/24 15:42:00 BASE 22.64 114 31.12 120 2.1 82 -0.6 125 0 986.2 NA 0.0000 UP 5000 3970 0 0 0
2019/10/24 15:43:00 BASE 20.56 120 31.12 120 2.1 82 -0.7 127 0 986.1 NA 0.0000 UP 5000 4100 0 0 0
2019/10/24 15:44:00 BASE 16.42 118 31.07 95 2.1 82 -0.7 132 0 986.4 NA 0.0000 UP 5000 4040 0 0 0
2019/10/24 15:45:00 BASE 17.76 123 31.07 95 2.0 82 -0.8 137 0 986.2 NA 0.0000 UP 6000 4070 0 0 0
2019/10/24 15:46:00 BASE 23.78 130 31.07 95 1.9 82 -0.9 140 0 985.9 NA 0.0000 UP 6000 4130 0 0 0
2019/10/24 15:47:00 BASE 26.02 123 31.07 95 1.8 82 -1.0 143 0 986.3 NA 0.0000 UP SQ 7000 3940 0 0 0
2019/10/24 15:48:00 BASE 20.31 117 31.07 95 1.7 82 -1.0 141 0 986.7 NA 0.0000 UP 7000 4000 0 0 0
2019/10/24 15:49:00 BASE 14.55 119 31.07 95 1.7 83 -1.0 137 0 986.5 NA 0.0000 UP 8000 3770 0 0 0
2019/10/24 15:50:00 BASE 19.85 126 31.07 95 1.6 83 -1.0 130 0 986.0 NA 0.0000 UP 9000 4170 0 0 0
2019/10/24 15:51:00 BASE 26.13 123 31.07 95 1.5 83 -1.0 129 0 986.2 NA 0.0000 HZ SQ 8000 4040 0 0 0
2019/10/24 15:52:00 BASE 23.32 120 30.76 122 1.5 83 -1.0 131 0 986.3 NA 0.0000 HZ SQ 8000 4000 0 0 0
2019/10/24 15:53:00 BASE 21.73 122 30.76 122 1.5 84 -1.0 131 0 986.1 NA 0.0000 HZ 8000 4100 18930 0 0
2019/10/24 15:54:00 BASE 23.97 123 30.76 122 1.5 84 -0.9 131 0 986.1 NA 0.0000 HZ 7000 4040 0 0 0
2019/10/24 15:55:00 BASE 23.66 125 30.76 122 1.5 85 -0.8 129 0 986.3 NA 0.0000 HZ 5000 4130 0 0 0
2019/10/24 15:56:00 BASE 23.77 128 29.37 117 1.6 85 -0.7 131 0 986.0 NA 0.0000 HZ 5000 4130 0 0 0
2019/10/24 15:57:00 BASE 24.89 132 29.37 117 1.6 85 -0.7 134 0 985.9 NA 0.0000 HZ 6000 4130 0 0 0
2019/10/24 15:58:00 BASE 24.10 133 29.37 117 1.6 85 -0.7 137 0 986.0 NA 0.0000 HZ 7000 4430 0 0 0
2019/10/24 15:59:00 BASE 22.25 129 29.37 117 1.6 85 -0.6 141 0 986.3 NA 0.0000 UP BR 6000 4430 4990 0 0
2019/10/24 16:00:00 BASE 19.88 127 29.37 117 1.7 85 -0.5 144 0 986.4 NA 0.0000 UP BR 4400 4990 0 0 0
2019/10/24 16:01:00 BASE 19.44 125 28.04 133 1.7 85 -0.5 145 0 986.4 NA 0.0000 UP BR 4400 4300 0 0 0
2019/10/24 16:02:00 BASE 18.07 120 28.04 133 1.8 85 -0.4 144 0 986.6 NA 0.0000 UP BR 3200 3900 4530 0 0
2019/10/24 16:03:00 BASE 15.47 106 28.04 133 1.9 86 -0.2 150 0 986.7 NA 0.0000 UP BR 1700 3900 0 0 0
2019/10/24 16:04:00 BASE 13.48 100 28.04 133 2.1 86 0.0 157 0 986.8 NA 0.0000 UP BR 1600 4400 0 0 0
2019/10/24 16:05:00 BASE 12.95 109 28.04 133 2.3 87 0.3 156 0 986.8 NA 0.0000 UP BR 1600 3740 0 0 0
2019/10/24 16:06:00 BASE 11.86 108 28.04 133 2.4 87 0.5 152 0 986.9 NA 0.0000 UP BR 1600 4560 0 0 0
2019/10/24 16:07:00 BASE 9.44 99 26.80 128 2.5 87 0.6 145 0 987.0 NA 0.0000 UP BR 1600 4300 0 0 0
2019/10/24 16:08:00 BASE 10.69 87 25.77 121 2.6 88 0.8 138 0 986.9 NA 0.0000 UP BR 1600 4270 0 0 0
2019/10/24 16:09:00 BASE 12.71 81 21.92 124 2.7 88 0.9 133 0 987.0 NA 0.0000 UP BR 1600 4460 0 0 0
2019/10/24 16:10:00 BASE 14.03 76 21.86 130 2.9 88 1.1 126 0 987.0 NA 0.0000 UP BR 1600 4460 0 0 0
2019/10/24 16:11:00 BASE 14.61 69 19.29 64 3.1 89 1.5 120 0 987.0 NA 0.0000 UP BR 1800 4230 0 0 0
2019/10/24 16:12:00 BASE 13.66 75 19.29 64 3.4 89 1.8 123 0 987.0 NA 0.0000 UP BR 3400 4300 0 0 0
2019/10/24 16:13:00 BASE 12.66 76 19.29 64 3.6 89 2.1 128 0 987.1 NA 0.0000 UP BR 3400 4200 0 0 0
2019/10/24 16:14:00 BASE 12.28 70 19.29 64 3.8 89 2.2 131 0 987.0 NA 0.0000 BR 3400 4100 0 0 0
2019/10/24 16:15:00 BASE 13.57 65 19.29 64 3.9 89 2.3 141 0 987.0 NA 0.0000 BR 3400 3900 0 0 0
2019/10/24 16:16:00 BASE 14.36 68 19.29 64 4.0 88 2.2 157 0 987.0 NA 0.0000 BR 3400 4360 0 0 0
2019/10/24 16:17:00 BASE 14.90 64 19.29 50 4.0 88 2.2 165 0 987.0 NA 0.0000 UP BR 3400 4300 0 0 0
2019/10/24 16:18:00 BASE 14.87 56 19.29 50 4.1 87 2.1 164 0 987.0 NA 0.0000 UP BR 3400 4460 0 0 0
2019/10/24 16:19:00 BASE 13.75 58 19.29 50 4.1 87 2.1 165 0 987.0 NA 0.0000 BR 3900 4490 0 0 0
2019/10/24 16:20:00 BASE 13.47 55 19.45 47 4.1 86 2.0 174 0 986.9 NA 0.0000 BR 7000 4630 0 0 0
2019/10/24 16:21:00 BASE 15.58 49 20.11 51 4.1 86 2.0 184 0 986.8 NA 0.0000 BR 7000 3810 4330 0 0
2019/10/24 16:22:00 BASE 16.34 49 20.11 51 4.1 86 1.9 192 0 986.9 NA 0.0000 -RA BR 7000 4270 0 0 0
2019/10/24 16:23:00 BASE 16.05 53 20.11 51 4.1 86 1.9 186 0 986.8 NA 0.0000 -RA BR 8000 4360 0 0 0
2019/10/24 16:24:00 BASE 17.60 55 21.97 45 4.1 86 1.9 178 0 986.7 NA 0.0000 -RA BR 9000 4560 0 0 0
2019/10/24 16:25:00 BASE 19.53 48 22.64 28 4.0 86 1.9 167 0 986.6 NA 0.0000 -RA BR 9999 4460 0 0 0
2019/10/24 16:26:00 BASE 19.21 39 22.64 28 4.0 86 1.9 165 0 986.7 NA 0.0000 -RA BR 9999 4330 0 0 0
2019/10/24 16:27:00 BASE 15.15 38 22.64 28 3.9 87 1.9 172 0 986.8 NA 0.0000 -RA BR 9999 4270 0 0 0
2019/10/24 16:28:00 BASE 10.97 42 22.64 28 3.9 87 1.9 178 0 986.8 NA 0.0000 -RA BR 9999 4400 0 0 0
2019/10/24 16:29:00 BASE 11.61 40 22.64 28 3.8 87 1.9 178 0 986.7 NA 0.0000 -RA BR 9999 4200 0 0 0
2019/10/24 16:30:00 BASE 16.09 41 22.64 28 3.8 88 1.9 172 0 986.7 NA 0.0000 -RA BR 9999 4200 0 0 0
2019/10/24 16:31:00 BASE 18.33 42 22.64 28 3.8 88 2.0 173 0 986.6 NA 0.0000 -RA 9999 4300 0 0 0
2019/10/24 16:32:00 BASE 18.97 35 24.85 20 3.8 89 2.1 177 0 986.6 NA 0.0000 9999 4630 0 0 0
2019/10/24 16:33:00 BASE 20.31 31 24.85 20 3.8 89 2.2 192 0 986.4 NA 0.0000 9999 4760 0 0 0
2019/10/24 16:34:00 BASE 22.33 32 26.70 36 3.9 89 2.3 201 0 986.4 NA 0.0000 9999 4950 0 0 0
2019/10/24 16:35:00 BASE 24.55 33 29.07 31 4.0 89 2.4 208 0 986.2 NA 0.0000 9999 3480 4720 0 0
2019/10/24 16:36:00 BASE 23.87 33 29.07 31 4.0 89 2.4 211 0 986.3 NA 0.0000 9999 3410 5020 0 0
2019/10/24 16:37:00 BASE 22.72 31 29.07 31 4.0 89 2.3 208 0 986.3 NA 0.0000 9999 4990 0 0 0
2019/10/24 16:38:00 BASE 23.63 34 29.07 31 4.0 89 2.3 200 0 986.4 NA 0.0000 9999 4950 0 0 0
2019/10/24 16:39:00 BASE 23.61 34 31.43 36 4.0 89 2.3 198 0 986.2 NA 0.0000 9999 4920 0 0 0
2019/10/24 16:40:00 BASE 25.94 35 33.64 47 3.9 89 2.2 204 0 986.1 NA 0.0000 9999 4660 0 0 0
2019/10/24 16:41:00 BASE 28.10 38 33.64 47 3.9 88 2.2 210 0 986.2 NA 0.0000 9000 4530 5090 0 0
2019/10/24 16:42:00 BASE 27.29 33 33.64 47 3.9 88 2.2 225 0 986.0 NA 0.0000 9999 4460 4790 0 0
2019/10/24 16:43:00 BASE 26.58 25 33.64 47 4.0 88 2.2 243 0 986.3 NA 0.0000 9999 4360 0 0 0
2019/10/24 16:44:00 BASE 24.38 24 33.64 47 4.0 88 2.2 252 0 986.4 NA 0.0000 9999 4760 0 0 0
2019/10/24 16:45:00 BASE 23.00 24 33.64 47 4.0 88 2.2 258 0 986.4 NA 0.0000 9999 4690 0 0 0
2019/10/24 16:46:00 BASE 24.19 27 33.64 47 4.0 88 2.2 258 0 986.3 NA 0.0000 9999 3380 4330 0 0
2019/10/24 16:47:00 BASE 24.50 30 33.64 47 4.0 88 2.2 254 0 986.3 NA 0.0000 9999 3410 0 0 0
2019/10/24 16:48:00 BASE 25.73 31 33.64 47 4.0 88 2.2 274 0 986.3 NA 0.0000 9999 4070 4790 0 0
2019/10/24 16:49:00 BASE 27.22 32 33.64 47 4.0 88 2.1 258 0 986.2 NA 0.0000 9999 4400 0 0 0
2019/10/24 16:50:00 BASE 27.18 33 33.64 47 4.0 87 2.1 251 0 986.3 NA 0.0000 9999 4270 4790 0 0
2019/10/24 16:51:00 BASE 27.02 32 29.94 31 4.1 87 2.1 262 0 986.4 NA 0.0000 9999 3710 0 0 0
2019/10/24 16:52:00 BASE 24.43 29 29.94 31 4.1 87 2.1 290 0 986.6 NA 0.0000 9999 3710 0 0 0
2019/10/24 16:53:00 BASE 23.64 29 29.73 38 4.1 86 2.1 448 0 986.5 NA 0.0000 9999 3180 4530 0 0
2019/10/24 16:54:00 BASE 24.49 27 29.73 38 4.2 86 2.1 426 0 986.6 NA 0.0000 9999 4690 0 0 0
2019/10/24 16:55:00 BASE 24.10 24 29.73 38 4.2 86 2.0 490 0 986.6 NA 0.0000 9999 4660 0 0 0
2019/10/24 16:56:00 BASE 23.68 25 29.73 38 4.2 86 2.0 406 0 986.7 NA 0.0000 9999 4630 0 0 0
2019/10/24 16:57:00 BASE 21.85 24 29.73 38 4.2 85 2.0 400 0 986.7 NA 0.0000 9999 5510 0 0 0
2019/10/24 16:58:00 BASE 21.35 27 29.73 38 4.3 85 2.0 371 0 986.7 NA 0.0000 9999 3020 6170 0 0
2019/10/24 16:59:00 BASE 22.09 29 29.73 38 4.3 85 2.0 387 0 986.7 NA 0.0000 9999 2990 4760 0 0
2019/10/24 17:00:00 BASE 21.56 26 28.35 28 4.3 85 2.0 365 0 986.8 NA 0.0000 9999 3050 0 0 0
2019/10/24 17:01:00 BASE 20.90 25 28.09 25 4.3 85 2.0 360 0 986.8 NA 0.0000 9999 3050 0 0 0
2019/10/24 17:02:00 BASE 22.24 25 28.09 25 4.2 85 1.9 347 0 986.7 NA 0.0000 9999 3310 0 0 0
2019/10/24 17:03:00 BASE 23.47 26 27.16 26 4.2 85 1.9 343 0 986.7 NA 0.0000 9999 3180 4170 0 0
2019/10/24 17:04:00 BASE 23.60 24 27.16 26 4.2 85 1.9 336 0 986.7 NA 0.0000 9999 3150 4000 20210 0
2019/10/24 17:05:00 BASE 23.07 22 26.44 19 4.2 85 1.9 324 0 986.7 NA 0.0000 9999 4040 4430 0 0
2019/10/24 17:06:00 BASE 22.11 22 26.44 19 4.2 85 1.9 305 0 986.6 NA 0.0000 9999 3350 4530 0 0
2019/10/24 17:07:00 BASE 21.35 25 26.44 19 4.2 85 1.9 296 0 986.8 NA 0.0000 9999 3120 0 0 0
2019/10/24 17:08:00 BASE 21.50 27 26.44 19 4.1 85 1.8 288 0 986.8 NA 0.0000 9999 3450 4590 0 0
2019/10/24 17:09:00 BASE 22.23 26 26.44 19 4.1 85 1.8 283 0 986.8 NA 0.0000 9999 3120 4100 22800 0
2019/10/24 17:10:00 BASE 23.94 24 27.73 21 4.1 85 1.8 291 0 986.7 NA 0.0000 9999 3080 4170 0 0
2019/10/24 17:11:00 BASE 24.66 23 27.73 21 4.1 85 1.9 293 0 986.8 NA 0.0000 9999 3150 3940 5020 0
2019/10/24 17:12:00 BASE 23.13 23 27.73 21 4.1 85 1.9 351 0 986.8 NA 0.0000 9999 4360 0 0 0
2019/10/24 17:13:00 BASE 23.43 26 27.73 21 4.2 85 2.0 542 0 986.7 NA 0.0000 9999 3180 4070 0 0
2019/10/24 17:14:00 BASE 23.97 29 27.73 21 4.3 85 2.0 612 0 986.7 NA 0.0000 9999 4040 5510 0 0
2019/10/24 17:15:00 BASE 24.01 30 27.73 21 4.3 85 2.0 630 0 986.7 NA 0.0000 9999 4100 20540 0 0
2019/10/24 17:16:00 BASE 25.13 29 29.79 33 4.4 84 2.0 694 0 986.6 NA 0.0000 9999 5740 0 0 0
2019/10/24 17:17:00 BASE 24.90 29 29.79 33 4.4 84 2.0 766 0 986.7 NA 0.0000 9999 7380 0 0 0
2019/10/24 17:18:00 BASE 24.42 28 29.79 33 4.4 84 1.9 781 0 986.6 NA 0.0000 9999 5840 6370 0 0
2019/10/24 17:19:00 BASE 25.69 27 29.79 33 4.5 84 1.9 724 0 986.6 NA 0.0000 9999 5710 6500 0 0
2019/10/24 17:20:00 BASE 26.93 25 29.79 33 4.5 83 1.9 534 0 986.6 NA 0.0000 9999 6400 0 0 0
2019/10/24 17:21:00 BASE 26.25 22 29.79 33 4.5 83 1.9 450 0 986.7 NA 0.0000 9999 4690 6660 7350 0
2019/10/24 17:22:00 BASE 24.92 22 29.79 33 4.4 83 1.8 570 0 986.7 NA 0.0000 9999 4660 7190 0 0
2019/10/24 17:23:00 BASE 25.23 27 29.79 33 4.4 83 1.8 604 0 986.7 NA 0.0000 9999 4630 6960 0 0
2019/10/24 17:24:00 BASE 26.55 31 32.51 30 4.4 83 1.8 733 0 986.6 NA 0.0000 9999 4890 6330 0 0
2019/10/24 17:25:00 BASE 26.81 30 32.51 30 4.4 83 1.8 483 0 986.7 NA 0.0000 9999 5610 6170 0 0
2019/10/24 17:26:00 BASE 25.72 28 32.51 30 4.4 83 1.8 506 0 986.7 NA 0.0000 9999 7510 0 0 0
2019/10/24 17:27:00 BASE 25.48 29 32.51 30 4.4 83 1.8 410 0 986.7 NA 0.0000 9999 4720 6960 0 0
2019/10/24 17:28:00 BASE 24.23 27 32.51 30 4.4 83 1.8 402 0 986.8 NA 0.0000 9999 4530 0 0 0
2019/10/24 17:29:00 BASE 23.20 27 32.51 30 4.3 83 1.7 403 0 986.8 NA 0.0000 9999 4630 7380 0 0
2019/10/24 17:30:00 BASE 23.78 29 32.51 30 4.3 83 1.7 367 0 986.8 NA 0.0000 9999 6230 7150 0 0
2019/10/24 17:31:00 BASE 24.13 28 32.51 30 4.3 83 1.7 332 0 986.9 NA 0.0000 9999 5610 6040 0 0
2019/10/24 17:32:00 BASE 24.89 28 32.51 30 4.2 84 1.7 392 0 986.9 NA 0.0000 9999 6170 0 0 0
2019/10/24 17:33:00 BASE 24.53 29 32.51 30 4.2 84 1.7 565 0 987.0 NA 0.0000 9999 5580 6630 0 0
2019/10/24 17:34:00 BASE 23.85 30 29.37 37 4.2 84 1.8 521 0 986.9 NA 0.0000 9999 5090 6140 0 0
2019/10/24 17:35:00 BASE 23.43 30 29.27 31 4.3 84 1.8 488 0 987.0 NA 0.0000 9999 5150 21330 22210 0
2019/10/24 17:36:00 BASE 23.96 29 29.63 34 4.3 84 1.8 504 0 986.9 NA 0.0000 9999 4100 5150 5970 0
2019/10/24 17:37:00 BASE 25.59 30 29.63 34 4.3 83 1.7 348 0 987.0 NA 0.0000 9999 5180 5540 5970 0
2019/10/24 17:38:00 BASE 24.20 31 29.63 34 4.3 83 1.7 447 0 987.1 NA 0.0000 9999 5480 0 0 0
2019/10/24 17:39:00 BASE 22.36 30 29.63 34 4.3 83 1.7 354 0 987.2 NA 0.0000 9999 5280 6040 0 0
2019/10/24 17:40:00 BASE 21.05 27 29.63 34 4.3 83 1.7 350 0 987.2 NA 0.0000 9999 5280 6070 0 0
2019/10/24 17:41:00 BASE 20.80 27 29.63 34 4.3 83 1.6 552 0 987.2 NA 0.0000 9999 3020 3710 4920 0
2019/10/24 17:42:00 BASE 21.32 24 29.63 34 4.3 83 1.6 345 0 987.3 NA 0.0000 9999 5250 7280 0 0
2019/10/24 17:43:00 BASE 20.16 21 29.63 34 4.2 83 1.6 445 0 987.3 NA 0.0000 9999 5480 7320 0 0
2019/10/24 17:44:00 BASE 20.46 25 29.63 34 4.2 83 1.6 630 0 987.2 NA 0.0000 9999 5380 7380 0 0
2019/10/24 17:45:00 BASE 21.64 25 29.63 34 4.2 84 1.7 704 0 987.2 NA 0.0000 9999 5150 0 0 0
2019/10/24 17:46:00 BASE 22.58 23 28.35 32 4.3 84 1.8 416 0 987.2 NA 0.0000 9999 7220 0 0 0
2019/10/24 17:47:00 BASE 23.16 26 25.88 25 4.3 84 1.8 393 0 987.2 NA 0.0000 9999 0 0 0 0
2019/10/24 17:48:00 BASE 21.86 28 26.13 30 4.3 83 1.8 387 0 987.3 NA 0.0000 9999 4360 7510 0 0
2019/10/24 17:49:00 BASE 22.28 28 27.01 22 4.3 83 1.7 373 0 987.0 NA 0.0000 9999 3510 4400 7450 0
2019/10/24 17:50:00 BASE 23.14 29 27.01 22 4.3 83 1.6 344 0 987.3 NA 0.0000 9999 4530 0 0 0
2019/10/24 17:51:00 BASE 21.93 29 27.01 22 4.3 82 1.5 305 0 987.4 NA 0.0000 9999 4360 0 0 0
2019/10/24 17:52:00 BASE 21.96 27 27.01 22 4.3 82 1.5 281 0 987.4 NA 0.0000 9999 4040 19030 21230 0
2019/10/24 17:53:00 BASE 22.64 28 27.01 22 4.3 82 1.5 276 0 987.4 NA 0.0000 9999 4330 0 0 0
2019/10/24 17:54:00 BASE 21.50 26 27.01 22 4.3 82 1.5 271 0 987.5 NA 0.0000 9999 4270 0 0 0
2019/10/24 17:55:00 BASE 20.39 27 27.01 22 4.3 82 1.5 274 0 987.6 NA 0.0000 9999 4000 0 0 0
2019/10/24 17:56:00 BASE 20.43 26 27.01 22 4.3 82 1.5 279 0 987.5 NA 0.0000 9999 3870 0 0 0
2019/10/24 17:57:00 BASE 20.93 25 27.01 22 4.3 82 1.5 278 0 987.5 NA 0.0000 9999 3810 19950 21200 0
2019/10/24 17:58:00 BASE 21.45 28 27.01 22 4.2 82 1.5 268 0 987.5 NA 0.0000 9999 3840 0 0 0
2019/10/24 17:59:00 BASE 21.67 28 26.24 26 4.2 83 1.5 261 0 987.5 NA 0.0000 9999 3770 4300 0 0
2019/10/24 18:00:00 BASE 22.04 26 26.03 28 4.2 83 1.5 276 0 987.5 NA 0.0000 9999 4430 0 0 0
2019/10/24 18:01:00 BASE 22.95 25 26.34 29 4.1 83 1.5 285 0 987.4 NA 0.0000 9999 4300 0 0 0
2019/10/24 18:02:00 BASE 22.73 25 26.34 29 4.1 83 1.5 285 0 987.4 NA 0.0000 9999 4330 0 0 0
2019/10/24 18:03:00 BASE 22.34 26 26.34 29 4.1 84 1.5 293 0 987.4 NA 0.0000 9999 3810 4300 0 0
2019/10/24 18:04:00 BASE 22.00 27 26.34 29 4.1 84 1.6 301 0 987.6 NA 0.0000 9999 3710 4300 0 0
2019/10/24 18:05:00 BASE 21.23 25 26.34 29 4.1 84 1.6 316 0 987.6 NA 0.0000 9999 3610 0 0 0
2019/10/24 18:06:00 BASE 21.24 25 26.34 29 4.1 84 1.7 326 0 987.6 NA 0.0000 9999 3670 0 0 0
2019/10/24 18:07:00 BASE 20.98 26 26.34 29 4.1 84 1.7 318 0 987.7 NA 0.0000 9999 3640 4170 0 0
2019/10/24 18:08:00 BASE 21.26 23 26.34 29 4.1 84 1.7 312 0 987.6 NA 0.0000 9999 3710 4490 17850 0
2019/10/24 18:09:00 BASE 20.86 22 26.34 29 4.1 84 1.7 307 0 987.7 NA 0.0000 9999 3640 0 0 0
2019/10/24 18:10:00 BASE 20.58 26 26.34 29 4.2 84 1.7 299 0 987.8 NA 0.0000 9999 3710 0 0 0
2019/10/24 18:11:00 BASE 21.09 30 25.00 25 4.2 84 1.7 288 0 987.8 NA 0.0000 9999 3480 0 0 0
2019/10/24 18:12:00 BASE 22.22 25 25.00 25 4.1 84 1.7 274 0 987.7 NA 0.0000 9999 3510 4170 0 0
2019/10/24 18:13:00 BASE 21.86 18 25.00 25 4.1 84 1.7 269 0 987.8 NA 0.0000 9999 4200 0 0 0
2019/10/24 18:14:00 BASE 19.40 17 25.00 25 4.1 84 1.6 277 0 987.9 NA 0.0000 9999 3870 0 0 0
2019/10/24 18:15:00 BASE 18.49 18 24.80 27 4.1 84 1.6 289 0 987.9 NA 0.0000 9999 3020 3410 4040 0
2019/10/24 18:16:00 BASE 18.71 20 24.80 27 4.0 84 1.6 292 0 987.9 NA 0.0000 9999 3350 4040 0 0
2019/10/24 18:17:00 BASE 18.12 22 24.80 27 4.0 85 1.7 293 0 987.9 NA 0.0000 9999 4070 4660 0 0
2019/10/24 18:18:00 BASE 17.96 22 24.80 27 4.0 85 1.7 295 0 987.9 NA 0.0000 9999 4100 4460 0 0
2019/10/24 18:19:00 BASE 18.84 22 24.80 27 4.0 85 1.7 295 0 987.9 NA 0.0000 9999 4330 4860 0 0
2019/10/24 18:20:00 BASE 20.05 22 24.13 22 4.0 85 1.7 286 0 987.9 NA 0.0000 9999 4760 0 0 0
2019/10/24 18:21:00 BASE 21.20 21 24.13 22 4.0 85 1.7 283 0 988.0 NA 0.0000 9999 4200 4690 0 0
2019/10/24 18:22:00 BASE 21.26 20 23.97 20 4.0 85 1.7 289 0 987.9 NA 0.0000 9999 3940 4400 0 0
2019/10/24 18:23:00 BASE 20.12 21 23.97 20 4.0 85 1.7 291 0 988.1 NA 0.0000 9999 3640 0 0 0
2019/10/24 18:24:00 BASE 19.12 22 23.97 20 3.9 85 1.7 296 0 988.1 NA 0.0000 9999 3740 0 0 0
2019/10/24 18:25:00 BASE 19.81 23 23.97 20 3.9 86 1.7 317 0 987.9 NA 0.0000 9999 3710 0 0 0
2019/10/24 18:26:00 BASE 20.35 23 24.08 26 3.9 86 1.7 330 0 988.1 NA 0.0000 9999 3870 0 0 0
2019/10/24 18:27:00 BASE 20.29 23 24.08 26 3.9 86 1.8 347 0 988.1 NA 0.0000 9999 4330 0 0 0
2019/10/24 18:28:01 BASE 20.27 21 24.08 26 3.9 86 1.8 363 0 988.2 NA 0.0000 9999 4000 0 0 0
2019/10/24 18:29:01 BASE 19.58 18 24.08 26 3.9 86 1.8 355 0 988.1 NA 0.0000 9999 3970 4630 0 0
2019/10/24 18:30:01 BASE 19.64 19 24.08 26 3.9 86 1.8 353 0 988.1 NA 0.0000 9999 3870 0 0 0
2019/10/24 18:31:01 BASE 19.10 21 24.08 26 3.8 87 1.8 331 0 988.1 NA 0.0000 9999 3770 0 0 0
2019/10/24 18:32:01 BASE 18.33 23 24.08 26 3.8 87 1.8 290 0 988.1 NA 0.0000 9999 3640 0 0 0
2019/10/24 18:33:01 BASE 18.70 24 24.08 26 3.8 87 1.9 259 0 988.1 NA 0.0000 9999 4530 5350 0 0
2019/10/24 18:34:01 BASE 19.42 26 24.08 26 3.8 87 1.9 235 0 988.1 NA 0.0000 9999 5320 0 0 0
2019/10/24 18:35:01 BASE 19.51 24 24.08 26 3.8 87 1.9 214 0 988.1 NA 0.0000 9999 5410 0 0 0
2019/10/24 18:36:01 BASE 20.06 23 23.56 25 3.8 87 1.8 205 0 988.1 NA 0.0000 9999 0 0 0 0
2019/10/24 18:37:01 BASE 20.92 23 23.56 25 3.8 87 1.8 202 0 988.1 NA 0.0000 9999 3250 5410 0 0
2019/10/24 18:38:01 BASE 20.47 21 23.56 25 3.7 87 1.8 208 0 988.1 NA 0.0000 9999 2920 0 0 0
2019/10/24 18:39:01 BASE 18.98 19 23.56 25 3.7 87 1.8 205 0 988.2 NA 0.0000 9999 2660 0 0 0
2019/10/24 18:40:01 BASE 17.85 17 23.56 25 3.7 87 1.7 200 0 988.2 NA 0.0000 9999 4040 0 0 0
2019/10/24 18:41:01 BASE 18.39 16 23.56 25 3.7 87 1.7 202 0 988.1 NA 0.0000 9999 3670 0 0 0
2019/10/24 18:42:01 BASE 18.31 16 23.56 25 3.7 87 1.7 201 0 988.2 NA 0.0000 9999 2950 3710 0 0
2019/10/24 18:43:01 BASE 17.60 16 23.56 25 3.6 87 1.7 197 0 988.2 NA 0.0000 9999 3540 0 0 0
2019/10/24 18:44:01 BASE 18.18 16 23.56 25 3.6 87 1.7 185 0 988.2 NA 0.0000 9999 3480 0 0 0
2019/10/24 18:45:01 BASE 19.52 19 23.10 21 3.6 87 1.7 182 0 988.1 NA 0.0000 9999 3220 5480 0 0
2019/10/24 18:46:01 BASE 20.34 20 23.56 14 3.6 88 1.7 177 0 988.1 NA 0.0000 9999 5640 0 0 0
2019/10/24 18:47:01 BASE 21.07 19 23.56 14 3.6 88 1.8 171 0 988.1 NA 0.0000 9999 3640 5740 0 0
2019/10/24 18:48:01 BASE 20.50 18 23.56 14 3.6 88 1.8 169 0 988.2 NA 0.0000 9999 3540 0 0 0
2019/10/24 18:49:01 BASE 20.25 17 23.56 14 3.6 88 1.8 178 0 988.2 NA 0.0000 9999 3580 0 0 0
2019/10/24 18:50:01 BASE 21.31 18 23.77 23 3.6 88 1.8 172 0 988.2 NA 0.0000 9999 3610 0 0 0
2019/10/24 18:51:01 BASE 21.26 18 23.77 23 3.5 88 1.7 168 0 988.2 NA 0.0000 9999 3350 0 0 0
2019/10/24 18:52:01 BASE 21.23 19 23.77 23 3.5 88 1.7 171 0 988.2 NA 0.0000 9999 3180 0 0 0
2019/10/24 18:53:01 BASE 22.00 19 23.97 13 3.5 88 1.8 168 0 988.2 NA 0.0000 9999 2990 3580 0 0
2019/10/24 18:54:01 BASE 22.10 18 23.97 13 3.6 88 1.8 170 0 988.2 NA 0.0000 9999 3220 0 0 0
2019/10/24 18:55:01 BASE 20.56 18 23.97 13 3.6 88 1.8 170 0 988.3 NA 0.0000 9999 2790 3410 0 0
2019/10/24 18:56:01 BASE 19.93 19 23.97 13 3.6 88 1.8 167 0 988.3 NA 0.0000 9999 3410 0 0 0
2019/10/24 18:57:01 BASE 21.03 21 23.97 13 3.6 88 1.8 162 0 988.3 NA 0.0000 9999 3280 0 0 0
2019/10/24 18:58:01 BASE 21.66 22 24.33 22 3.6 88 1.8 164 0 988.3 NA 0.0000 9999 3380 0 0 0
2019/10/24 18:59:01 BASE 22.24 21 24.64 20 3.5 88 1.8 164 0 988.2 NA 0.0000 9999 3310 0 0 0
2019/10/24 19:00:01 BASE 22.40 19 24.64 20 3.5 88 1.7 152 0 988.0 NA 0.0000 9999 3350 0 0 0
2019/10/24 19:01:01 BASE 21.32 20 24.64 20 3.5 89 1.8 147 0 988.3 NA 0.0000 9999 3450 0 0 0
2019/10/24 19:02:01 BASE 20.57 20 24.64 20 3.5 89 1.9 152 0 988.4 NA 0.0000 9999 3280 22540 0 0
2019/10/24 19:03:01 BASE 20.82 22 24.64 20 3.6 89 1.9 162 0 988.4 NA 0.0000 9999 3640 0 0 0
2019/10/24 19:04:01 BASE 20.41 24 24.64 20 3.6 89 1.9 173 0 988.5 NA 0.0000 9999 3510 0 0 0
2019/10/24 19:05:01 BASE 19.63 24 24.64 20 3.6 88 1.8 178 0 988.5 NA 0.0000 9999 2530 3150 0 0
2019/10/24 19:06:01 BASE 19.40 23 24.64 20 3.6 88 1.8 181 0 988.5 NA 0.0000 9999 2690 3380 0 0
2019/10/24 19:07:01 BASE 19.28 22 24.64 20 3.6 87 1.7 184 0 988.5 NA 0.0000 9999 2950 22770 0 0
2019/10/24 19:08:01 BASE 19.19 22 24.64 20 3.6 87 1.6 191 0 988.5 NA 0.0000 9999 2950 3450 0 0
2019/10/24 19:09:01 BASE 20.06 23 23.61 26 3.5 87 1.6 197 0 988.4 NA 0.0000 9999 3640 0 0 0
2019/10/24 19:10:01 BASE 21.62 22 23.77 16 3.5 87 1.6 207 0 988.4 NA 0.0000 9999 3840 5410 0 0
2019/10/24 19:11:01 BASE 22.22 20 23.77 16 3.5 88 1.6 211 0 988.4 NA 0.0000 9999 3380 4000 22800 0
2019/10/24 19:12:01 BASE 21.50 20 23.77 16 3.4 88 1.7 207 0 988.4 NA 0.0000 9999 3810 0 0 0
2019/10/24 19:13:01 BASE 21.28 21 23.97 23 3.4 89 1.7 200 0 988.4 NA 0.0000 9999 2590 3480 5540 0
2019/10/24 19:14:01 BASE 21.53 21 23.97 23 3.4 89 1.8 185 0 988.5 NA 0.0000 9999 3710 5910 0 0
2019/10/24 19:15:01 BASE 21.65 21 23.97 23 3.5 89 1.8 167 0 988.5 NA 0.0000 9999 3810 5940 0 0
2019/10/24 19:16:01 BASE 21.42 21 23.97 23 3.5 89 1.8 159 0 988.5 NA 0.0000 9999 3710 6140 0 0
2019/10/24 19:17:01 BASE 20.25 20 23.97 23 3.5 89 1.8 154 0 988.6 NA 0.0000 9999 2490 3480 5770 0
2019/10/24 19:18:01 BASE 19.96 19 23.97 23 3.5 89 1.8 150 0 988.1 NA 0.0000 9999 2460 0 0 0
2019/10/24 19:19:01 BASE 19.49 19 23.97 23 3.4 89 1.8 145 0 988.1 NA 0.0000 9999 2330 0 0 0
2019/10/24 19:20:01 BASE 18.70 18 23.97 23 3.4 89 1.8 141 0 988.7 NA 0.0000 9999 2490 3610 0 0
2019/10/24 19:21:01 BASE 18.34 16 23.97 23 3.4 89 1.8 137 0 988.7 NA 0.0000 9999 2590 3350 0 0
2019/10/24 19:22:01 BASE 17.62 14 23.97 23 3.4 89 1.8 130 0 988.8 NA 0.0000 9999 2460 0 0 0
2019/10/24 19:23:01 BASE 17.28 13 23.30 25 3.4 90 1.8 122 0 988.8 NA 0.0000 9999 2430 0 0 0
2019/10/24 19:24:01 BASE 17.33 15 23.30 25 3.4 90 1.8 122 0 988.8 NA 0.0000 9999 2430 0 0 0
2019/10/24 19:25:01 BASE 17.26 16 21.97 18 3.3 90 1.9 126 0 988.8 NA 0.0000 9999 2360 3120 0 0
2019/10/24 19:26:01 BASE 18.67 17 21.71 19 3.3 90 1.8 134 0 988.7 NA 0.0000 9999 2330 3510 0 0
2019/10/24 19:27:01 BASE 19.59 19 21.71 19 3.3 90 1.8 144 0 988.7 NA 0.0000 9999 2460 0 0 0
2019/10/24 19:28:01 BASE 19.07 17 21.50 24 3.3 90 1.9 145 0 988.7 NA 0.0000 9999 2620 3380 0 0
2019/10/24 19:29:01 BASE 18.44 14 21.50 24 3.3 90 1.9 136 0 988.8 NA 0.0000 9999 3410 0 0 0
2019/10/24 19:30:01 BASE 18.07 15 21.50 24 3.3 90 1.9 134 0 988.8 NA 0.0000 9999 2360 3350 0 0
2019/10/24 19:31:01 BASE 18.41 16 21.50 24 3.3 90 1.9 135 0 988.8 NA 0.0000 9999 2590 3220 0 0
2019/10/24 19:32:01 BASE 18.06 16 21.50 24 3.3 90 1.9 132 0 988.8 NA 0.0000 9999 2490 3450 0 0
2019/10/24 19:33:01 BASE 17.84 16 21.50 24 3.3 90 1.8 132 0 988.8 NA 0.0000 9999 3480 0 0 0
2019/10/24 19:34:01 BASE 18.62 15 21.50 24 3.3 90 1.9 134 0 988.7 NA 0.0000 9999 3510 0 0 0
2019/10/24 19:35:01 BASE 19.65 15 21.50 24 3.3 90 1.9 128 0 988.7 NA 0.0000 9999 3480 0 0 0
2019/10/24 19:36:01 BASE 20.08 16 22.17 15 3.3 91 1.9 122 0 988.7 NA 0.0000 9999 3450 0 0 0
2019/10/24 19:37:01 BASE 20.11 16 22.17 15 3.3 91 1.9 123 0 988.7 NA 0.0000 9999 3450 0 0 0
2019/10/24 19:38:01 BASE 19.70 16 22.17 15 3.3 91 2.0 125 0 988.7 NA 0.0000 9999 3410 0 0 0
2019/10/24 19:39:01 BASE 19.48 17 22.17 15 3.3 91 2.0 123 0 988.7 NA 0.0000 9999 3450 0 0 0
2019/10/24 19:40:01 BASE 20.10 18 22.17 22 3.3 91 2.0 122 0 988.7 NA 0.0000 9999 3410 0 0 0
2019/10/24 19:41:01 BASE 20.27 18 22.17 22 3.3 91 1.9 116 0 988.8 NA 0.0000 9999 3450 0 0 0
2019/10/24 19:42:01 BASE 19.91 17 22.17 22 3.3 91 2.0 106 0 988.7 NA 0.0000 9999 3480 0 0 0
2019/10/24 19:43:01 BASE 19.87 18 22.17 22 3.3 91 2.0 95 0 988.8 NA 0.0000 9999 3450 0 0 0
2019/10/24 19:44:01 BASE 19.88 18 22.17 22 3.3 91 1.9 93 0 988.8 NA 0.0000 9999 3510 0 0 0
2019/10/24 19:45:01 BASE 20.16 17 22.53 18 3.3 91 1.9 93 0 988.8 NA 0.0000 9999 3510 0 0 0
2019/10/24 19:46:01 BASE 19.68 16 22.53 18 3.3 91 1.9 91 0 988.9 NA 0.0000 9999 3480 0 0 0
2019/10/24 19:47:01 BASE 19.11 14 22.53 18 3.3 91 1.9 90 0 988.9 NA 0.0000 9999 3510 0 0 0
2019/10/24 19:48:01 BASE 19.28 14 22.53 18 3.3 91 2.0 83 0 988.9 NA 0.0000 9999 3640 0 0 0
2019/10/24 19:49:01 BASE 19.01 15 22.53 18 3.3 91 2.0 79 0 988.9 NA 0.0000 9999 3610 0 0 0
2019/10/24 19:50:01 BASE 18.99 13 22.53 18 3.3 91 1.9 77 0 988.9 NA 0.0000 9999 3610 0 0 0
2019/10/24 19:51:01 BASE 18.84 11 22.53 18 3.3 90 1.9 78 0 989.0 NA 0.0000 9999 3580 0 0 0
2019/10/24 19:52:01 BASE 18.85 12 22.53 18 3.3 90 1.9 81 0 989.0 NA 0.0000 9999 3580 0 0 0
2019/10/24 19:53:01 BASE 19.42 12 22.53 18 3.3 90 1.9 81 0 989.0 NA 0.0000 9999 3540 0 0 0
2019/10/24 19:54:01 BASE 19.56 12 22.53 18 3.3 90 1.9 83 0 989.0 NA 0.0000 9999 3580 0 0 0
2019/10/24 19:55:01 BASE 19.29 12 21.04 7 3.3 90 1.9 88 0 989.0 NA 0.0000 9999 2460 0 0 0
2019/10/24 19:56:01 BASE 19.17 9 21.04 7 3.3 90 1.8 83 0 989.1 NA 0.0000 9999 2560 4000 0 0
2019/10/24 19:57:01 BASE 20.29 7 22.69 7 3.3 90 1.8 85 0 989.0 NA 0.0000 9999 2560 3970 0 0
2019/10/24 19:58:01 BASE 21.51 9 22.69 7 3.3 90 1.8 95 0 988.9 NA 0.0000 9999 2490 3900 0 0
2019/10/24 19:59:01 BASE 21.50 11 24.49 11 3.3 90 1.7 107 0 988.9 NA 0.0000 9999 2200 0 0 0
2019/10/24 20:00:01 BASE 21.61 12 24.49 11 3.3 89 1.7 103 0 988.9 NA 0.0000 9999 1940 0 0 0
2019/10/24 20:01:01 BASE 21.14 12 24.49 11 3.3 89 1.7 87 0 988.9 NA 0.0000 9999 1940 5090 0 0
2019/10/24 20:02:01 BASE 21.00 11 24.49 11 3.3 89 1.7 85 0 988.9 NA 0.0000 9999 1900 4920 0 0
2019/10/24 20:03:01 BASE 22.00 12 24.49 11 3.3 89 1.6 96 0 988.9 NA 0.0000 9999 2000 0 0 0
2019/10/24 20:04:01 BASE 21.41 13 24.49 11 3.2 89 1.6 107 0 988.9 NA 0.0000 9999 2130 0 0 0
2019/10/24 20:05:01 BASE 20.95 14 24.49 11 3.2 89 1.6 99 0 988.9 NA 0.0000 9999 2100 0 0 0
2019/10/24 20:06:01 BASE 20.88 16 24.49 11 3.2 90 1.6 97 0 988.9 NA 0.0000 9999 2170 0 0 0
2019/10/24 20:07:01 BASE 20.58 15 24.49 11 3.2 90 1.7 113 0 988.9 NA 0.0000 9999 2230 0 0 0
2019/10/24 20:08:01 BASE 21.02 14 24.49 11 3.2 90 1.7 100 0 988.9 NA 0.0000 9999 2300 0 0 0
2019/10/24 20:09:01 BASE 21.17 12 24.49 11 3.1 91 1.8 87 0 988.9 NA 0.0000 9999 0 0 0 0
2019/10/24 20:10:01 BASE 20.55 12 24.18 14 3.2 91 1.8 95 0 989.0 NA 0.0000 9999 2620 0 0 0
2019/10/24 20:11:01 BASE 19.61 11 24.18 14 3.2 91 1.8 106 0 989.0 NA 0.0000 9999 2560 0 0 0
2019/10/24 20:12:01 BASE 19.24 12 23.92 11 3.2 91 1.8 112 0 989.0 NA 0.0000 9999 0 0 0 0
2019/10/24 20:13:01 BASE 19.35 12 23.20 14 3.2 91 1.8 97 0 989.0 NA 0.0000 9999 0 0 0 0
2019/10/24 20:14:01 BASE 19.74 10 23.20 14 3.2 91 1.9 88 0 989.0 NA 0.0000 9999 2790 0 0 0
2019/10/24 20:15:01 BASE 19.75 11 23.20 14 3.2 91 1.9 93 0 989.0 NA 0.0000 9999 0 0 0 0
2019/10/24 20:16:01 BASE 19.17 15 23.20 14 3.2 91 1.9 102 0 989.1 NA 0.0000 9999 0 0 0 0
2019/10/24 20:17:01 BASE 18.35 13 23.20 14 3.2 91 1.8 99 0 989.1 NA 0.0000 9999 0 0 0 0
2019/10/24 20:18:01 BASE 18.26 11 23.20 14 3.1 91 1.8 89 0 989.0 NA 0.0000 9999 0 0 0 0
2019/10/24 20:19:01 BASE 19.37 11 22.58 14 3.1 91 1.8 89 0 989.0 NA 0.0000 9999 0 0 0 0
2019/10/24 20:20:01 BASE 20.58 11 22.58 14 3.2 91 1.8 108 0 989.0 NA 0.0000 9999 0 0 0 0
2019/10/24 20:21:01 BASE 19.98 12 22.58 14 3.2 90 1.8 107 0 989.1 NA 0.0000 9999 0 0 0 0
2019/10/24 20:22:01 BASE 19.24 13 22.58 14 3.2 90 1.8 114 0 989.1 NA 0.0000 9999 2690 0 0 0
2019/10/24 20:23:01 BASE 19.08 13 22.58 14 3.3 90 1.8 149 0 989.1 NA 0.0000 9999 0 0 0 0
2019/10/24 20:24:01 BASE 17.84 11 22.58 14 3.3 90 1.7 141 0 989.2 NA 0.0000 9999 0 0 0 0
2019/10/24 20:25:01 BASE 17.59 10 22.58 14 3.2 90 1.7 83 0 989.2 NA 0.0000 9999 0 0 0 0
2019/10/24 20:26:01 BASE 17.27 10 22.58 14 3.2 89 1.6 75 0 989.2 NA 0.0000 9999 0 0 0 0
2019/10/24 20:27:01 BASE 16.57 8 22.58 14 3.2 89 1.6 68 0 989.2 NA 0.0000 9999 0 0 0 0
2019/10/24 20:28:01 BASE 17.72 9 22.58 14 3.1 89 1.5 59 0 989.2 NA 0.0000 9999 0 0 0 0
2019/10/24 20:29:01 BASE 18.70 10 21.66 6 3.1 90 1.5 52 0 989.2 NA 0.0000 9999 0 0 0 0
2019/10/24 20:30:00 BASE 18.24 11 21.09 16 3.0 90 1.5 60 0 989.2 NA 0.0000 9999 0 0 0 0
2019/10/24 20:31:01 BASE 17.79 13 21.09 16 3.0 90 1.5 83 0 989.2 NA 0.0000 9999 3710 0 0 0
2019/10/24 20:32:01 BASE 17.65 14 21.09 16 3.0 90 1.6 105 0 989.3 NA 0.0000 9999 0 0 0 0
2019/10/24 20:33:01 BASE 18.45 17 21.71 21 3.1 90 1.6 103 0 989.2 NA 0.0000 9999 3150 0 0 0
2019/10/24 20:34:00 BASE 19.34 19 21.71 21 3.1 90 1.7 98 0 989.2 NA 0.0000 9999 3150 0 0 0
2019/10/24 20:35:00 BASE 18.73 19 21.71 21 3.2 90 1.7 90 0 989.3 NA 0.0000 9999 3180 0 0 0
2019/10/24 20:36:00 BASE 17.77 19 21.71 21 3.2 90 1.7 81 0 989.3 NA 0.0000 9999 3080 0 0 0
2019/10/24 20:37:00 BASE 17.22 19 21.71 21 3.3 89 1.7 61 0 989.4 NA 0.0000 9999 3150 0 0 0
2019/10/24 20:38:00 BASE 17.40 19 21.71 21 3.3 89 1.7 53 0 989.3 NA 0.0000 9999 3280 6530 0 0
2019/10/24 20:39:00 BASE 17.77 14 21.71 21 3.3 89 1.6 57 0 989.3 NA 0.0000 9999 6560 0 0 0
2019/10/24 20:40:01 BASE 17.90 13 21.71 21 3.3 89 1.6 63 0 989.4 NA 0.0000 9999 0 0 0 0
2019/10/24 20:41:01 BASE 18.99 13 21.71 21 3.2 89 1.6 70 0 989.3 NA 0.0000 9999 3250 0 0 0
2019/10/24 20:42:01 BASE 19.17 13 21.71 21 3.2 89 1.6 77 0 989.3 NA 0.0000 9999 3350 0 0 0
2019/10/24 20:43:01 BASE 18.62 12 21.30 20 3.2 89 1.6 80 0 989.3 NA 0.0000 9999 3280 0 0 0
2019/10/24 20:44:01 BASE 19.60 11 21.30 20 3.2 89 1.6 79 0 989.3 NA 0.0000 9999 3250 0 0 0
2019/10/24 20:45:01 BASE 20.09 11 21.40 18 3.2 89 1.6 80 0 989.3 NA 0.0000 9999 2950 0 0 0
2019/10/24 20:46:01 BASE 19.53 13 21.40 18 3.2 89 1.6 83 0 989.3 NA 0.0000 9999 2990 0 0 0
2019/10/24 20:47:01 BASE 19.70 14 22.07 18 3.2 89 1.6 87 0 989.4 NA 0.0000 9999 2820 0 0 0
2019/10/24 20:48:01 BASE 19.40 14 22.07 18 3.2 89 1.6 90 0 989.5 NA 0.0000 9999 2850 0 0 0
2019/10/24 20:49:01 BASE 17.56 12 22.07 18 3.2 89 1.6 91 0 989.5 NA 0.0000 9999 2950 0 0 0
2019/10/24 20:50:01 BASE 18.50 9 22.58 7 3.2 89 1.6 89 0 989.4 NA 0.0000 9999 2590 0 0 0
2019/10/24 20:51:01 BASE 20.37 10 22.58 7 3.2 89 1.6 86 0 989.4 NA 0.0000 9999 2950 0 0 0
2019/10/24 20:52:01 BASE 19.39 10 22.58 7 3.2 89 1.6 84 0 989.5 NA 0.0000 9999 2850 0 0 0
2019/10/24 20:53:01 BASE 18.69 12 22.58 7 3.2 89 1.5 86 0 989.5 NA 0.0000 9999 2760 0 0 0
2019/10/24 20:54:01 BASE 18.32 16 22.58 7 3.2 89 1.5 90 0 989.5 NA 0.0000 9999 2720 0 0 0
2019/10/24 20:55:01 BASE 17.61 13 22.58 7 3.2 89 1.6 97 0 989.5 NA 0.0000 9999 2720 0 0 0
2019/10/24 20:56:01 BASE 17.70 9 22.58 7 3.1 90 1.6 105 0 989.5 NA 0.0000 9999 2920 0 0 0
2019/10/24 20:57:01 BASE 17.54 11 22.58 7 3.1 90 1.6 105 0 989.5 NA 0.0000 9999 3050 0 0 0
2019/10/24 20:58:01 BASE 16.97 14 22.58 7 3.0 90 1.6 102 0 989.5 NA 0.0000 9999 3080 0 0 0
2019/10/24 20:59:01 BASE 17.44 15 22.58 7 3.0 90 1.6 98 0 989.4 NA 0.0000 9999 2920 0 0 0
2019/10/24 21:00:01 BASE 17.72 15 22.17 13 3.0 90 1.6 94 0 989.4 NA 0.0000 9999 2920 0 0 0
2019/10/24 21:01:01 BASE 17.99 14 20.11 14 3.0 91 1.6 90 0 989.4 NA 0.0000 9999 2990 0 0 0
2019/10/24 21:02:01 BASE 18.26 13 20.11 14 3.0 91 1.6 85 0 989.4 NA 0.0000 9999 2890 0 0 0
2019/10/24 21:03:01 BASE 18.29 15 20.89 28 3.0 91 1.7 78 0 989.4 NA 0.0000 9999 2950 0 0 0
2019/10/24 21:04:01 BASE 18.97 19 22.28 22 3.0 91 1.7 74 0 989.4 NA 0.0000 9999 3450 0 0 0
2019/10/24 21:05:01 BASE 19.03 21 22.28 22 3.1 91 1.7 71 0 989.4 NA 0.0000 9999 3510 0 0 0
2019/10/24 21:06:01 BASE 18.92 22 22.28 22 3.1 91 1.7 70 0 989.4 NA 0.0000 9999 3310 0 0 0
2019/10/24 21:07:01 BASE 18.85 20 22.28 22 3.1 91 1.7 70 0 989.4 NA 0.0000 9999 3280 0 0 0
2019/10/24 21:08:01 BASE 18.27 16 22.28 22 3.1 90 1.7 70 0 989.5 NA 0.0000 9999 3150 0 0 0
2019/10/24 21:09:01 BASE 17.70 15 22.28 22 3.1 90 1.7 72 0 989.5 NA 0.0000 9999 2890 0 0 0
2019/10/24 21:10:01 BASE 17.20 13 22.28 22 3.1 90 1.7 75 0 989.5 NA 0.0000 9999 3310 0 0 0
2019/10/24 21:11:01 BASE 17.20 10 22.28 22 3.1 90 1.7 78 0 989.5 NA 0.0000 9999 3120 0 0 0
2019/10/24 21:12:01 BASE 18.06 10 22.28 22 3.1 90 1.6 75 0 989.4 NA 0.0000 9999 3120 0 0 0
2019/10/24 21:13:01 BASE 18.95 11 22.28 22 3.1 90 1.7 69 0 989.4 NA 0.0000 9999 2950 0 0 0
2019/10/24 21:14:01 BASE 20.03 11 22.28 22 3.1 90 1.7 66 0 989.4 NA 0.0000 9999 2950 0 0 0
2019/10/24 21:15:01 BASE 19.88 15 21.92 23 3.2 90 1.7 63 0 989.4 NA 0.0000 9999 2850 0 0 0
2019/10/24 21:16:01 BASE 18.95 19 21.92 23 3.2 90 1.7 60 0 989.4 NA 0.0000 9999 2950 0 0 0
2019/10/24 21:17:01 BASE 18.88 19 21.92 23 3.2 90 1.6 60 0 989.3 NA 0.0000 9999 2950 0 0 0
2019/10/24 21:18:01 BASE 19.26 18 21.92 23 3.2 89 1.6 57 0 989.3 NA 0.0000 9999 3050 0 0 0
2019/10/24 21:19:01 BASE 19.20 18 21.92 23 3.2 89 1.6 53 0 989.3 NA 0.0000 9999 2990 0 0 0
2019/10/24 21:20:01 BASE 18.13 18 21.92 23 3.1 89 1.5 49 0 989.3 NA 0.0000 9999 3120 0 0 0
2019/10/24 21:21:01 BASE 19.47 19 23.51 20 3.1 89 1.5 46 0 989.2 NA 0.0000 9999 3050 0 0 0
2019/10/24 21:22:01 BASE 20.76 20 23.51 20 3.1 89 1.6 46 0 989.2 NA 0.0000 9999 0 0 0 0
2019/10/24 21:23:01 BASE 18.98 20 23.51 20 3.1 90 1.6 48 0 989.3 NA 0.0000 9999 3280 0 0 0
2019/10/24 21:24:01 BASE 18.04 21 23.51 20 3.1 90 1.6 49 0 989.2 NA 0.0000 9999 3640 0 0 0
2019/10/24 21:25:01 BASE 18.48 20 23.51 20 3.1 90 1.6 50 0 989.1 NA 0.0000 9999 3740 0 0 0
2019/10/24 21:26:01 BASE 18.73 19 23.51 20 3.1 90 1.6 50 0 989.1 NA 0.0000 9999 3640 0 0 0
2019/10/24 21:27:01 BASE 19.91 22 24.02 24 3.1 90 1.6 51 0 989.0 NA 0.0000 9999 3840 0 0 0
2019/10/24 21:28:01 BASE 20.91 23 24.02 24 3.1 90 1.6 50 0 989.0 NA 0.0000 9999 3770 0 0 0
2019/10/24 21:29:01 BASE 20.72 23 24.59 18 3.2 90 1.6 51 0 989.0 NA 0.0000 9999 3810 0 0 0
2019/10/24 21:30:01 BASE 20.18 22 24.59 18 3.2 89 1.6 51 0 989.1 NA 0.0000 9999 0 0 0 0
2019/10/24 21:31:01 BASE 18.87 25 24.59 18 3.2 89 1.5 48 0 989.1 NA 0.0000 9999 3670 0 0 0
2019/10/24 21:32:01 BASE 19.50 27 25.00 31 3.2 89 1.5 45 0 989.0 NA 0.0000 9999 3670 0 0 0
2019/10/24 21:33:01 BASE 20.65 27 25.00 31 3.2 88 1.4 43 0 989.0 NA 0.0000 9999 3770 0 0 0
2019/10/24 21:34:01 BASE 20.66 30 25.00 31 3.2 88 1.4 43 0 989.0 NA 0.0000 9999 3540 0 0 0
2019/10/24 21:35:01 BASE 20.64 29 25.00 31 3.2 88 1.4 42 0 989.0 NA 0.0000 9999 0 0 0 0
2019/10/24 21:36:01 BASE 20.05 27 25.00 31 3.3 87 1.4 42 0 989.0 NA 0.0000 9999 0 0 0 0
2019/10/24 21:37:01 BASE 19.69 26 25.00 31 3.3 87 1.4 41 0 989.0 NA 0.0000 9999 0 0 0 0
2019/10/24 21:38:01 BASE 20.13 26 25.00 31 3.3 87 1.3 39 0 988.9 NA 0.0000 9999 0 0 0 0
2019/10/24 21:39:01 BASE 19.99 27 25.00 31 3.3 86 1.2 36 0 989.0 NA 0.0000 9999 0 0 0 0
2019/10/24 21:40:01 BASE 19.95 26 25.00 31 3.3 86 1.2 37 0 988.9 NA 0.0000 9999 0 0 0 0
2019/10/24 21:41:01 BASE 19.21 27 25.00 31 3.3 86 1.2 39 0 989.0 NA 0.0000 9999 0 0 0 0
2019/10/24 21:42:01 BASE 18.72 30 25.00 31 3.3 86 1.2 39 0 989.0 NA 0.0000 9999 0 0 0 0
2019/10/24 21:43:01 BASE 19.35 31 23.61 31 3.3 86 1.2 40 0 989.0 NA 0.0000 9999 0 0 0 0
2019/10/24 21:44:01 BASE 19.39 32 23.61 31 3.3 86 1.2 41 0 989.0 NA 0.0000 9999 0 0 0 0
2019/10/24 21:45:01 BASE 19.77 33 23.61 31 3.3 86 1.2 42 0 988.9 NA 0.0000 9999 0 0 0 0
2019/10/24 21:46:01 BASE 19.53 33 23.61 31 3.4 86 1.2 43 0 989.0 NA 0.0000 9999 0 0 0 0
2019/10/24 21:47:01 BASE 19.03 32 23.61 31 3.4 85 1.2 42 0 989.0 NA 0.0000 9999 0 0 0 0
2019/10/24 21:48:01 BASE 19.65 31 23.41 27 3.4 85 1.1 40 0 988.9 NA 0.0000 9999 0 0 0 0
2019/10/24 21:49:01 BASE 19.77 32 22.89 38 3.4 85 1.1 38 0 989.0 NA 0.0000 9999 0 0 0 0
2019/10/24 21:50:01 BASE 18.41 32 22.89 38 3.4 84 1.1 37 0 989.0 NA 0.0000 9999 0 0 0 0
2019/10/24 21:51:01 BASE 18.42 33 23.10 44 3.4 84 1.0 36 0 988.9 NA 0.0000 9999 0 0 0 0
2019/10/24 21:52:01 BASE 19.63 36 23.10 44 3.4 84 1.0 36 0 988.9 NA 0.0000 9999 0 0 0 0
2019/10/24 21:53:01 BASE 19.19 36 23.10 44 3.4 85 1.0 38 0 988.9 NA 0.0000 9999 0 0 0 0
2019/10/24 21:54:01 BASE 18.83 35 23.10 44 3.4 85 1.1 38 0 988.9 NA 0.0000 9999 0 0 0 0
2019/10/24 21:55:01 BASE 19.40 35 23.10 44 3.4 85 1.1 37 0 988.9 NA 0.0000 9999 0 0 0 0
2019/10/24 21:56:01 BASE 18.64 34 23.10 44 3.5 85 1.1 36 0 988.9 NA 0.0000 9999 0 0 0 0
2019/10/24 21:57:01 BASE 18.32 34 23.10 44 3.5 84 1.1 36 0 988.9 NA 0.0000 9999 0 0 0 0
2019/10/24 21:58:01 BASE 18.90 36 23.10 44 3.5 84 1.1 37 0 989.0 NA 0.0000 9999 0 0 0 0
2019/10/24 21:59:01 BASE 18.41 36 23.10 44 3.5 84 1.0 38 0 989.0 NA 0.0000 9999 0 0 0 0
2019/10/24 22:00:01 BASE 18.00 36 23.10 44 3.5 84 1.0 38 0 989.0 NA 0.0000 9999 0 0 0 0
2019/10/24 22:01:01 BASE 16.97 38 22.28 34 3.5 83 1.0 37 0 989.1 NA 0.0000 9999 0 0 0 0
2019/10/24 22:02:01 BASE 15.44 39 21.92 36 3.5 83 0.9 36 0 989.1 NA 0.0000 9999 0 0 0 0
2019/10/24 22:03:01 BASE 15.92 38 21.92 36 3.5 83 0.8 34 0 989.1 NA 0.0000 9999 0 0 0 0
2019/10/24 22:04:01 BASE 16.09 39 21.92 36 3.5 83 0.8 33 0 989.1 NA 0.0000 9999 0 0 0 0
2019/10/24 22:05:01 BASE 15.87 39 20.89 31 3.4 83 0.8 33 0 989.1 NA 0.0000 9999 0 0 0 0
2019/10/24 22:06:01 BASE 16.05 35 20.89 31 3.4 83 0.8 35 0 989.0 NA 0.0000 9999 0 0 0 0
2019/10/24 22:07:01 BASE 15.17 37 20.17 25 3.4 83 0.7 35 0 989.1 NA 0.0000 9999 0 0 0 0
2019/10/24 22:08:01 BASE 15.62 40 20.01 43 3.4 83 0.8 34 0 989.0 NA 0.0000 9999 0 0 0 0
2019/10/24 22:09:01 BASE 17.65 39 20.17 42 3.3 83 0.8 35 0 988.9 NA 0.0000 9999 0 0 0 0
2019/10/24 22:10:01 BASE 18.87 39 21.25 34 3.3 84 0.8 36 0 988.9 NA 0.0000 9999 0 0 0 0
2019/10/24 22:11:01 BASE 18.02 37 21.25 34 3.4 84 0.9 34 0 988.9 NA 0.0000 9999 0 0 0 0
2019/10/24 22:12:01 BASE 17.38 35 21.25 34 3.4 84 0.9 33 0 988.9 NA 0.0000 9999 0 0 0 0
2019/10/24 22:13:01 BASE 19.17 36 24.38 43 3.4 84 0.9 34 0 988.9 NA 0.0000 9999 0 0 0 0
2019/10/24 22:14:01 BASE 19.82 37 24.38 43 3.4 83 0.9 37 0 988.9 NA 0.0000 9999 0 0 0 0
2019/10/24 22:15:01 BASE 18.80 36 24.38 43 3.5 83 0.8 36 0 988.9 NA 0.0000 9999 0 0 0 0
2019/10/24 22:16:01 BASE 18.23 37 24.38 43 3.5 82 0.7 37 0 989.0 NA 0.0000 9999 0 0 0 0
2019/10/24 22:17:01 BASE 17.71 40 24.38 43 3.5 82 0.7 41 0 989.0 NA 0.0000 9999 0 0 0 0
2019/10/24 22:18:01 BASE 16.49 41 24.38 43 3.5 81 0.6 41 0 989.0 NA 0.0000 9999 0 0 0 0
2019/10/24 22:19:01 BASE 16.29 45 24.38 43 3.5 81 0.6 36 0 989.0 NA 0.0000 9999 0 0 0 0
2019/10/24 22:20:01 BASE 16.79 44 24.38 43 3.5 81 0.5 34 0 989.0 NA 0.0000 9999 0 0 0 0
2019/10/24 22:21:01 BASE 17.08 43 24.38 43 3.5 81 0.5 35 0 989.0 NA 0.0000 9999 0 0 0 0
2019/10/24 22:22:01 BASE 17.75 42 24.38 43 3.5 81 0.5 36 0 989.0 NA 0.0000 9999 0 0 0 0
2019/10/24 22:23:01 BASE 17.30 41 22.84 26 3.5 81 0.5 38 0 989.0 NA 0.0000 9999 0 0 0 0
2019/10/24 22:24:01 BASE 16.40 42 20.78 44 3.5 81 0.5 43 0 989.1 NA 0.0000 9999 0 0 0 0
2019/10/24 22:25:01 BASE 16.63 41 20.73 44 3.5 81 0.5 38 0 989.1 NA 0.0000 9999 4040 0 0 0
2019/10/24 22:26:01 BASE 17.56 41 20.73 44 3.5 81 0.5 34 0 989.0 NA 0.0000 9999 3840 0 0 0
2019/10/24 22:27:01 BASE 18.15 43 20.73 44 3.5 81 0.5 32 0 989.1 NA 0.0000 9999 0 0 0 0
2019/10/24 22:28:01 BASE 18.48 45 21.86 38 3.5 81 0.5 30 0 989.1 NA 0.0000 9999 0 0 0 0
2019/10/24 22:29:01 BASE 18.25 45 21.86 38 3.5 81 0.5 30 0 989.1 NA 0.0000 9999 0 0 0 0
2019/10/24 22:30:01 BASE 17.59 43 21.86 38 3.5 80 0.5 29 0 989.1 NA 0.0000 9999 0 0 0 0
2019/10/24 22:31:01 BASE 16.76 44 21.86 38 3.5 80 0.5 29 0 989.2 NA 0.0000 9999 0 0 0 0
2019/10/24 22:32:01 BASE 16.13 43 21.86 38 3.5 80 0.4 30 0 989.2 NA 0.0000 9999 0 0 0 0
2019/10/24 22:33:01 BASE 15.85 46 21.86 38 3.5 80 0.4 30 0 989.2 NA 0.0000 9999 0 0 0 0
2019/10/24 22:34:01 BASE 14.38 45 21.86 38 3.6 80 0.4 29 0 989.2 NA 0.0000 9999 0 0 0 0
2019/10/24 22:35:01 BASE 14.00 45 21.86 38 3.6 80 0.4 30 0 989.2 NA 0.0000 9999 0 0 0 0
2019/10/24 22:36:01 BASE 15.13 48 21.86 38 3.6 80 0.4 29 0 989.2 NA 0.0000 9999 0 0 0 0
2019/10/24 22:37:01 BASE 15.06 47 21.86 38 3.6 80 0.5 27 0 989.2 NA 0.0000 9999 0 0 0 0
2019/10/24 22:38:01 BASE 15.51 43 20.47 46 3.7 80 0.5 27 0 989.2 NA 0.0000 9999 0 0 0 0
2019/10/24 22:39:01 BASE 15.24 43 19.60 40 3.7 80 0.5 28 0 989.2 NA 0.0000 9999 0 0 0 0
2019/10/24 22:40:01 BASE 14.03 46 18.57 37 3.7 80 0.5 36 0 989.2 NA 0.0000 9999 0 0 0 0
2019/10/24 22:41:01 BASE 14.28 44 18.57 37 3.7 79 0.5 30 0 989.1 NA 0.0000 9999 0 0 0 0
2019/10/24 22:42:01 BASE 14.66 44 19.19 61 3.7 79 0.5 34 0 989.1 NA 0.0000 9999 0 0 0 0
2019/10/24 22:43:01 BASE 15.53 44 19.19 61 3.7 79 0.5 32 0 989.1 NA 0.0000 9999 0 0 0 0
2019/10/24 22:44:01 BASE 15.53 41 19.19 61 3.7 79 0.5 27 0 989.1 NA 0.0000 9999 3710 4460 0 0
2019/10/24 22:45:01 BASE 14.66 44 19.19 61 3.7 79 0.5 24 0 989.1 NA 0.0000 9999 0 0 0 0
2019/10/24 22:46:01 BASE 14.68 49 19.19 61 3.8 79 0.5 19 0 989.1 NA 0.0000 9999 0 0 0 0
2019/10/24 22:47:01 BASE 15.66 48 20.17 34 3.8 79 0.5 17 0 989.0 NA 0.0000 9999 0 0 0 0
2019/10/24 22:48:01 BASE 16.43 46 20.17 34 3.8 79 0.5 16 0 989.0 NA 0.0000 9999 0 0 0 0
2019/10/24 22:49:01 BASE 16.23 47 20.17 34 3.8 79 0.5 15 0 989.0 NA 0.0000 9999 0 0 0 0
2019/10/24 22:50:01 BASE 15.42 50 20.17 34 3.8 79 0.5 15 0 989.0 NA 0.0000 9999 4270 0 0 0
2019/10/24 22:51:01 BASE 15.42 49 20.17 34 3.9 79 0.5 15 0 989.0 NA 0.0000 9999 4230 0 0 0
2019/10/24 22:52:01 BASE 16.57 48 20.17 34 3.9 78 0.4 15 0 989.0 NA 0.0000 9999 0 0 0 0
2019/10/24 22:53:01 BASE 16.55 50 20.17 34 3.9 78 0.4 15 0 989.0 NA 0.0000 9999 4040 0 0 0
2019/10/24 22:54:01 BASE 15.55 43 20.17 34 3.9 78 0.4 15 0 989.0 NA 0.0000 9999 3970 4690 0 0
2019/10/24 22:55:01 BASE 14.85 39 20.17 34 3.9 78 0.4 15 0 989.1 NA 0.0000 9999 3970 0 0 0
2019/10/24 22:56:01 BASE 13.43 44 20.17 34 4.0 78 0.4 14 0 989.1 NA 0.0000 9999 3380 4130 0 0
2019/10/24 22:57:01 BASE 12.47 44 19.65 59 4.0 77 0.4 13 0 989.1 NA 0.0000 9999 3640 0 0 0
2019/10/24 22:58:01 BASE 12.68 45 19.65 59 4.0 77 0.4 13 0 989.2 NA 0.0000 9999 3870 0 0 0
2019/10/24 22:59:01 BASE 12.59 48 19.65 59 4.0 77 0.3 13 0 989.1 NA 0.0000 9999 0 0 0 0
2019/10/24 23:00:01 BASE 12.24 47 19.65 59 4.0 77 0.3 13 0 989.1 NA 0.0000 9999 0 0 0 0
2019/10/24 23:01:00 BASE 10.89 47 19.65 59 4.0 76 0.2 13 0 989.1 NA 0.0000 9999 3870 4460 0 0
2019/10/24 23:02:00 BASE 12.67 50 19.65 59 3.9 77 0.2 13 0 989.0 NA 0.0000 9999 3640 0 0 0
2019/10/24 23:03:00 BASE 14.97 46 19.81 36 3.9 77 0.2 14 0 989.0 NA 0.0000 9999 3740 4460 0 0
2019/10/24 23:04:00 BASE 14.08 35 19.81 36 3.9 77 0.2 14 0 989.1 NA 0.0000 9999 0 0 0 0
2019/10/24 23:05:00 BASE 12.81 30 19.81 36 3.9 77 0.3 15 0 989.1 NA 0.0000 9999 0 0 0 0
2019/10/24 23:06:00 BASE 11.88 28 19.81 36 3.9 77 0.3 14 0 989.1 NA 0.0000 9999 4820 0 0 0
2019/10/24 23:07:00 BASE 10.41 28 19.81 36 3.9 77 0.3 13 0 989.2 NA 0.0000 9999 0 0 0 2990
2019/10/24 23:08:00 BASE 9.34 35 19.81 36 3.9 77 0.2 14 0 989.1 NA 0.0000 9999 0 0 0 0
2019/10/24 23:09:00 BASE 11.48 37 19.81 36 3.9 77 0.3 16 0 989.1 NA 0.0000 9999 0 0 0 0
2019/10/24 23:10:00 BASE 12.77 32 19.81 36 3.8 78 0.3 16 0 989.2 NA 0.0000 9999 0 0 0 0
2019/10/24 23:11:00 BASE 13.61 24 22.33 21 3.8 78 0.3 15 0 989.1 NA 0.0000 9999 4070 0 0 0
2019/10/24 23:12:00 BASE 16.81 20 22.33 21 3.7 79 0.4 16 0 989.0 NA 0.0000 9999 4630 0 0 0
2019/10/24 23:13:00 BASE 16.95 23 22.33 21 3.7 79 0.5 17 0 989.1 NA 0.0000 9999 4330 0 0 0
2019/10/24 23:14:00 BASE 15.95 24 22.33 21 3.6 80 0.5 16 0 989.1 NA 0.0000 9999 0 0 0 0
2019/10/24 23:15:00 BASE 16.20 31 22.33 21 3.5 81 0.6 16 0 989.1 NA 0.0000 9999 0 0 0 0
2019/10/24 23:16:01 BASE 15.14 35 22.33 21 3.5 82 0.7 16 0 989.2 NA 0.0000 9999 14140 0 0 0
2019/10/24 23:17:00 BASE 14.21 33 22.33 21 3.5 82 0.8 16 0 989.2 NA 0.0000 9999 14110 0 0 0
2019/10/24 23:18:00 BASE 13.43 32 22.33 21 3.5 83 0.8 15 0 989.2 NA 0.0000 9999 14110 0 0 0
2019/10/24 23:19:00 BASE 11.57 31 22.33 21 3.5 83 0.9 14 0 989.2 NA 0.0000 9999 14210 0 0 0
2019/10/24 23:20:00 BASE 9.69 32 22.33 21 3.4 84 0.9 14 0 989.3 NA 0.0000 9999 14210 0 0 0
2019/10/24 23:21:00 BASE 9.26 32 20.89 24 3.4 84 1.0 14 0 989.3 NA 0.0000 9999 14270 0 0 0
2019/10/24 23:22:01 BASE 11.98 32 19.03 31 3.4 84 1.0 13 0 989.2 NA 0.0000 9999 14270 0 0 0
2019/10/24 23:23:00 BASE 15.02 26 19.60 16 3.5 84 1.0 12 0 989.1 NA 0.0000 9999 14270 0 0 0
2019/10/24 23:24:00 BASE 13.51 23 19.60 16 3.5 84 1.0 12 0 989.2 NA 0.0000 9999 14310 0 0 0
2019/10/24 23:25:00 BASE 11.79 29 19.60 16 3.6 83 1.0 11 0 989.2 NA 0.0000 9999 14270 0 0 0
2019/10/24 23:26:00 BASE 14.01 28 20.17 22 3.6 83 1.0 11 0 989.1 NA 0.0000 9999 14270 0 0 0
2019/10/24 23:27:00 BASE 15.59 28 20.17 22 3.7 82 1.0 10 0 989.2 NA 0.0000 9999 14340 0 0 0
2019/10/24 23:28:00 BASE 15.64 29 20.17 22 3.7 82 0.9 9 0 989.2 NA 0.0000 9999 14470 0 0 0
2019/10/24 23:29:00 BASE 15.37 24 20.17 22 3.7 82 0.9 9 0 989.2 NA 0.0000 9999 14470 0 0 0
2019/10/24 23:30:01 BASE 15.59 22 20.17 22 3.7 81 0.8 9 0 989.2 NA 0.0000 9999 14470 0 0 0
2019/10/24 23:31:00 BASE 17.05 26 20.78 24 3.7 81 0.8 8 0 989.2 NA 0.0000 9999 14530 0 0 0
2019/10/24 23:32:01 BASE 16.87 26 20.78 24 3.7 81 0.8 8 0 989.3 NA 0.0000 9999 14530 0 0 0
2019/10/24 23:33:00 BASE 16.62 23 23.20 25 3.7 82 0.8 8 0 989.3 NA 0.0000 9999 14500 0 0 0
2019/10/24 23:34:00 BASE 16.01 22 23.20 25 3.6 82 0.8 7 0 989.4 NA 0.0000 9999 14530 0 0 0
2019/10/24 23:35:00 BASE 14.81 23 23.20 25 3.6 82 0.8 7 0 989.4 NA 0.0000 9999 14500 0 0 0
2019/10/24 23:36:00 BASE 14.91 23 23.20 25 3.6 82 0.8 7 0 989.4 NA 0.0000 9999 14470 0 0 0
2019/10/24 23:37:00 BASE 14.79 23 23.20 25 3.5 83 0.8 6 0 989.5 NA 0.0000 9999 14440 0 0 0
2019/10/24 23:38:00 BASE 14.10 21 23.20 25 3.5 83 0.9 6 0 989.5 NA 0.0000 9999 4170 14440 0 0
2019/10/24 23:39:00 BASE 14.26 17 23.20 25 3.5 83 0.9 6 0 989.5 NA 0.0000 9999 13090 14470 0 0
2019/10/24 23:40:00 BASE 14.38 13 23.20 25 3.5 83 0.9 5 0 989.6 NA 0.0000 9999 13120 14400 0 0
2019/10/24 23:41:00 BASE 13.32 11 23.20 25 3.4 84 0.9 5 0 989.6 NA 0.0000 9999 14400 0 0 0
2019/10/24 23:42:00 BASE 12.89 10 23.20 25 3.3 84 0.9 5 0 989.7 NA 0.0000 9999 14370 0 0 0
2019/10/24 23:43:00 BASE 14.26 9 18.93 23 3.3 85 0.9 4 0 989.5 NA 0.0000 9999 14370 0 0 0
2019/10/24 23:44:00 BASE 17.26 13 22.17 23 3.2 85 0.9 4 0 989.4 NA 0.0000 9999 14170 0 0 0
2019/10/24 23:45:00 BASE 18.96 19 22.17 23 3.1 86 1.0 4 0 989.3 NA 0.0000 9999 5090 6000 14110 0
2019/10/24 23:46:00 BASE 18.30 23 22.17 23 3.1 87 1.1 3 0 989.3 NA 0.0000 9999 5480 13780 0 0
2019/10/24 23:47:00 BASE 18.82 25 26.80 29 3.2 87 1.2 3 0 989.2 NA 0.0000 9999 4860 13710 0 0
2019/10/24 23:48:01 BASE 20.73 24 26.80 29 3.2 88 1.4 3 0 989.2 NA 0.0000 9999 4950 0 0 0
2019/10/24 23:49:00 BASE 22.16 21 26.80 29 3.3 88 1.4 2 0 989.1 NA 0.0000 9999 4100 5020 0 0
2019/10/24 23:50:00 BASE 22.84 16 26.80 29 3.4 87 1.5 2 0 989.1 NA 0.0000 9999 4400 5020 0 0
2019/10/24 23:51:00 BASE 23.11 15 26.80 29 3.4 87 1.4 2 0 989.1 NA 0.0000 9999 4300 5150 0 0
2019/10/24 23:52:01 BASE 21.67 17 26.80 29 3.4 87 1.4 2 0 989.2 NA 0.0000 9999 5410 0 0 0
2019/10/24 23:53:00 BASE 20.88 18 26.80 29 3.4 86 1.3 2 0 989.1 NA 0.0000 9999 4820 0 0 0
2019/10/24 23:54:01 BASE 21.62 20 26.80 29 3.4 86 1.3 2 0 989.1 NA 0.0000 9999 5050 0 0 0
2019/10/24 23:55:00 BASE 22.15 25 26.80 29 3.3 86 1.3 2 0 989.0 NA 0.0000 9999 5090 13620 0 0
2019/10/24 23:56:00 BASE 24.26 25 27.21 24 3.3 87 1.3 2 0 989.0 NA 0.0000 9999 5350 13620 0 0
2019/10/24 23:57:00 BASE 24.31 21 27.21 24 3.4 87 1.4 2 0 989.1 NA 0.0000 9999 13750 0 0 0
2019/10/24 23:58:00 BASE 23.51 20 27.21 24 3.4 87 1.4 2 0 989.0 NA 0.0000 9999 4760 13650 0 0
2019/10/24 23:59:00 BASE 23.44 21 27.21 24 3.4 87 1.4 2 0 989.0 NA 0.0000 9999 13620 0 0 0